[[{"header":{"parameterUnit":"m.s-1","parameterCategory":1,"la1":31.0,"la2":29.5877,"lo1":-88.7671,"lo2":-86.6584,"dy":0.0162,"dx":0.0185,"nx":115,"ny":88,"refTime":"2023-04-09T00:00:00:Z","depth":0,"parameterNumber":2,"parameterNumberName":"U-component_of_WINDS"},"data":[0.0,0.0,0.0,0.0,0.0,0.0,0.0,0.0,0.0,0.0,0.0,0.0,0.0,0.0,0.0,0.0,0.0,0.0,0.0,0.0,0.0,0.0,0.0,0.0,0.0,0.0,0.0,0.0,0.0,0.0,0.0,0.0,0.0,0.0,0.0,0.0,0.0,0.0,0.0,0.0,0.0,0.0,0.0,0.0,0.0,0.0,0.0,0.0,0.0,0.0,0.0,0.0,0.0,0.0,0.0,0.0,0.0,0.0,0.0,0.0,0.0,0.0,0.0,0.0,0.0,0.0,0.0,0.0,0.0,0.0,0.0,0.0,0.0,0.0,0.0,0.0,0.0,0.0,0.0,0.0,0.0,0.0,0.0,0.0,0.0,0.0,0.0,0.0,0.0,0.0,0.0,0.0,0.0,0.0,0.0,0.0,0.0,0.0,0.0,0.0,0.0,0.0,0.0,0.0,0.0,0.0,0.0,0.0,0.0,0.0,0.0,0.0,0.0,0.0,0.0,0.0,0.0,0.0,0.0,0.0,0.0,0.0,0.0,0.0,0.0,0.0,0.0,0.0,0.0,0.0,0.0,0.0,0.0,0.0,0.0,0.0,0.0,0.0,0.0,0.0,0.0,0.0,0.0,0.0,0.0,0.0,0.0,0.0,0.0,0.0,0.0,0.0,0.0,0.0,0.0,0.0,0.0,0.0,0.0,0.0,0.0,0.0,0.0,0.0,0.0,0.0,0.0,0.0,0.0,0.0,0.0,0.0,0.0,0.0,0.0,0.0,0.0,0.0,0.0,0.0,0.0,0.0,0.0,0.0,0.0,0.0,0.0,0.0,0.0,0.0,0.0,0.0,0.0,0.0,0.0,0.0,0.0,0.0,0.0,0.0,0.0,0.0,0.0,0.0,0.0,0.0,0.0,0.0,0.0,0.0,0.0,0.0,0.0,0.0,0.0,0.0,0.0,0.0,0.0,0.0,0.0,0.0,0.0,0.0,0.0,0.0,0.0,0.0,0.0,0.0,0.0,0.0,0.0,0.0,0.0,0.0,0.0,0.0,0.0,0.0,0.0,0.0,0.0,0.0,0.0,0.0,0.0,0.0,0.0,0.0,0.0,0.0,0.0,0.0,0.0,0.0,0.0,0.0,0.0,0.0,0.0,0.0,0.0,0.0,0.0,0.0,0.0,0.0,0.0,0.0,0.0,0.0,0.0,0.0,0.0,0.0,0.0,0.0,0.0,0.0,0.0,0.0,0.0,0.0,0.0,0.0,0.0,0.0,0.0,0.0,0.0,0.0,0.0,0.0,0.0,0.0,0.0,0.0,0.0,0.0,0.0,0.0,0.0,0.0,0.0,0.0,0.0,0.0,0.0,0.0,0.0,0.0,0.0,0.0,0.0,0.0,0.0,0.0,0.0,0.0,0.0,0.0,0.0,0.0,0.0,0.0,0.0,0.0,0.0,0.0,0.0,0.0,0.0,0.0,0.0,0.0,0.0,0.0,0.0,0.0,0.0,0.0,0.0,0.0,0.0,0.0,0.0,0.0,0.0,0.0,0.0,0.0,0.0,0.0,0.0,0.0,0.0,0.0,0.0,0.0,0.0,0.0,0.0,0.0,0.0,0.0,0.0,0.0,0.0,0.0,0.0,0.0,0.0,0.0,0.0,0.0,0.0,0.0,0.0,0.0,0.0,0.0,0.0,0.0,0.0,0.0,0.0,0.0,0.0,0.0,0.0,0.0,0.0,0.0,0.0,0.0,0.0,0.0,0.0,0.0,0.0,0.0,0.0,0.0,0.0,0.0,0.0,0.0,0.0,0.0,0.0,0.0,0.0,0.0,0.0,0.0,0.0,0.0,0.0,0.0,0.0,0.0,0.0,0.0,0.0,0.0,0.0,0.0,0.0,0.0,0.0,0.0,0.0,0.0,0.0,0.0,0.0,0.0,0.0,0.0,0.0,0.0,0.0,0.0,0.0,0.0,0.0,0.0,0.0,0.0,0.0,0.0,0.0,0.0,0.0,0.0,0.0,0.0,0.0,0.0,0.0,0.0,0.0,0.0,0.0,0.0,0.0,0.0,0.0,0.0,0.0,0.0,0.0,0.0,0.0,0.0,0.0,0.0,0.0,0.0,0.0,0.0,0.0,0.0,0.0,0.0,0.0,0.0,0.0,0.0,0.0,0.0,0.0,0.0,0.0,0.0,0.0,0.0,0.0,0.0,0.0,0.0,0.0,0.0,0.0,0.0,0.0,0.0,0.0,0.0,0.0,0.0,0.0,0.0,0.0,0.0,0.0,0.0,0.0,0.0,0.0,0.0,0.0,0.0,0.0,0.0,0.0,0.0,0.0,0.0,0.0,0.0,0.0,0.0,0.0,0.0,0.0,0.0,0.0,0.0,0.0,0.0,0.0,0.0,0.0,0.0,0.0,0.0,0.0,0.0,0.0,0.0,0.0,0.0,0.0,0.0,0.0,0.0,0.0,0.0,0.0,0.0,0.0,0.0,0.0,0.0,0.0,0.0,0.0,0.0,0.0,0.0,0.0,0.0,0.0,0.0,0.0,0.0,0.0,0.0,0.0,0.0,0.0,0.0,0.0,0.0,0.0,0.0,0.0,0.0,0.0,0.0,0.0,0.0,0.0,0.0,0.0,0.0,0.0,0.0,0.0,0.0,0.0,0.0,0.0,0.0,0.0,0.0,0.0,0.0,0.0,0.0,0.0,0.0,0.0,0.0,0.0,0.0,0.0,0.0,0.0,0.0,0.0,0.0,0.0,0.0,0.0,0.0,0.0,0.0,0.0,0.0,0.0,0.0,0.0,0.0,0.0,0.0,0.0,0.0,0.0,0.0,0.0,0.0,0.0,0.0,0.0,0.0,0.0,0.0,0.0,0.0,0.0,0.0,0.0,0.0,0.0,0.0,0.0,0.0,0.0,0.0,0.0,0.0,0.0,0.0,0.0,0.0,0.0,0.0,0.0,0.0,0.0,0.0,0.0,0.0,0.0,0.0,0.0,0.0,0.0,0.0,0.0,0.0,0.0,0.0,0.0,0.0,0.0,0.0,0.0,0.0,0.0,0.0,0.0,0.0,0.0,0.0,0.0,0.0,0.0,0.0,0.0,0.0,0.0,0.0,0.0,0.0,0.0,0.0,0.0,0.0,0.0,0.0,0.0,0.0,0.0,0.0,0.0,0.0,0.0,0.0,0.0,0.0,0.0,0.0,0.0,0.0,0.0,0.0,0.0,0.0,0.0,0.0,0.0,0.0,0.0,0.0,0.0,0.0,0.0,0.0,0.0,0.0,0.0,0.0,0.0,0.0,0.0,0.0,0.0,0.0,0.0,0.0,0.0,0.0,0.0,0.0,0.0,0.0,0.0,0.0,0.0,0.0,0.0,0.0,0.0,0.0,0.0,0.0,0.0,0.0,0.0,0.0,0.0,0.0,0.0,0.0,0.0,0.0,0.0,0.0,0.0,0.0,0.0,0.0,0.0,0.0,0.0,0.0,0.0,0.0,0.0,0.0,0.0,0.0,0.0,0.0,0.0,0.0,0.0,0.0,0.0,0.0,0.0,0.0,0.0,0.0,0.0,0.0,0.0,0.0,0.0,0.0,0.0,0.0,0.0,0.0,0.0,0.0,0.0,0.0,0.0,0.0,0.0,0.0,0.0,0.0,0.0,0.0,0.0,0.0,0.0,0.0,0.0,0.0,0.0,0.0,0.0,0.0,0.0,0.0,0.0,0.0,0.0,0.0,0.0,0.0,0.0,0.0,0.0,0.0,0.0,0.0,0.0,0.0,0.0,0.0,0.0,0.0,0.0,0.0,0.0,0.0,0.0,0.0,0.0,0.0,0.0,0.0,0.0,0.0,0.0,0.0,0.0,0.0,0.0,0.0,0.0,0.0,0.0,0.0,0.0,0.0,0.0,0.0,0.0,0.0,0.0,0.0,0.0,0.0,0.0,0.0,0.0,0.0,0.0,0.0,0.0,0.0,0.0,0.0,0.0,0.0,0.0,0.0,0.0,0.0,0.0,0.0,0.0,0.0,0.0,0.0,0.0,0.0,0.0,0.0,0.0,0.0,0.0,0.0,0.0,0.0,0.0,0.0,0.0,0.0,0.0,0.0,0.0,0.0,0.0,0.0,0.0,0.0,0.0,0.0,0.0,0.0,0.0,0.0,0.0,0.0,0.0,0.0,0.0,0.0,0.0,0.0,0.0,0.0,0.0,0.0,0.0,0.0,0.0,0.0,0.0,0.0,0.0,0.0,1.5808,0.0,0.0,0.0,1.5808,0.0,0.0,0.0,0.0,0.0,0.0,0.0,0.0,0.0,0.0,0.0,0.0,0.0,0.0,0.0,0.0,0.0,0.0,0.0,0.0,0.0,0.0,0.0,0.0,0.0,0.0,0.0,0.0,0.0,0.0,0.0,0.0,0.0,0.0,0.0,0.0,0.0,0.0,0.0,0.0,0.0,0.0,0.0,0.0,0.0,0.0,0.0,0.0,0.0,0.0,0.0,0.0,0.0,0.0,0.0,0.0,0.0,0.0,0.0,0.0,0.0,0.0,0.0,0.0,0.0,0.0,0.0,0.0,0.0,0.0,0.0,0.0,0.0,0.0,0.0,0.0,0.0,0.0,0.0,0.0,0.0,0.0,0.0,0.0,0.0,0.0,0.0,0.0,0.0,0.0,0.0,0.0,0.0,0.0,0.0,0.0,0.0,0.0,0.0,0.0,0.0,0.0,0.0,0.0,0.0,0.0,0.0,0.0,0.0,0.0,1.5808,1.5808,1.5808,1.5808,1.5808,0.0,0.0,0.0,0.0,0.0,0.0,0.0,0.0,0.0,0.0,0.0,0.0,0.0,0.0,0.0,0.0,0.0,0.0,0.0,0.0,0.0,0.0,0.0,0.0,0.0,0.0,0.0,0.0,0.0,0.0,0.0,0.0,0.0,0.0,0.0,0.0,0.0,0.0,0.0,0.0,0.0,0.0,0.0,0.0,0.0,0.0,0.0,0.0,0.0,0.0,0.0,0.0,0.0,0.0,0.0,0.0,0.0,0.0,0.0,0.0,0.0,0.0,0.0,0.0,0.0,0.0,0.0,0.0,0.0,0.0,0.0,0.0,0.0,0.0,0.0,0.0,0.0,0.0,0.0,0.0,0.0,0.0,0.0,0.0,0.0,0.0,0.0,0.0,0.0,0.0,0.0,0.0,0.0,0.0,0.0,0.0,0.0,0.0,0.0,0.0,0.0,0.0,0.0,0.0,0.0,0.0,0.0,0.0,0.0,0.0,0.0,0.0,1.5808,1.5808,1.5808,0.0,0.0,0.0,0.0,0.0,0.0,0.0,0.0,0.0,0.0,0.0,0.0,0.0,0.0,0.0,0.0,0.0,0.0,0.0,0.0,0.0,0.0,0.0,0.0,0.0,0.0,0.0,0.0,0.0,0.0,0.0,0.0,0.0,0.0,0.0,0.0,0.0,0.0,0.0,0.0,0.0,0.0,0.0,0.0,0.0,0.0,0.0,0.0,0.0,0.0,0.0,0.0,0.0,0.0,0.0,0.0,0.0,0.0,0.0,0.0,0.0,0.0,0.0,0.0,0.0,0.0,0.0,0.0,0.0,0.0,0.0,0.0,0.0,0.0,0.0,0.0,0.0,0.0,0.0,0.0,0.0,0.0,0.0,0.0,0.0,0.0,0.0,0.0,0.0,0.0,0.0,0.0,0.0,0.0,0.0,0.0,0.0,0.0,0.0,0.0,0.0,0.0,0.0,0.0,0.0,0.0,0.0,0.0,0.0,0.0,1.5808,1.5808,1.5808,0.0,1.5808,0.0,0.0,0.0,0.0,0.0,0.0,0.0,0.0,0.0,0.0,0.0,0.0,0.0,0.0,0.0,0.0,0.0,0.0,0.0,0.0,0.0,0.0,0.0,0.0,0.0,0.0,0.0,0.0,0.0,0.0,0.0,0.0,0.0,0.0,0.0,0.0,0.0,0.0,0.0,0.0,0.0,0.0,0.0,0.0,0.0,0.0,0.0,0.0,0.0,0.0,0.0,0.0,0.0,0.0,0.0,0.0,0.0,0.0,0.0,0.0,0.0,0.0,0.0,0.0,0.0,0.0,0.0,0.0,0.0,0.0,0.0,0.0,0.0,0.0,0.0,0.0,0.0,0.0,0.0,0.0,0.0,0.0,0.0,0.0,0.0,0.0,0.0,0.0,0.0,0.0,0.0,0.0,0.0,0.0,0.0,0.0,0.0,0.0,0.0,0.0,0.0,0.0,0.0,0.0,0.0,0.0,0.0,0.0,0.0,0.0,1.5981,1.5808,1.5808,1.5808,0.0,0.0,0.0,0.0,0.0,0.0,0.0,0.0,0.0,0.0,0.0,0.0,0.0,0.0,0.0,0.0,0.0,0.0,0.0,0.0,0.0,0.0,0.0,0.0,0.0,0.0,0.0,0.0,0.0,0.0,0.0,0.0,0.0,0.0,0.0,0.0,0.0,0.0,0.0,0.0,0.0,0.0,0.0,0.0,0.0,0.0,0.0,0.0,0.0,0.0,0.0,0.0,0.0,0.0,0.0,0.0,0.0,0.0,0.0,0.0,0.0,0.0,0.0,0.0,0.0,0.0,0.0,0.0,0.0,0.0,0.0,0.0,0.0,0.0,0.0,0.0,0.0,0.0,0.0,0.0,0.0,0.0,0.0,0.0,0.0,0.0,0.0,0.0,0.0,0.0,0.0,0.0,0.0,0.0,0.0,0.0,0.0,0.0,0.0,0.0,0.0,0.0,0.0,0.0,0.0,0.0,0.0,0.0,0.0,0.0,1.6046,1.6046,1.5821,1.5808,1.5808,1.5808,0.0,0.0,0.0,0.0,0.0,0.0,0.0,0.0,0.0,0.0,0.0,0.0,0.0,0.0,0.0,0.0,0.0,0.0,0.0,0.0,0.0,0.0,0.0,0.0,0.0,0.0,0.0,0.0,0.0,0.0,0.0,0.0,0.0,0.0,0.0,0.0,0.0,0.0,0.0,0.0,0.0,0.0,0.0,0.0,0.0,0.0,0.0,0.0,0.0,0.0,0.0,0.0,0.0,0.0,0.0,0.0,0.0,0.0,0.0,0.0,0.0,0.0,0.0,0.0,0.0,0.0,0.0,0.0,0.0,0.0,0.0,0.0,0.0,0.0,0.0,0.0,0.0,0.0,0.0,0.0,0.0,0.0,0.0,0.0,0.0,0.0,0.0,0.0,0.0,0.0,0.0,0.0,0.0,0.0,0.0,0.0,0.0,0.0,0.0,0.0,0.0,0.0,0.0,0.0,0.0,0.0,0.0,0.0,1.5808,1.5821,1.5821,1.5808,1.5808,1.5808,0.0,0.0,0.0,0.0,0.0,0.0,0.0,0.0,0.0,0.0,0.0,0.0,0.0,0.0,0.0,0.0,0.0,0.0,0.0,0.0,0.0,0.0,0.0,0.0,0.0,0.0,0.0,0.0,0.0,0.0,0.0,0.0,0.0,0.0,0.0,0.0,0.0,0.0,0.0,0.0,0.0,0.0,0.0,0.0,0.0,0.0,0.0,0.0,0.0,0.0,0.0,0.0,0.0,0.0,0.0,0.0,0.0,0.0,0.0,0.0,0.0,0.0,0.0,0.0,0.0,0.0,0.0,0.0,0.0,0.0,0.0,0.0,0.0,0.0,0.0,0.0,0.0,0.0,0.0,0.0,0.0,0.0,0.0,0.0,0.0,0.0,0.0,0.0,0.0,0.0,0.0,0.0,0.0,0.0,0.0,0.0,0.0,0.0,0.0,0.0,0.0,0.0,0.0,0.0,0.0,0.0,0.0,0.0,0.0,1.5808,1.5808,1.5901,1.6099,1.5901,1.5808,0.0,0.0,0.0,0.0,0.0,0.0,0.0,0.0,0.0,0.0,0.0,0.0,0.0,0.0,0.0,0.0,0.0,0.0,0.0,0.0,0.0,0.0,0.0,0.0,0.0,0.0,0.0,0.0,0.0,0.0,0.0,0.0,0.0,0.0,0.0,0.0,0.0,0.0,0.0,0.0,0.0,0.0,0.0,0.0,0.0,0.0,0.0,0.0,0.0,0.0,0.0,0.0,0.0,0.0,0.0,0.0,0.0,0.0,0.0,0.0,0.0,0.0,0.0,0.0,0.0,0.0,0.0,0.0,0.0,0.0,0.0,0.0,0.0,0.0,0.0,0.0,0.0,0.0,0.0,0.0,0.0,0.0,0.0,0.0,0.0,0.0,0.0,0.0,0.0,0.0,0.0,0.0,0.0,0.0,0.0,0.0,0.0,0.0,0.0,0.0,0.0,0.0,0.0,0.0,0.0,0.0,0.0,0.0,0.0,1.5571,0.0,1.5806,1.604,1.5891,1.5808,0.0,0.0,0.0,0.0,0.0,0.0,0.0,0.0,0.0,0.0,0.0,0.0,0.0,0.0,0.0,0.0,0.0,0.0,0.0,0.0,0.0,0.0,0.0,0.0,0.0,0.0,0.0,0.0,0.0,0.0,0.0,0.0,0.0,0.0,0.0,0.0,0.0,0.0,0.0,0.0,0.0,0.0,0.0,0.0,0.0,0.0,0.0,0.0,0.0,0.0,0.0,0.0,0.0,0.0,0.0,0.0,0.0,0.0,0.0,0.0,0.0,0.0,0.0,0.0,0.0,0.0,0.0,0.0,0.0,0.0,0.0,0.0,0.0,0.0,0.0,0.0,0.0,0.0,0.0,0.0,0.0,0.0,0.0,0.0,0.0,0.0,0.0,0.0,0.0,0.0,0.0,0.0,0.0,0.0,0.0,0.0,0.0,0.0,0.0,0.0,0.0,0.0,0.0,0.0,0.0,0.0,0.0,0.0,1.5345,1.512,1.5345,1.5501,1.5512,1.5692,1.5798,0.0,0.0,0.0,0.0,0.0,0.0,0.0,0.0,0.0,0.0,0.0,0.0,0.0,0.0,0.0,0.0,0.0,0.0,0.0,0.0,0.0,0.0,0.0,0.0,0.0,0.0,0.0,0.0,0.0,0.0,0.0,0.0,0.0,0.0,0.0,0.0,0.0,0.0,0.0,0.0,0.0,0.0,0.0,0.0,0.0,0.0,0.0,0.0,0.0,0.0,0.0,0.0,0.0,0.0,0.0,0.0,0.0,0.0,0.0,0.0,0.0,0.0,0.0,0.0,0.0,0.0,0.0,0.0,0.0,0.0,0.0,0.0,0.0,0.0,0.0,0.0,0.0,0.0,0.0,0.0,0.0,0.0,0.0,0.0,0.0,0.0,0.0,0.0,0.0,0.0,0.0,0.0,0.0,0.0,0.0,0.0,0.0,0.0,0.0,0.0,0.0,0.0,0.0,0.0,0.0,0.0,0.0,0.0,0.0,1.4814,1.5082,1.5292,1.5444,1.5525,1.5679,0.0,0.0,0.0,0.0,0.0,0.0,0.0,0.0,0.0,0.0,0.0,0.0,0.0,0.0,0.0,0.0,0.0,0.0,0.0,0.0,0.0,0.0,0.0,0.0,0.0,0.0,0.0,0.0,0.0,0.0,0.0,0.0,0.0,0.0,0.0,0.0,0.0,0.0,0.0,0.0,0.0,0.0,0.0,0.0,0.0,0.0,0.0,0.0,0.0,0.0,0.0,0.0,0.0,0.0,0.0,0.0,0.0,0.0,0.0,0.0,0.0,0.0,0.0,0.0,0.0,0.0,0.0,0.0,0.0,0.0,0.0,0.0,0.0,0.0,0.0,0.0,0.0,0.0,0.0,0.0,0.0,0.0,0.0,0.0,0.0,0.0,0.0,0.0,0.0,0.0,0.0,0.0,0.0,0.0,0.0,0.0,0.0,0.0,0.0,0.0,0.0,0.0,0.0,0.0,0.0,0.0,0.0,0.0,0.0,1.3444,1.4193,1.4638,1.4798,1.5193,1.5507,1.5699,0.0,0.0,0.0,0.0,0.0,0.0,0.0,0.0,0.0,0.0,0.0,0.0,0.0,0.0,0.0,0.0,0.0,0.0,0.0,0.0,0.0,0.0,0.0,0.0,0.0,0.0,0.0,0.0,0.0,0.0,0.0,0.0,0.0,0.0,0.0,0.0,0.0,0.0,0.0,0.0,0.0,0.0,0.0,0.0,0.0,0.0,0.0,0.0,0.0,0.0,0.0,0.0,0.0,0.0,0.0,0.0,0.0,0.0,0.0,0.0,0.0,0.0,0.0,0.0,0.0,0.0,0.0,0.0,0.0,0.0,0.0,0.0,0.0,0.0,0.0,0.0,0.0,0.0,0.0,0.0,0.0,0.0,0.0,0.0,0.0,0.0,0.0,0.0,0.0,0.0,0.0,0.0,0.0,0.0,0.0,0.0,0.0,0.0,0.0,0.0,0.0,0.0,0.0,0.0,0.0,0.0,0.0,0.0,1.1335,1.2715,1.3556,1.3762,1.4665,1.5232,0.0,0.0,0.0,0.0,0.0,0.0,0.0,0.0,0.0,0.0,0.0,0.0,0.0,0.0,0.0,0.0,0.0,0.0,0.0,0.0,0.0,0.0,0.0,0.0,0.0,0.0,0.0,0.0,0.0,0.0,0.0,0.0,0.0,0.0,0.0,0.0,0.0,0.0,0.0,0.0,0.0,0.0,0.0,0.0,0.0,0.0,0.0,0.0,0.0,0.0,0.0,0.0,0.0,0.0,0.0,0.0,0.0,0.0,0.0,0.0,0.0,0.0,0.0,0.0,0.0,0.0,0.0,0.0,0.0,0.0,0.0,0.0,0.0,0.0,0.0,0.0,0.0,0.0,0.0,0.0,0.0,0.0,0.0,0.0,0.0,0.0,0.0,0.0,0.0,0.0,0.0,0.0,0.0,0.0,0.0,0.0,0.0,0.0,0.0,0.0,0.0,0.0,0.0,0.0,0.0,0.0,0.0,0.0,0.0,1.0607,1.1405,1.2228,1.3101,1.3491,1.4012,0.0,0.0,0.0,0.0,0.0,0.0,0.0,0.0,0.0,0.0,0.0,0.0,0.0,0.0,0.0,0.0,0.0,0.0,0.0,0.0,0.0,0.0,0.0,0.0,0.0,0.0,0.0,0.0,0.0,0.0,0.0,0.0,0.0,0.0,0.0,0.0,0.0,0.0,0.0,0.0,0.0,0.0,0.0,0.0,0.0,0.0,0.0,0.0,0.0,0.0,0.0,0.0,0.0,0.0,0.0,0.0,0.0,0.0,0.0,0.0,0.0,0.0,0.0,0.0,0.0,0.0,0.0,0.0,0.0,0.0,0.0,0.0,0.0,0.0,0.0,0.0,0.0,0.0,0.0,0.0,0.0,0.0,0.0,0.0,0.0,0.0,0.0,0.0,0.0,0.0,0.0,0.0,0.0,0.0,0.0,0.0,0.0,0.0,0.0,0.0,0.0,0.0,0.0,0.0,0.0,0.0,0.0,0.0,0.9906,1.0025,1.0527,1.1149,1.1891,1.2584,1.3285,0.0,0.0,0.0,0.0,0.0,0.0,0.0,0.0,0.0,0.0,0.0,0.0,0.0,0.0,0.0,0.0,0.0,0.0,0.0,0.0,0.0,0.0,0.0,0.0,0.0,0.0,0.0,0.0,0.0,0.0,0.0,0.0,0.0,0.0,0.0,0.0,0.0,0.0,0.0,0.0,0.0,0.0,0.0,0.0,0.0,0.0,0.0,0.0,0.0,0.0,0.0,0.0,0.0,0.0,0.0,0.0,0.0,0.0,0.0,0.0,0.0,0.0,0.0,0.0,0.0,0.0,0.0,0.0,0.0,0.0,0.0,0.0,0.0,0.0,0.0,0.0,0.0,0.0,0.0,0.0,0.0,0.0,0.0,0.0,0.0,0.0,0.0,0.0,0.0,0.0,0.0,0.0,0.0,0.0,0.0,0.0,0.0,0.0,0.0,0.0,0.0,0.0,0.0,0.0,0.0,0.0,0.0,0.0,0.9703,0.9629,1.008,1.0387,1.0571,1.1859,1.2719,0.0,0.0,0.0,0.0,0.0,0.0,0.0,0.0,0.0,0.0,0.0,0.0,0.0,0.0,0.0,0.0,0.0,0.0,0.0,0.0,0.0,0.0,0.0,0.0,0.0,0.0,0.0,0.0,0.0,0.0,0.0,0.0,0.0,0.0,0.0,0.0,0.0,0.0,0.0,0.0,0.0,0.0,0.0,0.0,0.0,0.0,0.0,0.0,0.0,0.0,0.0,0.0,0.0,0.0,0.0,0.0,0.0,0.0,0.0,0.0,0.0,0.0,0.0,0.0,0.0,0.0,0.0,0.0,0.0,0.0,0.0,0.0,0.0,0.0,0.0,0.0,0.0,0.0,0.0,0.0,0.0,0.0,0.0,0.0,0.0,0.0,0.0,0.0,0.0,0.0,0.0,0.0,0.0,0.0,0.0,0.0,0.0,0.0,0.0,0.0,0.0,0.0,0.0,0.0,0.0,0.0,0.0,0.0,0.9623,0.992,1.0276,1.0539,1.0735,1.0876,1.1216,0.0,0.0,0.0,0.0,0.0,0.0,0.0,0.0,0.0,0.0,0.0,0.0,0.0,0.0,0.0,0.0,0.0,0.0,0.0,0.0,0.0,0.0,0.0,0.0,0.0,0.0,0.0,0.0,0.0,0.0,0.0,0.0,0.0,0.0,0.0,0.0,0.0,0.0,0.0,0.0,0.0,0.0,0.0,0.0,0.0,0.0,0.0,0.0,2.3101,0.0,0.0,0.0,0.0,0.0,0.0,0.0,0.0,0.0,0.0,0.0,0.0,0.0,0.0,0.0,0.0,0.0,0.0,0.0,0.0,0.0,0.0,0.0,0.0,0.0,0.0,0.0,0.0,0.0,0.0,0.0,0.0,0.0,0.0,0.0,0.0,0.0,0.0,0.0,0.0,0.0,0.0,0.0,0.0,0.0,0.0,0.0,0.0,0.0,0.0,0.0,0.0,0.0,0.0,0.0,0.0,0.0,0.0,0.0,0.971,0.9984,1.038,1.0598,1.0562,1.0308,1.0361,0.0,0.0,0.0,0.0,0.0,0.0,0.0,0.0,0.0,0.0,0.0,0.0,0.0,0.0,0.0,0.0,0.0,0.0,0.0,0.0,0.0,0.0,0.0,0.0,0.0,0.0,0.0,0.0,0.0,0.0,0.0,0.0,0.0,0.0,0.0,0.0,0.0,0.0,0.0,0.0,0.0,0.0,0.0,0.0,0.0,0.0,0.0,0.0,0.0,0.0,0.0,0.0,0.0,0.0,0.0,0.0,0.0,0.0,0.0,0.0,0.0,0.0,0.0,0.0,0.0,0.0,0.0,0.0,0.0,0.0,0.0,0.0,0.0,0.0,0.0,0.0,0.0,0.0,0.0,0.0,0.0,0.0,0.0,0.0,0.0,0.0,0.0,0.0,0.0,0.0,0.0,0.0,0.0,0.0,0.0,0.0,0.0,0.0,0.0,0.0,0.0,0.0,0.0,0.0,0.0,0.0,0.0,0.9426,0.9873,1.0062,1.0468,1.0582,1.029,0.9978,0.9868,1.0004,0.0,0.0,0.0,0.0,0.0,0.0,0.0,0.0,0.0,0.0,0.0,0.0,0.0,0.0,0.0,0.0,0.0,0.0,0.0,0.0,0.0,0.0,0.0,0.0,0.0,0.0,0.0,0.0,0.0,0.0,0.0,0.0,0.0,0.0,0.0,0.0,0.0,0.0,2.2065,2.1378,0.0,0.0,0.0,0.0,0.0,0.0,0.0,0.0,2.3101,0.0,0.0,0.0,0.0,0.0,0.0,0.0,0.0,0.0,0.0,0.0,0.0,0.0,0.0,0.0,0.0,0.0,0.0,0.0,0.0,0.0,0.0,0.0,0.0,0.0,0.0,0.0,0.0,0.0,0.0,0.0,0.0,0.0,0.0,0.0,0.0,0.0,0.0,0.0,0.0,0.0,0.0,0.0,0.0,0.0,0.0,0.0,0.0,0.0,0.0,0.0,0.0,0.0,0.0,0.0,0.0,0.8872,0.9481,0.9927,1.0243,1.0555,1.0582,1.0322,0.9985,0.9603,0.9161,0.0,0.0,0.0,0.0,0.0,0.0,0.0,0.0,0.0,0.0,0.0,0.0,0.0,0.0,0.0,0.0,0.0,0.0,0.0,0.0,0.0,0.0,0.0,0.0,0.0,0.0,0.0,0.0,0.0,0.0,0.0,0.0,0.0,0.0,0.0,0.0,0.0,0.0,0.0,2.1082,2.0767,0.0,0.0,0.0,0.0,0.0,0.0,0.0,0.0,2.3101,0.0,0.0,0.0,0.0,0.0,0.0,0.0,0.0,0.0,0.0,0.0,0.0,0.0,0.0,0.0,0.0,0.0,0.0,0.0,0.0,0.0,0.0,0.0,0.0,0.0,0.0,0.0,0.0,0.0,0.0,0.0,0.0,0.0,0.0,0.0,0.0,0.0,0.0,0.0,0.0,0.0,0.0,0.0,0.0,0.0,0.0,0.0,0.0,0.0,0.0,0.0,0.0,0.0,0.0,0.0,0.8919,0.9494,0.9971,1.0276,1.0568,1.0582,1.0315,0.9985,0.9514,0.0,0.0,0.0,0.0,0.0,0.0,0.0,0.0,0.0,0.0,0.0,0.0,0.0,0.0,0.0,0.0,0.0,0.0,0.0,0.0,0.0,0.0,0.0,0.0,0.0,0.0,0.0,0.0,0.0,0.0,0.0,0.0,0.0,0.0,0.0,0.0,0.0,0.0,0.0,0.0,2.0692,2.0514,2.0326,0.0,0.0,0.0,0.0,0.0,0.0,2.2947,2.2969,0.0,0.0,0.0,0.0,0.0,0.0,0.0,0.0,0.0,0.0,0.0,0.0,0.0,0.0,0.0,0.0,0.0,0.0,0.0,0.0,0.0,0.0,0.0,0.0,0.0,0.0,0.0,0.0,0.0,0.0,0.0,0.0,0.0,0.0,0.0,0.0,0.0,0.0,0.0,0.0,0.0,0.0,0.0,0.0,0.0,0.0,0.0,0.0,0.0,0.0,0.0,0.0,0.0,0.0,0.0,0.896,0.9508,0.9971,1.0276,1.0568,1.0582,1.0322,0.9978,0.9514,0.0,0.0,0.0,0.0,0.0,0.0,0.0,0.0,0.0,0.0,0.0,0.0,0.0,0.0,0.0,0.0,0.0,0.0,0.0,0.0,0.0,0.0,0.0,0.0,0.0,0.0,0.0,0.0,0.0,0.0,0.0,0.0,0.0,0.0,0.0,0.0,0.0,0.0,0.0,0.0,0.0,2.0382,2.0056,2.079,0.0,0.0,0.0,0.0,2.2862,2.2906,0.0,0.0,0.0,0.0,0.0,0.0,0.0,0.0,0.0,0.0,0.0,0.0,0.0,0.0,0.0,0.0,0.0,0.0,0.0,0.0,0.0,0.0,0.0,0.0,0.0,0.0,0.0,0.0,0.0,0.0,0.0,0.0,0.0,0.0,0.0,0.0,0.0,0.0,0.0,0.0,0.0,0.0,0.0,0.0,0.0,0.0,0.0,0.0,0.0,0.0,0.0,0.0,0.0,0.0,0.0,0.0,0.9187,0.9585,0.9971,1.0308,1.0568,1.0582,1.0322,0.9978,0.9514,0.0,0.0,0.0,0.0,0.0,0.0,0.0,0.0,0.0,0.0,0.0,0.0,0.0,0.0,0.0,0.0,0.0,0.0,0.0,0.0,0.0,0.0,0.0,0.0,0.0,0.0,0.0,0.0,0.0,0.0,0.0,0.0,0.0,0.0,0.0,0.0,0.0,0.0,0.0,0.0,0.0,2.0426,2.0439,2.0683,2.1119,0.0,0.0,2.2809,2.3261,2.3329,0.0,0.0,0.0,0.0,0.0,0.0,0.0,0.0,0.0,0.0,0.0,0.0,0.0,0.0,0.0,0.0,0.0,0.0,0.0,0.0,0.0,0.0,0.0,0.0,0.0,0.0,0.0,0.0,0.0,0.0,0.0,0.0,0.0,0.0,0.0,0.0,0.0,0.0,0.0,0.0,0.0,0.0,0.0,0.0,0.0,0.0,0.0,0.0,0.0,0.0,0.0,0.0,0.0,0.0,0.0,0.894,0.9192,0.968,1.0059,1.0276,1.0568,1.0582,1.0322,0.9978,0.9514,0.0,0.0,0.0,0.0,0.0,0.0,0.0,0.0,0.0,0.0,0.0,0.0,0.0,0.0,0.0,0.0,0.0,0.0,0.0,0.0,0.0,0.0,0.0,0.0,0.0,0.0,0.0,0.0,0.0,0.0,0.0,0.0,0.0,0.0,0.0,0.0,0.0,0.0,0.0,0.0,0.0,0.0,2.0612,2.0819,0.0,0.0,0.0,2.2643,2.3453,0.0,0.0,0.0,0.0,0.0,0.0,0.0,0.0,0.0,0.0,0.0,0.0,0.0,0.0,0.0,0.0,0.0,0.0,0.0,0.0,0.0,0.0,0.0,0.0,0.0,0.0,0.0,0.0,0.0,0.0,0.0,0.0,0.0,0.0,0.0,0.0,0.0,0.0,0.0,0.0,0.0,0.0,0.0,0.0,0.0,0.0,0.0,0.0,0.0,0.0,0.0,0.0,0.0,0.0,0.0,0.0,0.0,0.9247,0.9731,1.0089,1.0283,1.0568,1.0582,1.0322,0.9985,0.0,0.0,0.0,0.0,0.0,0.0,0.0,0.0,0.0,0.0,0.0,0.0,0.0,0.0,0.0,0.0,0.0,0.0,0.0,0.0,0.0,0.0,0.0,0.0,0.0,0.0,0.0,1.5879,0.0,0.0,0.0,0.0,0.0,0.0,0.0,0.0,0.0,0.0,0.0,0.0,0.0,0.0,2.0954,2.0736,2.0818,2.1131,0.0,0.0,2.2572,2.3678,2.3843,2.3897,0.0,0.0,0.0,0.0,0.0,0.0,0.0,0.0,0.0,0.0,0.0,0.0,0.0,0.0,0.0,0.0,0.0,0.0,0.0,0.0,0.0,0.0,0.0,0.0,0.0,0.0,0.0,0.0,0.0,0.0,0.0,0.0,0.0,0.0,0.0,0.0,0.0,0.0,0.0,0.0,0.0,0.0,0.0,0.0,0.0,0.0,0.0,0.0,0.0,0.0,0.0,0.0,0.0,0.0,0.924,0.9374,0.9785,1.0096,1.0315,1.0568,1.0582,1.029,0.9985,0.9605,0.0,0.0,0.0,0.0,0.0,0.0,0.0,0.0,0.0,0.0,0.0,0.0,0.0,0.0,0.0,0.0,0.0,0.0,0.0,0.0,0.0,0.0,0.0,0.0,0.0,0.0,0.0,0.0,0.0,0.0,0.0,0.0,0.0,0.0,0.0,0.0,0.0,0.0,0.0,0.0,0.0,2.1024,2.0825,2.0593,2.0783,0.0,2.2173,2.2808,2.4063,2.4254,2.4288,2.4361,0.0,0.0,0.0,0.0,0.0,0.0,0.0,0.0,0.0,0.0,0.0,0.0,0.0,0.0,0.0,0.0,0.0,0.0,0.0,0.0,0.0,0.0,0.0,0.0,0.0,0.0,0.0,0.0,0.0,0.0,0.0,0.0,0.0,0.0,0.0,0.0,0.0,0.0,0.0,0.0,0.0,0.0,0.0,0.0,0.0,0.0,0.0,0.0,0.0,0.0,0.0,0.0,0.0,0.9349,0.9417,0.9917,1.0222,1.0322,1.0568,1.0582,1.029,1.0073,0.9707,0.0,0.0,0.0,0.0,0.0,0.0,0.0,0.0,0.0,0.0,0.0,0.0,0.0,0.0,0.0,0.0,0.0,0.0,0.0,0.0,0.0,0.0,0.0,0.0,0.0,0.0,0.0,0.0,1.6453,1.6625,1.6869,0.0,0.0,0.0,0.0,0.0,0.0,0.0,0.0,0.0,0.0,2.0414,2.0585,2.0388,0.0,0.0,2.2412,2.3083,2.4256,2.4549,2.4611,2.4383,2.4239,0.0,0.0,0.0,0.0,0.0,0.0,0.0,0.0,0.0,0.0,0.0,0.0,0.0,0.0,0.0,0.0,0.0,0.0,0.0,0.0,0.0,0.0,0.0,0.0,0.0,0.0,0.0,0.0,0.0,0.0,0.0,0.0,0.0,0.0,0.0,0.0,0.0,0.0,0.0,0.0,0.0,0.0,0.0,0.0,0.0,0.0,0.0,0.0,0.0,0.0,0.0,0.0,0.9422,0.951,1.005,1.0304,1.0376,1.0588,1.0602,1.0351,1.0123,0.9778,0.0,0.0,0.0,0.0,0.0,0.0,0.0,0.0,0.0,0.0,0.0,0.0,0.0,0.0,0.0,0.0,0.0,0.0,0.0,0.0,0.0,0.0,0.0,0.0,0.0,0.0,0.0,0.0,1.67,1.6775,1.6939,0.0,0.0,0.0,0.0,0.0,0.0,0.0,0.0,0.0,0.0,1.9801,2.0096,2.0126,2.0561,2.1848,2.2503,2.3213,2.4267,2.4498,2.4447,2.4127,0.0,0.0,0.0,0.0,0.0,0.0,0.0,0.0,0.0,0.0,0.0,0.0,0.0,0.0,0.0,0.0,0.0,0.0,0.0,0.0,0.0,0.0,0.0,0.0,0.0,0.0,0.0,1.027,0.0,0.0,1.0322,0.0,0.0,0.0,0.0,0.0,0.0,0.0,0.0,0.0,0.0,0.0,0.0,0.0,0.0,0.0,0.0,0.0,0.0,0.0,0.0,0.0,0.0,0.9523,0.9808,1.012,1.0376,1.048,1.0643,1.0643,1.0487,1.017,0.9849,0.9605,0.0,0.0,0.0,0.0,0.0,0.0,0.0,0.0,0.0,0.0,0.0,0.0,0.0,0.0,0.0,0.0,0.0,0.0,0.0,0.0,0.0,0.0,0.0,0.0,0.0,0.0,1.6702,1.6714,1.6727,0.0,0.0,0.0,0.0,0.0,0.0,0.0,0.0,0.0,1.9295,1.9258,1.9324,1.9338,1.9825,2.0559,2.1715,2.2374,2.3074,2.4128,2.3982,2.3667,0.0,0.0,0.0,0.0,0.0,0.0,0.0,0.0,0.0,0.0,0.0,0.0,0.0,0.0,0.0,0.0,0.0,0.0,0.0,0.0,0.0,0.0,0.0,0.0,0.0,0.0,0.0,1.0369,1.0419,0.0,0.0,0.0,0.0,0.0,0.0,0.0,0.0,0.0,0.0,0.0,1.0568,1.0575,0.0,0.0,0.0,0.0,0.0,0.0,0.0,0.0,0.0,0.0,0.0,0.0,0.9632,0.9798,1.0127,1.0351,1.0487,1.0643,1.0649,1.0493,1.0304,1.0019,0.9589,0.0,0.0,0.0,0.0,0.0,0.0,0.0,0.0,0.0,0.0,0.0,0.0,0.0,0.0,0.0,0.0,0.0,0.0,0.0,0.0,0.0,0.0,0.0,0.0,0.0,1.7288,0.0,0.0,0.0,0.0,0.0,0.0,0.0,0.0,0.0,0.0,0.0,1.9611,1.9498,1.9067,1.8904,1.9264,1.9495,2.0044,0.0,0.0,0.0,0.0,0.0,0.0,0.0,0.0,0.0,0.0,0.0,0.0,0.0,0.0,2.6027,2.6156,2.6406,2.6557,2.6557,0.0,0.0,0.0,0.0,0.0,0.0,0.0,0.0,0.0,0.0,0.0,0.0,0.0,0.0,1.034,1.0525,1.0525,0.0,0.0,0.0,0.0,0.0,0.0,0.0,0.0,1.0778,1.086,1.0955,1.1009,1.1002,0.0,1.0853,1.0689,0.0,0.0,0.0,0.0,0.0,0.0,0.0,0.0,0.9808,1.0015,1.0249,1.0426,1.0568,1.0637,1.0644,1.0568,1.0331,1.0008,0.9693,0.93,0.9137,0.0,0.0,0.0,0.0,0.0,0.0,0.0,0.0,0.0,0.0,0.0,0.0,0.0,0.0,0.0,0.0,0.0,0.0,0.0,0.0,0.0,0.0,0.0,1.7608,0.0,0.0,0.0,0.0,0.0,0.0,0.0,0.0,0.0,1.9378,1.9269,1.9191,1.9277,1.8837,1.8659,1.9093,0.0,0.0,0.0,0.0,0.0,0.0,0.0,2.2661,2.2415,2.2547,2.2814,2.3147,2.4123,2.4953,2.5214,0.0,0.0,2.6427,2.6664,2.6884,2.6986,2.7129,2.7246,2.7246,2.7454,2.765,0.0,0.0,0.0,0.0,0.0,0.0,0.0,0.0,0.9733,1.0168,0.0,1.0571,0.0,0.0,0.0,0.0,1.0921,1.0921,0.0,0.0,1.1335,1.1409,1.143,1.1572,1.1565,1.1423,1.1409,1.1246,1.0921,1.0527,0.0,0.0,0.0,0.0,0.0,0.0,1.0021,1.0473,1.0493,1.0575,1.0691,1.0698,1.0724,1.0697,1.0265,0.9967,0.9798,0.9551,0.9395,0.9388,0.9267,0.0,0.0,0.0,0.0,0.0,0.0,0.0,0.0,0.0,0.0,0.0,0.0,0.0,0.0,0.0,0.0,0.0,0.0,0.0,0.0,1.7622,0.0,0.0,0.0,0.0,0.0,0.0,0.0,0.0,0.0,0.0,1.8933,1.8919,1.8823,1.8586,0.0,0.0,0.0,0.0,1.9991,2.0593,2.0929,2.1306,2.1859,2.1635,2.1499,2.1773,0.0,0.0,2.2596,2.3407,2.4087,2.4342,2.5412,2.636,2.6575,2.6692,2.6821,2.7046,2.748,2.7741,2.78,2.8379,2.884,0.0265,0.0,0.0,0.0,0.0,0.6286,0.7576,0.8434,0.9075,0.9555,0.9977,1.0171,0.0,0.0,0.0,0.0,0.0,0.0,1.1341,1.1504,1.1755,1.1962,1.2033,1.2081,1.2074,1.2026,1.1809,1.1613,1.1387,1.1185,1.0812,1.0304,0.0,0.0,0.0,0.0,1.0317,1.0629,1.0623,1.0691,1.0813,1.0846,1.0745,1.0561,1.0432,1.0218,0.9961,0.9765,0.9646,0.9551,0.9424,0.0,0.0,0.0,0.0,0.0,0.0,0.0,0.0,0.0,0.0,0.0,0.0,0.0,0.0,0.0,0.0,0.0,0.0,0.0,1.7567,1.7755,1.7983,0.0,0.0,0.0,0.0,0.0,0.0,0.0,0.0,0.0,1.9248,1.9045,1.8963,0.0,0.0,1.8882,1.915,1.9372,1.9724,2.0271,2.0599,0.0,2.1029,2.0966,2.0851,2.0713,2.1072,2.1573,2.219,2.2982,2.3657,2.3998,2.5093,2.6085,2.661,2.7381,2.7922,2.8095,2.8595,2.9051,2.907,2.9266,2.9403,0.0122,0.0389,0.1556,0.2704,0.3902,0.536,0.6556,0.7489,0.7978,0.8574,0.9276,0.957,1.0075,1.0775,1.1189,0.0,0.0,0.0,1.1696,1.1676,1.199,1.2034,1.1959,1.2179,1.225,1.2229,1.2201,1.205,1.1884,1.1728,1.1443,1.1023,0.0,0.0,1.0541,1.0541,1.0656,1.088,1.0894,1.0941,1.0995,1.0941,1.0799,1.0595,1.0527,1.0385,1.0116,0.9961,0.9812,0.967,0.9551,0.9469,0.0,0.0,0.0,0.0,0.0,0.0,0.0,0.0,0.0,0.0,0.0,1.5459,1.5639,0.0,0.0,0.0,1.6715,1.7034,1.7513,1.7814,0.0,0.0,0.0,0.0,0.0,0.0,0.0,1.9105,1.9281,1.9401,1.9388,1.9212,1.9158,1.9374,1.9241,1.9149,1.932,0.0,1.952,1.9848,2.003,2.0214,2.0345,2.0345,2.0316,2.026,2.0559,2.106,2.166,2.2271,2.2849,2.35,2.4484,2.5445,2.6067,2.7314,2.837,2.8684,2.9088,2.9411,2.957,2.9715,2.9852,0.0,0.0,0.1218,0.2375,0.3469,0.4259,0.5322,0.6459,0.6498,0.7244,0.845,0.8813,0.9617,1.0727,1.1298,0.0,1.2019,1.2009,1.1897,1.1726,1.1891,1.1769,1.1378,1.198,1.2168,1.2034,1.2489,1.2532,1.2287,1.2182,1.2026,1.182,1.1293,1.0995,1.0955,1.0941,1.1002,1.1213,1.1213,1.1213,1.1213,1.1029,1.0846,1.0711,1.0588,1.0446,1.0304,1.013,0.9974,0.9819,0.9683,0.9639,0.9595,0.0,0.0,0.0,0.0,0.0,0.0,0.0,0.0,0.0,0.0,0.0,0.0,0.0,0.0,1.5929,1.6586,0.0,1.739,1.7753,0.0,0.0,0.0,1.8941,1.8996,1.9265,1.9468,1.9468,0.0,0.0,1.9468,1.9468,1.9455,1.9468,1.9428,1.9401,1.9401,1.9444,1.9428,1.9486,1.9484,1.9555,1.9889,1.9877,1.9923,2.0112,2.0241,2.0472,2.0974,2.136,2.1887,2.273,2.3638,2.4544,2.5218,2.6713,2.8064,2.8861,2.9172,2.9341,2.9634,3.0019,3.0254,0.0,0.0,0.0697,0.1314,0.1904,0.269,0.364,0.4548,0.4879,0.576,0.7052,0.7609,0.8864,1.0581,1.1059,1.1333,1.1407,1.1267,1.1156,1.1113,1.11,1.104,1.0998,1.1444,1.1641,1.1552,1.2225,1.2395,1.2168,1.2434,1.244,1.2182,1.204,1.1742,1.1301,1.1172,1.122,1.137,1.137,1.137,1.137,1.1049,1.0894,1.086,1.0744,1.0595,1.0446,1.0405,1.0231,0.995,0.9896,0.9859,0.9774,0.9632,0.0,0.0,0.0,0.0,0.0,0.0,0.0,0.0,0.0,1.2796,1.3288,0.0,1.3901,0.0,1.5519,1.6247,1.676,1.7297,0.0,0.0,1.9152,1.9401,1.9834,1.9957,1.9997,2.0027,1.9997,1.9997,1.9997,1.9997,1.9997,1.9983,1.9639,1.9401,1.9401,1.9589,1.9693,1.972,1.9867,2.0057,2.0047,1.9916,1.9773,1.9631,1.9793,1.9953,2.0111,2.0587,2.1161,2.1873,2.2771,2.3785,2.4959,2.6133,2.7287,2.8405,2.9415,3.0113,3.02,3.0471,3.0723,0.0,0.0,0.0273,0.0536,0.079,0.1593,0.2391,0.3073,0.3287,0.4165,0.553,0.7047,0.8543,0.9939,1.0615,1.0844,1.0705,1.0593,1.0355,1.0044,0.9969,0.984,0.9673,1.0352,1.0614,1.0593,1.1563,1.2064,1.2062,1.2434,1.2615,1.2589,1.2454,1.2216,1.1891,1.171,1.1642,1.1723,1.1619,1.1558,1.1491,1.1232,1.1049,1.0921,1.0833,1.0684,1.05,1.0493,1.0385,1.0168,1.0123,1.0082,1.0032,0.9951,0.991,0.0,0.0,0.0,0.0,0.0,0.0,0.0,0.0,0.0,0.0,0.0,1.2887,1.3703,1.4638,1.5499,1.6361,1.6978,1.7809,1.8927,1.9043,1.9288,1.9911,1.9998,2.0045,2.0167,2.021,2.021,2.021,2.021,2.021,2.0197,1.993,1.976,1.976,1.9907,1.9987,2.0,2.0104,2.021,2.021,2.0064,1.9947,1.9786,1.9786,1.9838,1.9985,2.0305,2.074,2.1394,2.2245,2.3187,2.4246,2.5382,2.6493,2.7461,2.854,2.9479,3.0069,3.047,3.0674,0.0,0.0,0.0,0.0,0.0,0.0804,0.1404,0.1841,0.1841,0.2669,0.4185,0.6544,0.809,0.8937,0.9729,0.9988,0.9781,0.9668,0.9212,0.8562,0.8488,0.8323,0.8019,0.8883,0.9355,0.951,1.0752,1.1576,1.1992,1.2354,1.2752,1.301,1.2732,1.2576,1.2549,1.2343,1.2179,1.2098,1.1925,1.1753,1.1611,1.1497,1.1287,1.0988,1.0934,1.0792,1.0561,1.0534,1.0453,1.0349,1.031,1.0329,1.0315,1.0308,1.0308,0.0,1.0308,0.0,0.0,0.0,0.0,0.0,0.0,0.0,0.0,1.1792,1.234,1.2945,1.3798,1.4777,1.5928,1.6569,1.7364,1.8404,1.86,1.892,1.9645,1.9798,1.9951,2.0286,2.0317,2.0317,2.033,2.0317,2.0317,2.0357,2.033,2.0317,2.0304,2.029,2.0264,2.0264,2.029,2.037,2.0304,2.0264,2.0237,2.0184,2.0013,1.9972,2.021,2.0255,2.049,2.1108,2.1851,2.2639,2.3399,2.4515,2.5531,2.6358,2.7237,2.8199,2.942,3.001,3.0285,0.0,0.0,0.0,0.0,0.0,0.0187,0.0507,0.0961,0.0961,0.1949,0.3654,0.4802,0.6056,0.7292,0.7456,0.7679,0.796,0.7287,0.6933,0.6774,0.6479,0.6507,0.6859,0.7392,0.7979,0.8663,1.0039,1.1096,1.1832,1.2511,1.3006,1.3315,1.3132,1.303,1.2914,0.0,0.0,0.0,1.207,1.1945,1.1753,1.1617,1.1491,1.1307,1.1036,0.0,1.0826,1.0744,1.0576,1.0466,1.0453,0.0,0.0,0.0,0.0,0.0,0.0,0.0,0.0,0.0,0.0,0.0,1.055,1.0742,1.0946,1.1438,1.1979,1.2418,1.3037,1.3845,1.486,1.5359,1.6179,1.7628,1.8089,1.8736,1.9859,2.0244,2.054,2.0886,2.0935,2.0935,2.0922,2.0917,2.0935,2.0909,2.0904,2.0949,2.0922,2.0722,2.0601,2.0632,2.0762,2.0828,2.0659,2.0588,2.0508,2.0264,2.017,2.0147,2.0238,2.0238,2.0466,2.1069,2.1371,2.1864,2.2959,2.3621,2.4379,2.5547,2.6128,2.7008,2.8767,2.9372,2.9726,0.0,0.0,0.0,0.0,0.0,0.0,0.0144,0.0381,0.0374,0.115,0.2505,0.3668,0.4713,0.5601,0.5867,0.5936,0.5907,0.5277,0.4846,0.4626,0.4653,0.4798,0.5112,0.6007,0.6793,0.7515,0.9061,1.0364,1.1519,1.2301,1.301,1.3572,1.3471,1.3363,1.3288,1.318,1.2921,1.2547,1.2397,1.2244,1.2155,1.1945,1.1735,1.1511,1.1327,0.0,0.0,0.0,0.0,0.0,0.0,0.0,0.0,0.0,0.0,1.05,1.0493,1.0493,1.05,1.05,1.05,1.05,1.0568,1.0606,1.0656,1.0931,1.1244,1.1635,1.2107,1.2842,1.3929,1.4514,1.5319,1.6647,1.7277,1.8056,1.9164,1.9794,2.0316,2.0761,2.0982,2.1109,2.1109,2.1109,2.1109,2.1109,2.1109,2.1109,2.1096,2.0989,2.0895,2.0895,2.1002,2.1056,2.0935,2.0895,2.0855,2.0664,2.0548,2.0454,2.0454,2.0454,2.0569,2.0902,2.1179,2.1669,2.2219,2.2887,2.3604,2.4409,2.5026,2.5792,2.728,2.8301,2.9076,0.0,0.0,0.0,0.0,0.0,0.0,0.0,0.0,0.0,0.0,0.0,0.2552,0.3411,0.3927,0.4292,0.4268,0.3911,0.3417,0.3008,0.2647,0.3095,0.3411,0.3544,0.4845,0.5828,0.6541,0.8216,0.9765,1.1209,1.2131,1.2976,1.3779,1.3693,1.3626,1.3605,1.3417,1.3234,1.3146,1.2759,1.2569,1.2535,1.2315,1.2013,1.1705,1.1651,1.1525,1.1288,1.107,1.0982,1.0955,1.0833,1.0799,1.0799,1.0799,1.0785,1.0725,1.0732,1.0725,1.0725,1.0725,1.0772,1.0792,1.0799,1.0724,1.0548,1.0534,1.0658,1.1023,1.1348,1.1986,1.3103,1.3744,1.4539,1.5606,1.6353,1.726,1.8355,1.9092,1.9807,2.0475,2.0856,2.1046,2.1077,2.1109,2.1109,2.1109,2.1109,2.1109,2.1109,2.1096,2.1082,2.1082,2.1096,2.1096,2.1096,2.1096,2.1109,2.1056,2.0882,2.0762,2.0779,2.0779,2.0748,2.0806,2.12,2.1479,2.1632,2.2261,2.295,2.3355,2.3914,2.4595,2.5578,2.6931,2.8092,0.0,0.0,0.0,0.0,0.0,0.0,0.0,0.0,0.0,0.0287,0.0807,0.1036,0.1632,0.2447,0.2078,0.2113,0.2455,0.1955,0.1675,0.1616,0.2154,0.2603,0.305,0.4037,0.5201,0.6541,0.7959,0.9602,1.1284,1.2272,1.3165,1.3934,1.3842,1.3768,1.3768,1.372,1.3693,1.3666,1.3173,1.2834,1.2698,1.2528,1.2366,1.2196,1.1938,1.1692,1.1529,1.1409,1.1267,1.1172,1.1145,1.1138,1.1132,1.1132,1.1077,1.0894,1.088,1.088,1.088,1.088,1.0934,1.1118,1.1138,1.0982,1.0717,1.069,1.0816,1.1113,1.1259,1.1582,1.2371,1.2815,1.3515,1.4515,1.5551,1.6656,1.7906,1.8711,1.9525,2.0463,2.0634,2.0819,2.1099,2.1149,2.1162,2.1122,2.1162,2.1122,2.1136,2.1109,2.1109,2.1109,2.1109,2.1109,2.1109,2.1109,2.1109,2.1109,2.1069,2.1015,2.1002,2.1015,2.1015,2.1029,2.1132,2.1299,2.152,2.1677,2.2118,2.2637,2.3074,2.3604,2.4317,2.5348,2.6493,0.0,0.0,0.0,0.0,0.0,0.0,0.0,0.0,0.0,0.0098,0.0339,0.0623,0.0997,0.1364,0.117,0.1161,0.1333,0.0874,0.0642,0.0731,0.1461,0.1917,0.2283,0.3651,0.5017,0.6243,0.7925,0.9608,1.1227,1.238,1.3249,1.3901,1.4025,1.4048,1.3973,1.3966,1.3926,1.3788,1.3417,1.3166,1.3091,1.2868,1.2678,1.2535,1.2311,1.2128,1.1986,1.1755,1.1558,1.1416,1.137,1.1281,1.1206,1.12,1.1166,1.107,1.1063,1.1063,1.1063,1.1063,1.109,1.1193,1.12,1.1138,1.1002,1.0962,1.1029,1.1199,1.1199,1.1402,1.1936,1.2484,1.3057,1.3721,1.4928,1.6128,1.7157,1.8247,1.931,2.0323,2.0812,2.1156,2.1512,2.159,2.159,2.1577,2.147,2.1349,2.1349,2.1216,2.1109,2.1109,2.1109,2.1109,2.1109,2.1109,2.1109,2.1109,2.1109,2.1109,2.1109,2.1109,2.1109,2.1109,2.1109,2.1141,2.133,2.1488,2.174,2.1961,2.2324,2.2793,2.3448,2.4348,2.5639,0.0,0.0,0.0,0.0,0.0,0.0,0.0,0.0,0.0,0.0,0.0,0.0439,0.0579,0.0526,0.057,0.0611,0.0512,0.0186,0.0,0.0,0.1019,0.1482,0.1714,0.3471,0.4905,0.6054,0.7948,0.9651,1.111,1.2488,1.3436,1.3958,1.4242,1.4285,1.4177,1.4143,1.4061,1.3889,1.3688,1.3539,1.3492,1.3214,1.3003,1.2881,1.2705,1.2522,1.2338,1.2108,1.1898,1.1728,1.1606,1.1526,1.141,1.137,1.1301,1.1302,1.1233,1.1247,1.1254,1.1281,1.1302,1.1302,1.1302,1.1302,1.1302,1.1302,1.1268,1.1213,1.1186,1.1324,1.1593,1.215,1.2716,1.3196,1.4429,1.5628,1.6563,1.7779,1.9067,2.0202,2.0933,2.145,2.1859,2.2024,2.1964,2.1911,2.1823,2.1689,2.1662,2.1475,2.1309,2.1203,2.1162,2.1109,2.1109,2.1109,2.1109,2.1109,2.1109,2.1109,2.1109,2.1109,2.1109,2.1109,2.1109,2.1109,2.1109,2.1299,2.1457,2.1551,2.1803,2.2198,2.2887,2.3635,2.4872,0.0,0.0,0.0,0.0,0.0,0.0,0.0,0.0,0.0,0.0,0.0,0.0,0.0,0.0048,0.0,0.0,0.0,0.0,0.0,0.0,0.1019,0.1482,0.167,0.3476,0.4951,0.6062,0.7962,0.9677,1.11,1.2581,1.3756,1.4517,1.4525,1.4489,1.4455,1.4346,1.4272,1.4258,1.4095,1.3939,1.3747,1.3512,1.3349,1.3342,1.3064,1.2819,1.2515,1.2454,1.2311,1.2091,1.2043,1.203,1.1996,1.1843,1.1671,1.1586,1.145,1.1369,1.1382,1.1497,1.1579,1.1543,1.1579,1.1579,1.1543,1.1579,1.1457,1.1302,1.1213,1.1255,1.1269,1.1628,1.216,1.2865,1.3916,1.5035,1.6424,1.7577,1.8821,2.0248,2.0797,2.1231,2.1925,2.2091,2.2031,2.2084,2.2037,2.1984,2.197,2.1903,2.1737,2.1555,2.1341,2.1149,2.1122,2.1109,2.1109,2.1109,2.1109,2.1109,2.1109,2.1109,2.1109,2.1109,2.1109,2.1109,2.1109,2.1141,2.1172,2.1267,2.1488,2.1866,2.248,2.2981,2.4007,0.0,0.0,0.0,0.0,0.0,0.0,0.0,0.0,0.0,0.0,0.0,0.0,0.0,0.0,0.0,0.0,0.0,0.0,0.0,0.0,0.0767,0.1247,0.1726,0.3307,0.4791,0.6221,0.8138,0.9724,1.102,1.2592,1.3864,1.461,1.4626,1.4599,1.4638,1.459,1.4563,1.4512,1.4407,1.4299,1.416,1.3858,1.3578,1.3526,1.3329,1.3125,1.2955,1.286,1.2717,1.2474,1.2372,1.2284,1.2203,1.2054,1.1945,1.1921,1.1823,1.1826,1.1826,1.185,1.1877,1.1877,1.1884,1.1884,1.1884,1.1877,1.186,1.1744,1.1538,1.143,1.1472,1.1748,1.2206,1.2806,1.3782,1.4972,1.6237,1.7545,1.8912,2.034,2.1089,2.17,2.233,2.2532,2.2532,2.2505,2.2365,2.2245,2.2231,2.2098,2.1951,2.183,2.1697,2.147,2.1216,2.1109,2.1109,2.1109,2.1109,2.1109,2.1109,2.1109,2.1109,2.1109,2.1109,2.1109,2.1109,2.1109,2.1109,2.1172,2.1362,2.1709,2.1947,2.2261,2.3074,0.0,0.0,0.0,0.0,0.0,0.0,0.0,0.0,0.0,0.0,0.0,0.0,0.0,0.0,0.0,0.0,0.0,0.0,0.0,0.0,0.054,0.108,0.1718,0.319,0.471,0.6419,0.8316,1.0078,1.1658,1.2944,1.4092,1.4758,1.4836,1.4841,1.4755,1.4721,1.4694,1.4681,1.4579,1.4525,1.4478,1.4167,1.3896,1.3756,1.36,1.3431,1.3282,1.318,1.299,1.28,1.2684,1.2583,1.2481,1.237,1.2247,1.2173,1.2166,1.2139,1.2104,1.2098,1.2098,1.2098,1.2098,1.2098,1.2098,1.2098,1.2098,1.207,1.1864,1.1742,1.1778,1.1996,1.2395,1.2887,1.387,1.495,1.6277,1.7684,1.9206,2.0625,2.1583,2.2276,2.2834,2.3014,2.2987,2.2853,2.2659,2.2539,2.2525,2.2365,2.2218,2.2124,2.2098,2.1897,2.1456,2.1296,2.1256,2.1203,2.1203,2.1109,2.1109,2.1109,2.1109,2.1109,2.1109,2.1109,2.1109,2.1109,2.1109,2.1141,2.1299,2.1488,2.152,2.1772,2.2104,0.0,0.0,0.0,0.0,0.0,0.0,0.0,0.0,0.0,0.0,0.0,0.0,0.0,0.0,0.0,0.0,0.0,0.0,0.0,0.0,0.0541,0.108,0.1718,0.319,0.4761,0.6393,0.8385,1.0905,1.3673,1.4,1.4517,1.5282,1.5228,1.5099,1.4984,1.4816,1.4708,1.4741,1.4714,1.4687,1.4667,1.4557,1.4333,1.4082,1.3899,1.3639,1.3437,1.339,1.3254,1.3009,1.2996,1.2975,1.2955,1.2773,1.2562,1.2338,1.2291,1.2268,1.2159,1.2152,1.2145,1.2125,1.2152,1.2118,1.2145,1.2139,1.2145,1.2111,1.2111,1.2084,1.2077,1.2074,1.2407,1.3082,1.3911,1.5075,1.659,1.8072,1.9659,2.1078,2.2069,2.2763,2.3222,2.3278,2.3193,2.3041,2.2907,2.288,2.2867,2.2853,2.2693,2.2472,2.2378,2.2298,2.2024,2.1729,2.1582,2.1515,2.1349,2.1149,2.1109,2.1109,2.1109,2.1109,2.1109,2.1109,2.1109,2.1109,2.1109,2.1109,2.1109,2.1204,2.1267,2.1457,2.1727,0.0,0.0,0.0,0.0,0.0,0.0,0.0,0.0,0.0,0.0,0.0,0.0,0.0,0.0,0.0,0.0,0.0,0.0,0.0,0.0,0.055,0.11,0.175,0.3198,0.4796,0.6534,0.8529,1.1079,1.3843,1.4418,1.4932,1.5416,1.5458,1.5445,1.5398,1.5296,1.5222,1.5174,1.5079,1.4977,1.4882,1.474,1.4552,1.4489,1.4163,1.3892,1.3688,1.3682,1.3627,1.3526,1.3349,1.3247,1.322,1.301,1.2834,1.2778,1.2758,1.273,1.2683,1.2676,1.2628,1.2501,1.2488,1.2433,1.2366,1.2338,1.2345,1.2345,1.2345,1.2345,1.2305,1.2213,1.2396,1.3141,1.3958,1.5032,1.66,1.8175,1.9704,2.1186,2.2504,2.343,2.3554,2.3607,2.3567,2.3482,2.3287,2.318,2.3126,2.3041,2.288,2.2773,2.2733,2.2706,2.2626,2.2144,2.185,2.1783,2.1662,2.1502,2.1422,2.1243,2.1203,2.1176,2.1149,2.1136,2.1136,2.1109,2.1109,2.1109,2.1109,2.1109,2.1109,2.1267,2.1425,0.0,0.0,0.0,0.0,0.0,0.0,0.0,0.0,0.0,0.0,0.0,0.0,0.0,0.0,0.0,0.0,0.0,0.0,0.0,0.0,0.0561,0.1223,0.2089,0.3565,0.5293,0.7268,0.9601,1.2033,1.4144,1.484,1.5335,1.5735,1.5737,1.5683,1.56,1.5587,1.5533,1.5472,1.5384,1.5262,1.5113,1.4964,1.4855,1.4728,1.4468,1.419,1.3957,1.3939,1.3842,1.3781,1.3605,1.3526,1.3464,1.3288,1.3132,1.3084,1.3064,1.3043,1.3009,1.3003,1.2955,1.282,1.28,1.2752,1.2657,1.2651,1.2651,1.269,1.269,1.2651,1.2617,1.2513,1.2654,1.3333,1.4085,1.523,1.6796,1.84,2.0069,2.1837,2.3243,2.3927,2.3928,2.3915,2.3861,2.383,2.3581,2.3487,2.3434,2.3313,2.3134,2.3033,2.3054,2.2953,2.2867,2.2519,2.2238,2.2144,2.1917,2.1783,2.1676,2.147,2.1336,2.1269,2.1229,2.1189,2.1149,2.1122,2.1109,2.1109,2.1109,2.1109,2.1109,2.1109,2.1235,0.0,0.0,0.0,0.0,0.0,0.0,0.0,0.0,0.0,0.0,0.0,0.0,0.0,0.0,0.0,0.0,0.0,0.0,0.0,0.0155,0.0725,0.1606,0.264,0.4292,0.6304,0.8572,1.1676,1.3729,1.4863,1.5354,1.5747,1.6026,1.5954,1.5859,1.5627,1.5668,1.5627,1.56,1.558,1.5547,1.5418,1.5262,1.5126,1.4991,1.4814,1.4552,1.4326,1.417,1.4034,1.3862,1.3851,1.3727,1.3605,1.3558,1.3492,1.3302,1.3234,1.3159,1.3057,1.3043,1.305,1.3003,1.3003,1.2989,1.2948,1.2948,1.2955,1.2941,1.2955,1.2969,1.2962,1.2928,1.3121,1.368,1.4437,1.5616,1.717,1.8868,2.0725,2.2819,2.399,2.4416,2.4289,2.4209,2.4128,2.3941,2.3857,2.3817,2.379,2.3723,2.3629,2.342,2.3313,2.3247,2.3094,2.288,2.2693,2.2472,2.2191,2.1991,2.1984,2.183,2.167,2.1622,2.1475,2.1422,2.1256,2.1216,2.1109,2.1109,2.1109,2.1109,2.1109,2.1109,2.1109,0.0,0.0,0.0,0.0,0.0,0.0,0.0,0.0,0.0,0.0,0.0,0.0,0.0,0.0,0.0,0.0,0.0,0.0,0.021,0.0728,0.1558,0.2596,0.3788,0.5392,0.7718,1.0505,1.2775,1.4424,1.5347,1.5915,1.627,1.6331,1.6334,1.6293,1.6218,1.6151,1.6062,1.594,1.5839,1.5716,1.5581,1.5472,1.5425,1.5276,1.5126,1.495,1.4767,1.4516,1.436,1.4292,1.4109,1.3933,1.3768,1.3734,1.3687,1.3599,1.3539,1.3478,1.3417,1.3315,1.322,1.3139,1.3152,1.3091,1.3016,1.3009,1.3009,1.3009,1.3003,1.3003,1.3003,1.3003,1.3279,1.3821,1.4649,1.5756,1.7531,1.9806,2.1836,2.3141,2.4119,2.4509,2.4492,2.4452,2.4399,2.4306,2.4182,2.4075,2.4048,2.3964,2.3803,2.3634,2.3629,2.3527,2.3335,2.3188,2.3054,2.2779,2.2485,2.2298,2.2258,2.2224,2.2077,2.189,2.1743,2.1569,2.1435,2.1296,2.1203,2.1109,2.1109,2.1109,2.1109,2.1109,2.1109,0.0,0.0,0.0,0.0,0.0,0.0,0.0,0.0,0.0,0.0,0.0,0.0,0.0,0.0,0.0,0.0,0.0,0.0213,0.0636,0.126,0.2096,0.3249,0.4816,0.7481,0.9828,1.2231,1.4048,1.5194,1.5808,1.633,1.6554,1.6554,1.6551,1.651,1.6517,1.6435,1.6334,1.6232,1.6096,1.5954,1.5825,1.5744,1.5649,1.5506,1.5404,1.5282,1.5133,1.4889,1.4706,1.4584,1.436,1.415,1.3953,1.3926,1.3856,1.3788,1.372,1.366,1.3653,1.3614,1.3526,1.3437,1.3376,1.3315,1.322,1.3173,1.3166,1.3166,1.3173,1.3125,1.3166,1.3125,1.3461,1.4119,1.4861,1.6264,1.8308,2.0776,2.2516,2.3441,2.4184,2.4502,2.4599,2.4599,2.4599,2.4559,2.4439,2.4319,2.4329,2.4222,2.4088,2.3981,2.3928,2.3781,2.3554,2.3434,2.3354,2.3086,2.2779,2.2659,2.2612,2.2546,2.2425,2.2151,2.1997,2.1729,2.1582,2.1462,2.1323,2.1229,2.1136,2.1109,2.1109,2.1109,2.1109,0.0,0.0,0.0,0.0,0.0,0.0,0.0,0.0,0.0,0.0,0.0,0.0,0.0,0.0,0.0,0.0,0.0,0.0586,0.1172,0.1809,0.2659,0.3878,0.6049,0.9643,1.2127,1.3617,1.52,1.6,1.6236,1.6555,1.6709,1.6702,1.6646,1.6558,1.6585,1.6493,1.653,1.6497,1.6381,1.6232,1.6103,1.6037,1.5832,1.5689,1.5621,1.5581,1.5404,1.5235,1.5025,1.4721,1.4577,1.438,1.4163,1.4139,1.4048,1.3876,1.3829,1.3815,1.3808,1.3768,1.3747,1.372,1.3632,1.3599,1.3545,1.3464,1.3383,1.339,1.337,1.337,1.337,1.3363,1.3754,1.4504,1.5385,1.7165,2.0014,2.1678,2.2796,2.3644,2.4253,2.4639,2.4679,2.4666,2.4639,2.4586,2.4572,2.4546,2.4532,2.4452,2.4426,2.4332,2.4235,2.4062,2.3848,2.3781,2.3674,2.3394,2.3086,2.2913,2.2827,2.2746,2.2719,2.2479,2.2205,2.1957,2.1756,2.1662,2.1489,2.1309,2.1216,2.1136,2.1109,2.1109,2.1109,0.0,0.0,0.0,0.0,0.0,0.0,0.0,0.0,0.0,0.0,0.0,0.0,0.0,0.0,0.0,0.0,0.0,0.064,0.1492,0.2505,0.3834,0.5909,0.8299,1.1112,1.3127,1.4288,1.5512,1.6288,1.6709,1.6833,1.6917,1.6917,1.6863,1.6849,1.6849,1.6689,1.6642,1.6615,1.6493,1.6456,1.6408,1.6354,1.6218,1.5988,1.5967,1.5832,1.5553,1.5432,1.5153,1.4735,1.466,1.4597,1.4414,1.4387,1.4319,1.4183,1.4075,1.4007,1.3994,1.3869,1.3808,1.3795,1.3774,1.3741,1.3741,1.3612,1.3538,1.3553,1.3478,1.341,1.3403,1.341,1.3955,1.5123,1.6271,1.802,2.0056,2.1629,2.2896,2.3959,2.4544,2.4818,2.4935,2.4957,2.489,2.4706,2.4653,2.4653,2.4719,2.4639,2.4599,2.4559,2.4452,2.4342,2.4209,2.4128,2.3981,2.3701,2.3407,2.31,2.2987,2.2853,2.284,2.276,2.2485,2.2218,2.2064,2.1897,2.167,2.1502,2.1283,2.1203,2.1136,2.1109,2.1109,0.0,0.0,0.0,0.0,0.0,0.0,0.0,0.0,0.0,0.0,0.0,0.0,0.0,0.0,0.0,0.0,0.0431,0.1024,0.1886,0.3286,0.5547,0.7881,1.0183,1.2387,1.3994,1.4892,1.6003,1.6697,1.702,1.7066,1.7039,1.6985,1.6978,1.6978,1.6965,1.6904,1.6842,1.6815,1.6648,1.6567,1.6567,1.6551,1.6449,1.6293,1.6259,1.6123,1.5845,1.5622,1.5323,1.4958,1.4869,1.4767,1.4586,1.4604,1.4536,1.4401,1.4299,1.4238,1.4163,1.4075,1.3998,1.3977,1.3987,1.3939,1.3912,1.3761,1.3673,1.3666,1.3627,1.3593,1.3615,1.37,1.4333,1.5376,1.6822,1.8415,2.0091,2.1469,2.2783,2.3837,2.4572,2.5006,2.5239,2.5264,2.517,2.5026,2.5064,2.505,2.5037,2.4866,2.4786,2.4786,2.4666,2.4492,2.4449,2.4396,2.4209,2.3955,2.3701,2.3394,2.3148,2.2974,2.2893,2.2853,2.2686,2.2539,2.2325,2.2151,2.1991,2.1764,2.1483,2.1355,2.1296,2.1176,2.1162,0.0,0.0,0.0,0.0,0.0,0.0,0.0,0.0,0.0,0.0,0.0,0.0,0.0,0.0,0.0,0.0383,0.0929,0.1691,0.2947,0.4798,0.7351,0.9906,1.1401,1.3306,1.4733,1.5657,1.6736,1.7109,1.7216,1.7216,1.7154,1.7087,1.7039,1.7012,1.7019,1.6985,1.6978,1.6944,1.6842,1.6723,1.6702,1.6628,1.6592,1.653,1.6476,1.6347,1.609,1.5839,1.5512,1.5269,1.5099,1.4957,1.4775,1.4741,1.4685,1.457,1.4516,1.4462,1.4353,1.4312,1.4292,1.4251,1.415,1.4095,1.4068,1.3953,1.3865,1.3865,1.3808,1.3761,1.3783,1.409,1.4625,1.547,1.6568,1.7996,1.9622,2.1202,2.2598,2.3859,2.4584,2.5048,2.5405,2.5558,2.5531,2.5304,2.5317,2.5304,2.5277,2.5159,2.5144,2.5117,2.4943,2.4679,2.4639,2.4636,2.4422,2.4182,2.3981,2.3688,2.3335,2.3134,2.2987,2.288,2.2752,2.2659,2.2539,2.2392,2.2245,2.2071,2.179,2.1703,2.1609,2.1408,2.1283,0.0,0.0,0.0,0.0,0.0,0.0,0.0,0.0,0.0,0.0,0.0,0.0,0.0,0.0055,0.044,0.0821,0.126,0.2629,0.4427,0.7158,0.9553,1.1442,1.2747,1.4148,1.5296,1.6242,1.6995,1.7372,1.7372,1.7372,1.7358,1.7311,1.7188,1.7141,1.7127,1.7039,1.6978,1.6971,1.6937,1.6917,1.691,1.6883,1.6802,1.6707,1.6592,1.6449,1.6273,1.6083,1.59,1.5745,1.5472,1.5269,1.5113,1.4991,1.4862,1.4746,1.4647,1.4579,1.4502,1.4455,1.4414,1.4319,1.4272,1.4251,1.4245,1.4109,1.4027,1.4,1.3919,1.3835,1.3871,1.4209,1.4692,1.5385,1.6315,1.7533,1.9069,2.0791,2.2493,2.3906,2.4741,2.5256,2.5789,2.5865,2.5772,2.5585,2.5545,2.5531,2.5518,2.5491,2.5451,2.5462,2.5197,2.497,2.4823,2.4756,2.4506,2.4359,2.4222,2.4008,2.3656,2.3402,2.326,2.3073,2.2893,2.2766,2.2672,2.2552,2.2392,2.2245,2.2111,2.1991,2.183,2.1603,2.1489,0.0,0.0,0.0,0.0,0.0,0.0,0.0,0.0,0.0,0.0,0.0,0.0,0.0,0.0446,0.0777,0.1274,0.2546,0.4314,0.6361,0.8462,1.0553,1.2368,1.4009,1.4934,1.5906,1.6727,1.7256,1.7473,1.7473,1.7467,1.7433,1.7426,1.7338,1.7249,1.7202,1.7114,1.7046,1.6992,1.6978,1.6978,1.6978,1.6978,1.6958,1.6849,1.6714,1.6533,1.6466,1.6374,1.6218,1.6056,1.5845,1.5622,1.5411,1.5255,1.5106,1.4977,1.4875,1.478,1.4658,1.455,1.4475,1.4407,1.4346,1.4306,1.4292,1.4217,1.419,1.4163,1.4116,1.4061,1.4055,1.4146,1.4564,1.5259,1.5949,1.707,1.8653,2.0457,2.2194,2.3628,2.4574,2.5226,2.5701,2.6016,2.6159,2.6039,2.6012,2.5999,2.5932,2.5892,2.5758,2.5703,2.5438,2.5237,2.5037,2.485,2.4586,2.4492,2.4426,2.4262,2.3981,2.3781,2.3607,2.334,2.3081,2.2907,2.2779,2.2659,2.2605,2.2539,2.2432,2.2285,2.2111,2.1924,2.1836,0.0288,0.0285,0.0284,0.0,0.0281,0.0,0.0,0.0,0.0281,0.0,0.0,0.0281,0.0729,0.1121,0.1402,0.2411,0.4369,0.6437,0.8321,0.9438,1.1385,1.3218,1.483,1.5764,1.6506,1.6972,1.7403,1.7629,1.7677,1.7622,1.7629,1.7514,1.7412,1.7412,1.7297,1.7229,1.7161,1.7053,1.7039,1.7005,1.6985,1.6978,1.6971,1.6937,1.6856,1.6702,1.6642,1.654,1.6432,1.6347,1.6218,1.6015,1.5778,1.5533,1.5398,1.5248,1.5133,1.4991,1.4841,1.4699,1.4597,1.455,1.4414,1.4346,1.434,1.4306,1.4278,1.4278,1.4258,1.4258,1.4285,1.4227,1.4545,1.5198,1.564,1.671,1.8331,2.0053,2.154,2.3121,2.4296,2.513,2.5774,2.6241,2.6401,2.6507,2.648,2.6426,2.636,2.6279,2.6092,2.5984,2.5745,2.5478,2.5277,2.5024,2.4746,2.4679,2.4639,2.4452,2.4289,2.4088,2.3848,2.35,2.3233,2.3073,2.2974,2.2867,2.284,2.2853,2.276,2.2539,2.2378,2.2231,2.2138,0.1563,0.1491,0.1481,0.1527,0.1517,0.146,0.146,0.1516,0.1516,0.1516,0.1516,0.1516,0.1852,0.2412,0.2973,0.443,0.6444,0.8458,0.9798,1.0803,1.259,1.437,1.5313,1.6317,1.7067,1.7564,1.7819,1.7806,1.7812,1.7819,1.7834,1.7751,1.7663,1.7527,1.7467,1.7453,1.7311,1.7182,1.7154,1.7114,1.7026,1.6985,1.6978,1.6978,1.6931,1.687,1.673,1.6675,1.6588,1.6503,1.6463,1.6347,1.6137,1.5769,1.558,1.552,1.5398,1.5242,1.5092,1.4964,1.4835,1.4713,1.4563,1.4489,1.4455,1.4373,1.4326,1.4299,1.4299,1.4299,1.4299,1.4258,1.4523,1.5045,1.57,1.658,1.7991,1.9387,2.0931,2.2593,2.3874,2.4964,2.5583,2.6166,2.6476,2.6572,2.66,2.664,2.6613,2.6493,2.6333,2.6199,2.6105,2.5785,2.5504,2.5251,2.501,2.4943,2.4877,2.4666,2.4479,2.4315,2.4062,2.3821,2.3541,2.3313,2.318,2.3094,2.3,2.2987,2.2907,2.2813,2.2666,2.2519,2.2418,0.2157,0.185,0.1835,0.1992,0.2203,0.2248,0.2469,0.2693,0.2749,0.2749,0.2749,0.2749,0.3254,0.3982,0.4374,0.5885,0.8122,0.9966,1.1249,1.2363,1.3647,1.5042,1.5985,1.6767,1.7314,1.7749,1.7915,1.7915,1.7915,1.7915,1.7915,1.7902,1.7785,1.7724,1.7602,1.7514,1.7453,1.7344,1.7304,1.7243,1.7093,1.7032,1.6985,1.6985,1.6985,1.6937,1.6897,1.687,1.6795,1.6621,1.6588,1.6558,1.6331,1.6121,1.5913,1.5771,1.5615,1.5459,1.5309,1.516,1.5011,1.4869,1.4719,1.4593,1.4552,1.4464,1.4387,1.4326,1.4299,1.4299,1.4299,1.4299,1.4513,1.4985,1.5535,1.6372,1.7471,1.8743,2.0232,2.1811,2.315,2.4252,2.5153,2.577,2.6354,2.6643,2.6727,2.6744,2.6786,2.6667,2.648,2.636,2.6252,2.6038,2.5732,2.5504,2.5317,2.5237,2.509,2.4893,2.4746,2.4609,2.4462,2.4302,2.3959,2.3599,2.346,2.3388,2.322,2.3073,2.2966,2.2907,2.2867,2.2786,2.2645,0.3283,0.2792,0.2658,0.2922,0.3406,0.3439,0.3818,0.4262,0.4374,0.4374,0.4318,0.443,0.5047,0.5997,0.678,0.7899,0.9795,1.1476,1.2697,1.3698,1.4592,1.5763,1.6601,1.7203,1.748,1.7805,1.7915,1.7915,1.7915,1.7915,1.7915,1.7915,1.7915,1.7812,1.7717,1.7697,1.7595,1.746,1.7467,1.7385,1.7243,1.7134,1.7066,1.7105,1.7039,1.7032,1.7019,1.6971,1.6917,1.6777,1.673,1.6727,1.6527,1.6456,1.6273,1.6015,1.5805,1.5628,1.5513,1.5371,1.5235,1.5092,1.4923,1.4796,1.4701,1.4606,1.4516,1.4414,1.4353,1.4353,1.436,1.4319,1.4476,1.4778,1.5264,1.5917,1.6781,1.7842,1.8914,2.0521,2.2192,2.3389,2.4281,2.5416,2.5979,2.6415,2.6504,2.6609,2.6602,2.6703,2.6599,2.6454,2.6333,2.6212,2.5998,2.5785,2.5651,2.5585,2.5384,2.5184,2.505,2.4917,2.4796,2.4649,2.4342,2.4008,2.3834,2.3647,2.35,2.3327,2.3113,2.302,2.3033,2.296,2.2813,0.6094,0.5876,0.5405,0.547,0.5911,0.5952,0.6263,0.6732,0.6785,0.6783,0.6783,0.6839,0.7451,0.8622,1.0133,1.1193,1.2251,1.3258,1.4269,1.5053,1.5947,1.657,1.7112,1.759,1.7748,1.7983,1.7956,1.7915,1.7949,1.7949,1.7915,1.7915,1.7915,1.7846,1.7868,1.7806,1.7758,1.7643,1.7561,1.7487,1.7412,1.7358,1.7344,1.7311,1.7236,1.7168,1.7154,1.7087,1.6998,1.6971,1.6951,1.6876,1.6696,1.6662,1.656,1.6381,1.6103,1.5867,1.582,1.5642,1.5493,1.5343,1.5208,1.5079,1.4943,1.4808,1.4699,1.4647,1.457,1.4489,1.4468,1.4387,1.437,1.4578,1.4946,1.5366,1.6013,1.6972,1.8024,1.8881,2.0459,2.2054,2.3295,2.4535,2.5634,2.5972,2.6293,2.6296,2.6408,2.6449,2.666,2.6532,2.6401,2.6268,2.6253,2.6066,2.5959,2.5905,2.5692,2.5464,2.5358,2.5251,2.509,2.4917,2.4636,2.4422,2.4249,2.4048,2.3821,2.3621,2.3447,2.334,2.3287,2.314,2.3027,0.9019,0.7663,0.7688,0.7874,0.8052,0.8413,0.8807,0.9201,0.9303,0.9282,0.9191,0.9188,0.9854,1.1086,1.253,1.342,1.4142,1.4936,1.5694,1.6193,1.6881,1.7366,1.7725,1.7956,1.8118,1.8097,1.8124,1.8145,1.8084,1.8004,1.7915,1.7922,1.7922,1.7915,1.7915,1.7915,1.7881,1.7758,1.7697,1.7561,1.7487,1.7473,1.7426,1.7419,1.7358,1.7331,1.7304,1.7277,1.7182,1.7134,1.71,1.7032,1.6897,1.675,1.6655,1.6594,1.6402,1.6171,1.5995,1.5852,1.5703,1.5533,1.5459,1.5343,1.5133,1.4964,1.4828,1.4694,1.464,1.4599,1.4593,1.4584,1.4509,1.4544,1.4822,1.4974,1.5432,1.6189,1.7148,1.7885,1.8715,2.0187,2.1671,2.2912,2.3975,2.4667,2.5137,2.5463,2.5758,2.6058,2.6341,2.6633,2.6477,2.6334,2.6414,2.64,2.6227,2.6133,2.5972,2.5785,2.5743,2.5623,2.5411,2.5237,2.501,2.4823,2.4663,2.4369,2.4062,2.3901,2.3817,2.3674,2.3581,2.3541,2.3469,1.2368,1.0426,1.0052,0.9953,1.0047,1.0618,1.1167,1.1598,1.182,1.1837,1.1788,1.1891,1.2499,1.3278,1.4306,1.5162,1.5753,1.6193,1.6808,1.727,1.7534,1.7812,1.8084,1.8294,1.8294,1.8321,1.8274,1.828,1.8226,1.8118,1.8044,1.7976,1.7997,1.7956,1.7922,1.7915,1.7902,1.784,1.7758,1.7717,1.7684,1.7602,1.7561,1.7534,1.7446,1.7426,1.7473,1.7419,1.7338,1.7277,1.7195,1.7121,1.7026,1.6904,1.6836,1.6775,1.6619,1.6469,1.6286,1.611,1.5913,1.5784,1.56,1.5465,1.535,1.5167,1.5059,1.4964,1.4835,1.4814,1.4787,1.4714,1.462,1.4694,1.484,1.4871,1.501,1.5676,1.6103,1.6525,1.7227,1.7981,1.95,2.0978,2.2147,2.3138,2.3835,2.4461,2.4963,2.5349,2.5844,2.6141,2.6251,2.6151,2.6275,2.6346,2.6334,2.6321,2.6161,2.6119,2.6039,2.5865,2.5665,2.5504,2.5358,2.5224,2.5064,2.4676,2.4302,2.4209,2.4115,2.3955,2.3875,2.3884,2.383,1.6608,1.5425,1.2429,1.1582,1.2023,1.2592,1.3102,1.3632,1.4207,1.4418,1.433,1.4913,1.4999,1.5469,1.5904,1.6539,1.7186,1.7312,1.7652,1.8004,1.8251,1.8215,1.8369,1.8375,1.8355,1.8355,1.8382,1.8375,1.8335,1.8355,1.8206,1.8097,1.8091,1.8044,1.7997,1.7941,1.799,1.7935,1.7894,1.788,1.7867,1.7833,1.7812,1.7785,1.7711,1.7575,1.7575,1.7528,1.7446,1.7405,1.7317,1.7202,1.7134,1.7032,1.6965,1.6897,1.6815,1.6648,1.6592,1.6388,1.6205,1.6022,1.5825,1.56,1.5567,1.5452,1.5371,1.5303,1.514,1.5011,1.4943,1.4848,1.4835,1.4792,1.4849,1.4767,1.4872,1.5054,1.5393,1.5395,1.5932,1.6792,1.7411,1.8934,2.0371,2.1412,2.2578,2.3255,2.3864,2.4371,2.5047,2.5494,2.5753,2.5833,2.5931,2.5967,2.6004,2.6156,2.6093,2.6215,2.6307,2.6107,2.5869,2.5825,2.5705,2.5585,2.5424,2.505,2.4743,2.4546,2.4412,2.4329,2.4168,2.4088,2.3995,1.732,1.6858,1.5536,1.4783,1.4549,1.5135,1.5468,1.5596,1.5871,1.5938,1.5874,1.6089,1.6373,1.6663,1.689,1.7407,1.7861,1.7974,1.8205,1.8316,1.845,1.8504,1.8545,1.8572,1.8593,1.8579,1.8579,1.8593,1.8606,1.8559,1.8491,1.8389,1.8287,1.8219,1.8152,1.8111,1.8124,1.8131,1.8131,1.8138,1.8124,1.8043,1.8002,1.7996,1.786,1.7785,1.7772,1.7724,1.765,1.7514,1.744,1.7378,1.7243,1.7154,1.7073,1.7005,1.6917,1.6897,1.6829,1.6612,1.6381,1.6198,1.5961,1.5778,1.5784,1.5642,1.5567,1.5499,1.5397,1.5309,1.5228,1.5181,1.5126,1.4964,1.4855,1.4801,1.481,1.4944,1.499,1.5139,1.5349,1.5824,1.6339,1.6884,1.8322,1.9718,2.0935,2.2007,2.2579,2.3287,2.3923,2.4449,2.4693,2.5028,2.5129,2.538,2.5684,2.5814,2.5914,2.6099,2.6172,2.6267,2.6056,2.6069,2.5948,2.5776,2.5576,2.5373,2.517,2.4906,2.4773,2.4716,2.4543,2.4346,2.4269,1.8141,1.8037,1.7936,1.7261,1.6502,1.7016,1.7175,1.7114,1.7217,1.7282,1.7181,1.7181,1.7416,1.7701,1.7822,1.8,1.8363,1.8427,1.8525,1.8572,1.8613,1.8667,1.8786,1.8807,1.8779,1.882,1.882,1.88,1.8786,1.8813,1.8681,1.8579,1.8498,1.843,1.8301,1.8321,1.8321,1.8321,1.8321,1.8321,1.8287,1.8219,1.8165,1.8152,1.8057,1.7982,1.7948,1.7907,1.784,1.7745,1.7588,1.748,1.7399,1.727,1.7188,1.71,1.7039,1.7026,1.6924,1.6754,1.653,1.6361,1.6157,1.6029,1.5954,1.5825,1.571,1.5696,1.5662,1.5546,1.5479,1.5432,1.5343,1.5187,1.514,1.5072,1.4896,1.4938,1.494,1.4972,1.5163,1.5269,1.5705,1.6261,1.7213,1.8462,1.9413,2.0371,2.0882,2.1684,2.2632,2.3125,2.3486,2.3866,2.4202,2.45,2.4783,2.4948,2.5165,2.5659,2.586,2.5918,2.598,2.5828,2.5779,2.5819,2.5609,2.5244,2.5226,2.5226,2.5119,2.4938,2.4975,2.4818,2.4655,1.9502,1.9374,1.9307,1.8423,1.7299,1.7804,1.7955,1.7884,1.8329,1.8554,1.847,1.8534,1.8534,1.865,1.8565,1.8616,1.8681,1.8759,1.8773,1.8715,1.8708,1.8749,1.8813,1.882,1.882,1.882,1.882,1.882,1.882,1.882,1.8742,1.8782,1.8735,1.8626,1.8362,1.8328,1.8328,1.8328,1.8348,1.8369,1.8369,1.8348,1.8314,1.8301,1.826,1.8172,1.8111,1.805,1.7975,1.788,1.7745,1.7588,1.7521,1.7467,1.7351,1.7209,1.7188,1.7127,1.6992,1.6784,1.6628,1.653,1.6341,1.6266,1.6225,1.6062,1.5886,1.5906,1.5784,1.5689,1.5593,1.5622,1.552,1.5432,1.5377,1.5323,1.5147,1.5011,1.5075,1.5004,1.4904,1.4908,1.5314,1.5822,1.6515,1.7386,1.8138,1.8759,1.9248,2.011,2.1065,2.1478,2.1868,2.2288,2.2686,2.347,2.3872,2.404,2.4364,2.4812,2.5243,2.5364,2.5436,2.5453,2.542,2.5306,2.5231,2.5077,2.4956,2.4881,2.5147,2.5169,2.5209,2.5068,2.4734,1.963,1.9583,1.9583,1.9227,1.8681,1.8754,1.8752,1.8612,1.8751,1.882,1.882,1.882,1.882,1.882,1.882,1.882,1.882,1.882,1.882,1.882,1.882,1.882,1.882,1.882,1.882,1.882,1.882,1.8834,1.882,1.8847,1.885,1.8898,1.8959,1.8884,1.8694,1.8613,1.8613,1.862,1.862,1.8613,1.8599,1.8525,1.847,1.8413,1.8396,1.8314,1.824,1.8179,1.8084,1.7996,1.786,1.7758,1.7636,1.7521,1.7453,1.7378,1.7338,1.727,1.7134,1.6985,1.6836,1.6686,1.6544,1.6456,1.6422,1.6279,1.6185,1.6117,1.5995,1.59,1.5811,1.5791,1.5703,1.5601,1.5499,1.5492,1.5384,1.5323,1.5268,1.5172,1.503,1.4848,1.5041,1.5287,1.5844,1.6204,1.6839,1.7161,1.7576,1.8471,1.9413,1.9718,2.0047,2.0535,2.1065,2.1758,2.219,2.2321,2.3026,2.3843,2.4247,2.4454,2.4662,2.4581,2.471,2.4825,2.4503,2.4292,2.4366,2.4437,2.4422,2.4636,2.4688,2.4508,2.4304,1.9725,1.9725,1.9725,1.9603,1.9495,1.9345,1.9196,1.9061,1.8959,1.8918,1.8911,1.8871,1.8902,1.883,1.8847,1.882,1.882,1.882,1.882,1.882,1.882,1.882,1.882,1.8827,1.882,1.8834,1.8823,1.885,1.8922,1.8956,1.8972,1.9067,1.9149,1.9067,1.8952,1.8918,1.8918,1.8918,1.8918,1.8911,1.8871,1.8796,1.8701,1.866,1.8579,1.8457,1.8382,1.8294,1.8192,1.8104,1.7996,1.7874,1.7772,1.7704,1.765,1.7548,1.7433,1.7351,1.7195,1.7121,1.6978,1.6842,1.6686,1.656,1.6571,1.6449,1.6395,1.6334,1.6239,1.6137,1.6078,1.6044,1.5886,1.5729,1.5723,1.5716,1.5573,1.5506,1.5459,1.5316,1.5194,1.5038,1.4882,1.4881,1.5192,1.5359,1.5561,1.5861,1.6208,1.7113,1.7909,1.8085,1.8427,1.8908,1.9379,1.9892,2.0284,2.0544,2.1457,2.2493,2.2857,2.3067,2.3376,2.3672,2.3584,2.3515,2.3513,2.3393,2.3219,2.3173,2.3195,2.3484,2.3918,2.3895,2.3661,1.9725,1.9725,1.9725,1.9725,1.9691,1.9495,1.9352,1.921,1.9196,1.9183,1.9176,1.9033,1.9,1.8972,1.885,1.8875,1.8881,1.8875,1.8881,1.8875,1.8857,1.883,1.8823,1.883,1.8864,1.8871,1.8911,1.8993,1.9013,1.9108,1.9183,1.9217,1.9271,1.925,1.923,1.9217,1.9189,1.9142,1.9115,1.9108,1.9074,1.9027,1.8945,1.8884,1.8796,1.8667,1.8579,1.8484,1.8342,1.8226,1.8104,1.8002,1.7921,1.7929,1.7779,1.7663,1.7528,1.7392,1.7283,1.7243,1.7121,1.6985,1.6842,1.673,1.6662,1.6574,1.65,1.649,1.6402,1.6354,1.6293,1.6178,1.6062,1.5981,1.5956,1.5832,1.573,1.5662,1.5642,1.556,1.5459,1.5309,1.5133,1.5052,1.5051,1.5121,1.5293,1.5402,1.5754,1.61,1.6708,1.6648,1.6985,1.7304,1.7779,1.8287,1.8541,1.8846,1.9849,2.0809,2.1198,2.1577,2.1925,2.2118,2.2182,2.215,2.1947,2.1862,2.1776,2.1783,2.1705,2.2426,2.2901,2.309,2.297,1.9814,1.9725,1.9725,1.9725,1.9718,1.9617,1.9508,1.9359,1.9257,1.9203,1.9196,1.9162,1.9142,1.9135,1.9094,1.9067,1.9067,1.9074,1.9081,1.9067,1.9027,1.9061,1.9067,1.9047,1.9067,1.9081,1.9108,1.9142,1.9169,1.9291,1.9366,1.9373,1.944,1.9488,1.9501,1.9522,1.9386,1.9284,1.925,1.9244,1.923,1.9176,1.9108,1.9027,1.8952,1.883,1.8721,1.8593,1.8464,1.8409,1.8301,1.8186,1.8043,1.8023,1.7962,1.7806,1.7677,1.75,1.7433,1.7317,1.7175,1.7114,1.6992,1.6937,1.687,1.6781,1.6635,1.6588,1.6551,1.6483,1.6449,1.6361,1.6266,1.6191,1.6123,1.6062,1.5954,1.5866,1.5839,1.5723,1.5628,1.5533,1.5364,1.5296,1.5248,1.5194,1.516,1.5222,1.5314,1.5665,1.5792,1.5742,1.5868,1.6296,1.644,1.6849,1.7016,1.7315,1.8278,1.9065,1.9395,1.9821,2.0332,2.0553,2.0494,2.0396,2.0226,2.0177,2.02,2.0043,2.0032,2.1004,2.1793,2.1882,2.1828,1.9793,1.9732,1.9725,1.9725,1.9725,1.9725,1.9603,1.9508,1.942,1.9379,1.9379,1.9318,1.9291,1.9278,1.9223,1.9183,1.9183,1.9169,1.9169,1.9169,1.9217,1.9183,1.9196,1.921,1.9183,1.9217,1.9264,1.9298,1.9332,1.9427,1.9522,1.9529,1.963,1.9711,1.9711,1.9677,1.9556,1.9461,1.94,1.9379,1.9359,1.9318,1.923,1.9156,1.9081,1.8945,1.8843,1.8694,1.8606,1.8488,1.8373,1.8335,1.8192,1.8131,1.8016,1.7929,1.7792,1.769,1.7554,1.744,1.7338,1.7209,1.7114,1.7046,1.6971,1.689,1.6849,1.6815,1.67,1.6605,1.6585,1.65,1.6476,1.6395,1.6361,1.632,1.6212,1.6096,1.603,1.5915,1.5771,1.5696,1.5615,1.5547,1.5499,1.5404,1.5343,1.535,1.5267,1.5313,1.529,1.5174,1.521,1.5407,1.5513,1.5712,1.5991,1.6285,1.6709,1.7367,1.7666,1.8016,1.8436,1.8663,1.875,1.8704,1.8649,1.8581,1.8511,1.8463,1.8443,1.8974,1.9717,2.0247,2.0091,1.98,1.9725,1.9725,1.9725,1.9725,1.9725,1.9718,1.9725,1.9698,1.9718,1.9677,1.9508,1.9447,1.9427,1.9352,1.9298,1.9312,1.9312,1.9318,1.9244,1.9305,1.9312,1.9305,1.925,1.9325,1.9325,1.9359,1.9454,1.9488,1.9556,1.9624,1.9657,1.9718,1.9725,1.9725,1.9725,1.9684,1.9657,1.9643,1.9643,1.9576,1.9522,1.9434,1.9366,1.9203,1.902,1.8959,1.8843,1.8708,1.8606,1.8531,1.8477,1.8342,1.8206,1.8057,1.7955,1.7956,1.7812,1.7669,1.7561,1.7426,1.7338,1.7202,1.7127,1.7053,1.6971,1.6931,1.6917,1.6809,1.6775,1.6754,1.6714,1.6646,1.6578,1.6473,1.6456,1.6347,1.6239,1.6137,1.6022,1.5927,1.5852,1.5791,1.5716,1.5655,1.5649,1.5539,1.5465,1.5398,1.5228,1.5083,1.4853,1.4947,1.5084,1.5068,1.5214,1.5247,1.5477,1.5734,1.5969,1.6445,1.6577,1.6533,1.6972,1.7367,1.7244,1.7159,1.7186,1.7214,1.7154,1.7121,1.7063,1.754,1.8343,1.8522,1.9895,1.9725,1.9725,1.9725,1.9725,1.9725,1.9725,1.9725,1.9725,1.9725,1.9718,1.9684,1.9596,1.9569,1.9542,1.9575,1.9582,1.9488,1.9603,1.9589,1.9515,1.9481,1.9589,1.9555,1.9522,1.9563,1.9596,1.959,1.9596,1.9698,1.9725,1.9725,1.9725,1.9725,1.9725,1.9725,1.9725,1.9725,1.9725,1.9725,1.9705,1.9684,1.9563,1.9468,1.9312,1.9176,1.9094,1.8972,1.8843,1.8742,1.8715,1.8626,1.8491,1.8342,1.8199,1.807,1.8036,1.7948,1.784,1.769,1.7568,1.7494,1.7358,1.7229,1.7121,1.7032,1.6978,1.6965,1.6951,1.6924,1.6904,1.6856,1.6815,1.6748,1.6635,1.654,1.649,1.6381,1.6286,1.6191,1.6146,1.6022,1.5954,1.5886,1.5874,1.575,1.5621,1.5553,1.5512,1.5411,1.5268,1.5098,1.4976,1.5011,1.4888,1.4854,1.4937,1.4942,1.5143,1.5277,1.5352,1.5565,1.5793,1.5881,1.6057,1.6013,1.6057,1.6049,1.6093,1.6057,1.6057,1.6057,1.6057,1.6617,1.6764,1.9868,1.9732,1.9725,1.9725,1.9725,1.9725,1.9725,1.9725,1.9725,1.9725,1.9725,1.9725,1.9725,1.9725,1.9725,1.9725,1.9725,1.9718,1.9698,1.9711,1.9725,1.9711,1.9725,1.9725,1.9705,1.9725,1.9725,1.9718,1.9725,1.9725,1.9725,1.9725,1.9725,1.9725,1.9725,1.9725,1.9725,1.9725,1.9725,1.9725,1.9725,1.9705,1.9691,1.9542,1.944,1.9325,1.925,1.9135,1.904,1.8952,1.8911,1.8715,1.8579,1.8457,1.8342,1.824,1.8179,1.8131,1.7989,1.788,1.7772,1.7636,1.7487,1.7412,1.7188,1.7093,1.7039,1.7019,1.6978,1.6951,1.6951,1.6917,1.691,1.687,1.6836,1.6781,1.6646,1.651,1.6442,1.6381,1.6286,1.6191,1.6117,1.6029,1.6024,1.6003,1.5852,1.5764,1.5716,1.5635,1.5452,1.5289,1.5207,1.5057,1.4954,1.4831,1.4722,1.473,1.4758,1.4757,1.4878,1.4976,1.5094,1.5219,1.5219,1.505,1.5094,1.5263,1.5146,1.5087,1.5087,1.5094,1.5138,1.5197,1.5433,1.9854,1.9732,1.9725,1.9725,1.9725,1.9725,1.9725,1.9725,1.9725,1.9725,1.9725,1.9725,1.9725,1.9725,1.9725,1.9725,1.9725,1.9725,1.9725,1.9725,1.9725,1.9725,1.9725,1.9725,1.9725,1.9725,1.9725,1.9725,1.9725,1.9725,1.9725,1.9725,1.9725,1.9725,1.9725,1.9725,1.9725,1.9725,1.9725,1.9725,1.9725,1.9725,1.9711,1.9664,1.9542,1.9401,1.9393,1.9325,1.9237,1.9156,1.9061,1.8891,1.8742,1.8633,1.8498,1.8409,1.8342,1.826,1.8152,1.8063,1.7921,1.7792,1.7656,1.7548,1.7311,1.7188,1.7127,1.7073,1.7026,1.6985,1.6985,1.6978,1.7024,1.7017,1.6944,1.6931,1.6781,1.6594,1.654,1.65,1.6456,1.6354,1.6279,1.6191,1.6137,1.6117,1.6112,1.6044,1.5956,1.5805,1.5662,1.5513,1.5377,1.5221,1.5059,1.4903,1.478,1.4719,1.4781,1.4554,1.4466,1.4723,1.4768,1.4592,1.4541,1.4644,1.4592,1.4761,1.4534,1.4507,1.4651,1.4812,1.4685,1.4729,1.451,1.9793,1.9725,1.9725,1.9725,1.9725,1.9725,1.9725,1.9725,1.9725,1.9725,1.9725,1.9725,1.9725,1.9725,1.9725,1.9725,1.9725,1.9725,1.9725,1.9725,1.9725,1.9725,1.9725,1.9725,1.9725,1.9725,1.9725,1.9725,1.9725,1.9725,1.9725,1.9725,1.9725,1.9725,1.9732,1.9732,1.9752,1.9773,1.978,1.978,1.9759,1.9745,1.9725,1.9705,1.9637,1.9535,1.9454,1.9406,1.9312,1.923,1.9176,1.9054,1.8952,1.8857,1.8742,1.8593,1.8531,1.8423,1.8328,1.8213,1.8063,1.7962,1.7853,1.7615,1.7467,1.7311,1.7243,1.7168,1.7107,1.7012,1.6992,1.6978,1.6978,1.6978,1.6965,1.6965,1.689,1.6795,1.6669,1.6608,1.6585,1.6517,1.6469,1.6374,1.6279,1.6232,1.6151,1.6083,1.6098,1.601,1.5908,1.573,1.5594,1.5486,1.535,1.5086,1.495,1.4889,1.4808,1.4672,1.4618,1.462,1.4606,1.4525,1.4552,1.4676,1.4624,1.4563,1.4597,1.4636,1.4645,1.4697,1.4543,1.4468,1.4455]},{"header":{"parameterUnit":"m.s-1","parameterCategory":1,"la1":31.0,"la2":29.5877,"lo1":-88.7671,"lo2":-86.6584,"dy":0.0162,"dx":0.0185,"nx":115,"ny":88,"refTime":"2023-04-09T00:00:00:Z","depth":0,"parameterNumber":3,"parameterNumberName":"V-component_of_WINDS"},"data":[0.0,0.0,0.0,0.0,0.0,0.0,0.0,0.0,0.0,0.0,0.0,0.0,0.0,0.0,0.0,0.0,0.0,0.0,0.0,0.0,0.0,0.0,0.0,0.0,0.0,0.0,0.0,0.0,0.0,0.0,0.0,0.0,0.0,0.0,0.0,0.0,0.0,0.0,0.0,0.0,0.0,0.0,0.0,0.0,0.0,0.0,0.0,0.0,0.0,0.0,0.0,0.0,0.0,0.0,0.0,0.0,0.0,0.0,0.0,0.0,0.0,0.0,0.0,0.0,0.0,0.0,0.0,0.0,0.0,0.0,0.0,0.0,0.0,0.0,0.0,0.0,0.0,0.0,0.0,0.0,0.0,0.0,0.0,0.0,0.0,0.0,0.0,0.0,0.0,0.0,0.0,0.0,0.0,0.0,0.0,0.0,0.0,0.0,0.0,0.0,0.0,0.0,0.0,0.0,0.0,0.0,0.0,0.0,0.0,0.0,0.0,0.0,0.0,0.0,0.0,0.0,0.0,0.0,0.0,0.0,0.0,0.0,0.0,0.0,0.0,0.0,0.0,0.0,0.0,0.0,0.0,0.0,0.0,0.0,0.0,0.0,0.0,0.0,0.0,0.0,0.0,0.0,0.0,0.0,0.0,0.0,0.0,0.0,0.0,0.0,0.0,0.0,0.0,0.0,0.0,0.0,0.0,0.0,0.0,0.0,0.0,0.0,0.0,0.0,0.0,0.0,0.0,0.0,0.0,0.0,0.0,0.0,0.0,0.0,0.0,0.0,0.0,0.0,0.0,0.0,0.0,0.0,0.0,0.0,0.0,0.0,0.0,0.0,0.0,0.0,0.0,0.0,0.0,0.0,0.0,0.0,0.0,0.0,0.0,0.0,0.0,0.0,0.0,0.0,0.0,0.0,0.0,0.0,0.0,0.0,0.0,0.0,0.0,0.0,0.0,0.0,0.0,0.0,0.0,0.0,0.0,0.0,0.0,0.0,0.0,0.0,0.0,0.0,0.0,0.0,0.0,0.0,0.0,0.0,0.0,0.0,0.0,0.0,0.0,0.0,0.0,0.0,0.0,0.0,0.0,0.0,0.0,0.0,0.0,0.0,0.0,0.0,0.0,0.0,0.0,0.0,0.0,0.0,0.0,0.0,0.0,0.0,0.0,0.0,0.0,0.0,0.0,0.0,0.0,0.0,0.0,0.0,0.0,0.0,0.0,0.0,0.0,0.0,0.0,0.0,0.0,0.0,0.0,0.0,0.0,0.0,0.0,0.0,0.0,0.0,0.0,0.0,0.0,0.0,0.0,0.0,0.0,0.0,0.0,0.0,0.0,0.0,0.0,0.0,0.0,0.0,0.0,0.0,0.0,0.0,0.0,0.0,0.0,0.0,0.0,0.0,0.0,0.0,0.0,0.0,0.0,0.0,0.0,0.0,0.0,0.0,0.0,0.0,0.0,0.0,0.0,0.0,0.0,0.0,0.0,0.0,0.0,0.0,0.0,0.0,0.0,0.0,0.0,0.0,0.0,0.0,0.0,0.0,0.0,0.0,0.0,0.0,0.0,0.0,0.0,0.0,0.0,0.0,0.0,0.0,0.0,0.0,0.0,0.0,0.0,0.0,0.0,0.0,0.0,0.0,0.0,0.0,0.0,0.0,0.0,0.0,0.0,0.0,0.0,0.0,0.0,0.0,0.0,0.0,0.0,0.0,0.0,0.0,0.0,0.0,0.0,0.0,0.0,0.0,0.0,0.0,0.0,0.0,0.0,0.0,0.0,0.0,0.0,0.0,0.0,0.0,0.0,0.0,0.0,0.0,0.0,0.0,0.0,0.0,0.0,0.0,0.0,0.0,0.0,0.0,0.0,0.0,0.0,0.0,0.0,0.0,0.0,0.0,0.0,0.0,0.0,0.0,0.0,0.0,0.0,0.0,0.0,0.0,0.0,0.0,0.0,0.0,0.0,0.0,0.0,0.0,0.0,0.0,0.0,0.0,0.0,0.0,0.0,0.0,0.0,0.0,0.0,0.0,0.0,0.0,0.0,0.0,0.0,0.0,0.0,0.0,0.0,0.0,0.0,0.0,0.0,0.0,0.0,0.0,0.0,0.0,0.0,0.0,0.0,0.0,0.0,0.0,0.0,0.0,0.0,0.0,0.0,0.0,0.0,0.0,0.0,0.0,0.0,0.0,0.0,0.0,0.0,0.0,0.0,0.0,0.0,0.0,0.0,0.0,0.0,0.0,0.0,0.0,0.0,0.0,0.0,0.0,0.0,0.0,0.0,0.0,0.0,0.0,0.0,0.0,0.0,0.0,0.0,0.0,0.0,0.0,0.0,0.0,0.0,0.0,0.0,0.0,0.0,0.0,0.0,0.0,0.0,0.0,0.0,0.0,0.0,0.0,0.0,0.0,0.0,0.0,0.0,0.0,0.0,0.0,0.0,0.0,0.0,0.0,0.0,0.0,0.0,0.0,0.0,0.0,0.0,0.0,0.0,0.0,0.0,0.0,0.0,0.0,0.0,0.0,0.0,0.0,0.0,0.0,0.0,0.0,0.0,0.0,0.0,0.0,0.0,0.0,0.0,0.0,0.0,0.0,0.0,0.0,0.0,0.0,0.0,0.0,0.0,0.0,0.0,0.0,0.0,0.0,0.0,0.0,0.0,0.0,0.0,0.0,0.0,0.0,0.0,0.0,0.0,0.0,0.0,0.0,0.0,0.0,0.0,0.0,0.0,0.0,0.0,0.0,0.0,0.0,0.0,0.0,0.0,0.0,0.0,0.0,0.0,0.0,0.0,0.0,0.0,0.0,0.0,0.0,0.0,0.0,0.0,0.0,0.0,0.0,0.0,0.0,0.0,0.0,0.0,0.0,0.0,0.0,0.0,0.0,0.0,0.0,0.0,0.0,0.0,0.0,0.0,0.0,0.0,0.0,0.0,0.0,0.0,0.0,0.0,0.0,0.0,0.0,0.0,0.0,0.0,0.0,0.0,0.0,0.0,0.0,0.0,0.0,0.0,0.0,0.0,0.0,0.0,0.0,0.0,0.0,0.0,0.0,0.0,0.0,0.0,0.0,0.0,0.0,0.0,0.0,0.0,0.0,0.0,0.0,0.0,0.0,0.0,0.0,0.0,0.0,0.0,0.0,0.0,0.0,0.0,0.0,0.0,0.0,0.0,0.0,0.0,0.0,0.0,0.0,0.0,0.0,0.0,0.0,0.0,0.0,0.0,0.0,0.0,0.0,0.0,0.0,0.0,0.0,0.0,0.0,0.0,0.0,0.0,0.0,0.0,0.0,0.0,0.0,0.0,0.0,0.0,0.0,0.0,0.0,0.0,0.0,0.0,0.0,0.0,0.0,0.0,0.0,0.0,0.0,0.0,0.0,0.0,0.0,0.0,0.0,0.0,0.0,0.0,0.0,0.0,0.0,0.0,0.0,0.0,0.0,0.0,0.0,0.0,0.0,0.0,0.0,0.0,0.0,0.0,0.0,0.0,0.0,0.0,0.0,0.0,0.0,0.0,0.0,0.0,0.0,0.0,0.0,0.0,0.0,0.0,0.0,0.0,0.0,0.0,0.0,0.0,0.0,0.0,0.0,0.0,0.0,0.0,0.0,0.0,0.0,0.0,0.0,0.0,0.0,0.0,0.0,0.0,0.0,0.0,0.0,0.0,0.0,0.0,0.0,0.0,0.0,0.0,0.0,0.0,0.0,0.0,0.0,0.0,0.0,0.0,0.0,0.0,0.0,0.0,0.0,0.0,0.0,0.0,0.0,0.0,0.0,0.0,0.0,0.0,0.0,0.0,0.0,0.0,0.0,0.0,0.0,0.0,0.0,0.0,0.0,0.0,0.0,0.0,0.0,0.0,0.0,0.0,0.0,0.0,0.0,0.0,0.0,0.0,0.0,0.0,0.0,0.0,0.0,0.0,0.0,0.0,0.0,0.0,0.0,0.0,0.0,0.0,0.0,0.0,0.0,0.0,0.0,0.0,0.0,0.0,0.0,0.0,0.0,0.0,0.0,0.0,0.0,0.0,0.0,0.0,0.0,0.0,0.0,0.0,0.0,0.0,0.0,0.0,0.0,0.0,0.0,0.0,0.0,0.0,0.0,0.0,0.0,0.0,0.0,0.0,0.0,0.0,0.0,0.0,0.0,0.0,0.0,0.0,0.0,0.0,0.0,0.0,0.0,0.0,0.0,0.0,0.0,0.0,0.0,0.0,0.0,0.0,0.0,0.0,0.0,0.0,0.0,0.0,0.0,4.3506,0.0,0.0,0.0,4.3506,0.0,0.0,0.0,0.0,0.0,0.0,0.0,0.0,0.0,0.0,0.0,0.0,0.0,0.0,0.0,0.0,0.0,0.0,0.0,0.0,0.0,0.0,0.0,0.0,0.0,0.0,0.0,0.0,0.0,0.0,0.0,0.0,0.0,0.0,0.0,0.0,0.0,0.0,0.0,0.0,0.0,0.0,0.0,0.0,0.0,0.0,0.0,0.0,0.0,0.0,0.0,0.0,0.0,0.0,0.0,0.0,0.0,0.0,0.0,0.0,0.0,0.0,0.0,0.0,0.0,0.0,0.0,0.0,0.0,0.0,0.0,0.0,0.0,0.0,0.0,0.0,0.0,0.0,0.0,0.0,0.0,0.0,0.0,0.0,0.0,0.0,0.0,0.0,0.0,0.0,0.0,0.0,0.0,0.0,0.0,0.0,0.0,0.0,0.0,0.0,0.0,0.0,0.0,0.0,0.0,0.0,0.0,0.0,0.0,0.0,4.3506,4.3506,4.3506,4.3506,4.3506,0.0,0.0,0.0,0.0,0.0,0.0,0.0,0.0,0.0,0.0,0.0,0.0,0.0,0.0,0.0,0.0,0.0,0.0,0.0,0.0,0.0,0.0,0.0,0.0,0.0,0.0,0.0,0.0,0.0,0.0,0.0,0.0,0.0,0.0,0.0,0.0,0.0,0.0,0.0,0.0,0.0,0.0,0.0,0.0,0.0,0.0,0.0,0.0,0.0,0.0,0.0,0.0,0.0,0.0,0.0,0.0,0.0,0.0,0.0,0.0,0.0,0.0,0.0,0.0,0.0,0.0,0.0,0.0,0.0,0.0,0.0,0.0,0.0,0.0,0.0,0.0,0.0,0.0,0.0,0.0,0.0,0.0,0.0,0.0,0.0,0.0,0.0,0.0,0.0,0.0,0.0,0.0,0.0,0.0,0.0,0.0,0.0,0.0,0.0,0.0,0.0,0.0,0.0,0.0,0.0,0.0,0.0,0.0,0.0,0.0,0.0,0.0,4.3506,4.3506,4.3506,0.0,0.0,0.0,0.0,0.0,0.0,0.0,0.0,0.0,0.0,0.0,0.0,0.0,0.0,0.0,0.0,0.0,0.0,0.0,0.0,0.0,0.0,0.0,0.0,0.0,0.0,0.0,0.0,0.0,0.0,0.0,0.0,0.0,0.0,0.0,0.0,0.0,0.0,0.0,0.0,0.0,0.0,0.0,0.0,0.0,0.0,0.0,0.0,0.0,0.0,0.0,0.0,0.0,0.0,0.0,0.0,0.0,0.0,0.0,0.0,0.0,0.0,0.0,0.0,0.0,0.0,0.0,0.0,0.0,0.0,0.0,0.0,0.0,0.0,0.0,0.0,0.0,0.0,0.0,0.0,0.0,0.0,0.0,0.0,0.0,0.0,0.0,0.0,0.0,0.0,0.0,0.0,0.0,0.0,0.0,0.0,0.0,0.0,0.0,0.0,0.0,0.0,0.0,0.0,0.0,0.0,0.0,0.0,0.0,0.0,4.3506,4.3506,4.3506,0.0,4.3506,0.0,0.0,0.0,0.0,0.0,0.0,0.0,0.0,0.0,0.0,0.0,0.0,0.0,0.0,0.0,0.0,0.0,0.0,0.0,0.0,0.0,0.0,0.0,0.0,0.0,0.0,0.0,0.0,0.0,0.0,0.0,0.0,0.0,0.0,0.0,0.0,0.0,0.0,0.0,0.0,0.0,0.0,0.0,0.0,0.0,0.0,0.0,0.0,0.0,0.0,0.0,0.0,0.0,0.0,0.0,0.0,0.0,0.0,0.0,0.0,0.0,0.0,0.0,0.0,0.0,0.0,0.0,0.0,0.0,0.0,0.0,0.0,0.0,0.0,0.0,0.0,0.0,0.0,0.0,0.0,0.0,0.0,0.0,0.0,0.0,0.0,0.0,0.0,0.0,0.0,0.0,0.0,0.0,0.0,0.0,0.0,0.0,0.0,0.0,0.0,0.0,0.0,0.0,0.0,0.0,0.0,0.0,0.0,0.0,0.0,4.3983,4.3506,4.3506,4.3506,0.0,0.0,0.0,0.0,0.0,0.0,0.0,0.0,0.0,0.0,0.0,0.0,0.0,0.0,0.0,0.0,0.0,0.0,0.0,0.0,0.0,0.0,0.0,0.0,0.0,0.0,0.0,0.0,0.0,0.0,0.0,0.0,0.0,0.0,0.0,0.0,0.0,0.0,0.0,0.0,0.0,0.0,0.0,0.0,0.0,0.0,0.0,0.0,0.0,0.0,0.0,0.0,0.0,0.0,0.0,0.0,0.0,0.0,0.0,0.0,0.0,0.0,0.0,0.0,0.0,0.0,0.0,0.0,0.0,0.0,0.0,0.0,0.0,0.0,0.0,0.0,0.0,0.0,0.0,0.0,0.0,0.0,0.0,0.0,0.0,0.0,0.0,0.0,0.0,0.0,0.0,0.0,0.0,0.0,0.0,0.0,0.0,0.0,0.0,0.0,0.0,0.0,0.0,0.0,0.0,0.0,0.0,0.0,0.0,0.0,4.4085,4.4085,4.3543,4.3506,4.3506,4.3506,0.0,0.0,0.0,0.0,0.0,0.0,0.0,0.0,0.0,0.0,0.0,0.0,0.0,0.0,0.0,0.0,0.0,0.0,0.0,0.0,0.0,0.0,0.0,0.0,0.0,0.0,0.0,0.0,0.0,0.0,0.0,0.0,0.0,0.0,0.0,0.0,0.0,0.0,0.0,0.0,0.0,0.0,0.0,0.0,0.0,0.0,0.0,0.0,0.0,0.0,0.0,0.0,0.0,0.0,0.0,0.0,0.0,0.0,0.0,0.0,0.0,0.0,0.0,0.0,0.0,0.0,0.0,0.0,0.0,0.0,0.0,0.0,0.0,0.0,0.0,0.0,0.0,0.0,0.0,0.0,0.0,0.0,0.0,0.0,0.0,0.0,0.0,0.0,0.0,0.0,0.0,0.0,0.0,0.0,0.0,0.0,0.0,0.0,0.0,0.0,0.0,0.0,0.0,0.0,0.0,0.0,0.0,0.0,4.3506,4.3543,4.3543,4.3506,4.3506,4.3506,0.0,0.0,0.0,0.0,0.0,0.0,0.0,0.0,0.0,0.0,0.0,0.0,0.0,0.0,0.0,0.0,0.0,0.0,0.0,0.0,0.0,0.0,0.0,0.0,0.0,0.0,0.0,0.0,0.0,0.0,0.0,0.0,0.0,0.0,0.0,0.0,0.0,0.0,0.0,0.0,0.0,0.0,0.0,0.0,0.0,0.0,0.0,0.0,0.0,0.0,0.0,0.0,0.0,0.0,0.0,0.0,0.0,0.0,0.0,0.0,0.0,0.0,0.0,0.0,0.0,0.0,0.0,0.0,0.0,0.0,0.0,0.0,0.0,0.0,0.0,0.0,0.0,0.0,0.0,0.0,0.0,0.0,0.0,0.0,0.0,0.0,0.0,0.0,0.0,0.0,0.0,0.0,0.0,0.0,0.0,0.0,0.0,0.0,0.0,0.0,0.0,0.0,0.0,0.0,0.0,0.0,0.0,0.0,0.0,4.3506,4.3506,4.3763,4.4232,4.3763,4.3506,0.0,0.0,0.0,0.0,0.0,0.0,0.0,0.0,0.0,0.0,0.0,0.0,0.0,0.0,0.0,0.0,0.0,0.0,0.0,0.0,0.0,0.0,0.0,0.0,0.0,0.0,0.0,0.0,0.0,0.0,0.0,0.0,0.0,0.0,0.0,0.0,0.0,0.0,0.0,0.0,0.0,0.0,0.0,0.0,0.0,0.0,0.0,0.0,0.0,0.0,0.0,0.0,0.0,0.0,0.0,0.0,0.0,0.0,0.0,0.0,0.0,0.0,0.0,0.0,0.0,0.0,0.0,0.0,0.0,0.0,0.0,0.0,0.0,0.0,0.0,0.0,0.0,0.0,0.0,0.0,0.0,0.0,0.0,0.0,0.0,0.0,0.0,0.0,0.0,0.0,0.0,0.0,0.0,0.0,0.0,0.0,0.0,0.0,0.0,0.0,0.0,0.0,0.0,0.0,0.0,0.0,0.0,0.0,0.0,4.3592,0.0,4.3798,4.4295,4.3808,4.3506,0.0,0.0,0.0,0.0,0.0,0.0,0.0,0.0,0.0,0.0,0.0,0.0,0.0,0.0,0.0,0.0,0.0,0.0,0.0,0.0,0.0,0.0,0.0,0.0,0.0,0.0,0.0,0.0,0.0,0.0,0.0,0.0,0.0,0.0,0.0,0.0,0.0,0.0,0.0,0.0,0.0,0.0,0.0,0.0,0.0,0.0,0.0,0.0,0.0,0.0,0.0,0.0,0.0,0.0,0.0,0.0,0.0,0.0,0.0,0.0,0.0,0.0,0.0,0.0,0.0,0.0,0.0,0.0,0.0,0.0,0.0,0.0,0.0,0.0,0.0,0.0,0.0,0.0,0.0,0.0,0.0,0.0,0.0,0.0,0.0,0.0,0.0,0.0,0.0,0.0,0.0,0.0,0.0,0.0,0.0,0.0,0.0,0.0,0.0,0.0,0.0,0.0,0.0,0.0,0.0,0.0,0.0,0.0,4.3713,4.3833,4.3713,4.3699,4.3654,4.3631,4.3551,0.0,0.0,0.0,0.0,0.0,0.0,0.0,0.0,0.0,0.0,0.0,0.0,0.0,0.0,0.0,0.0,0.0,0.0,0.0,0.0,0.0,0.0,0.0,0.0,0.0,0.0,0.0,0.0,0.0,0.0,0.0,0.0,0.0,0.0,0.0,0.0,0.0,0.0,0.0,0.0,0.0,0.0,0.0,0.0,0.0,0.0,0.0,0.0,0.0,0.0,0.0,0.0,0.0,0.0,0.0,0.0,0.0,0.0,0.0,0.0,0.0,0.0,0.0,0.0,0.0,0.0,0.0,0.0,0.0,0.0,0.0,0.0,0.0,0.0,0.0,0.0,0.0,0.0,0.0,0.0,0.0,0.0,0.0,0.0,0.0,0.0,0.0,0.0,0.0,0.0,0.0,0.0,0.0,0.0,0.0,0.0,0.0,0.0,0.0,0.0,0.0,0.0,0.0,0.0,0.0,0.0,0.0,0.0,0.0,4.4761,4.4671,4.4888,4.5415,4.485,4.4507,0.0,0.0,0.0,0.0,0.0,0.0,0.0,0.0,0.0,0.0,0.0,0.0,0.0,0.0,0.0,0.0,0.0,0.0,0.0,0.0,0.0,0.0,0.0,0.0,0.0,0.0,0.0,0.0,0.0,0.0,0.0,0.0,0.0,0.0,0.0,0.0,0.0,0.0,0.0,0.0,0.0,0.0,0.0,0.0,0.0,0.0,0.0,0.0,0.0,0.0,0.0,0.0,0.0,0.0,0.0,0.0,0.0,0.0,0.0,0.0,0.0,0.0,0.0,0.0,0.0,0.0,0.0,0.0,0.0,0.0,0.0,0.0,0.0,0.0,0.0,0.0,0.0,0.0,0.0,0.0,0.0,0.0,0.0,0.0,0.0,0.0,0.0,0.0,0.0,0.0,0.0,0.0,0.0,0.0,0.0,0.0,0.0,0.0,0.0,0.0,0.0,0.0,0.0,0.0,0.0,0.0,0.0,0.0,0.0,4.6981,4.6515,4.6337,4.6491,4.6158,4.5682,4.4955,0.0,0.0,0.0,0.0,0.0,0.0,0.0,0.0,0.0,0.0,0.0,0.0,0.0,0.0,0.0,0.0,0.0,0.0,0.0,0.0,0.0,0.0,0.0,0.0,0.0,0.0,0.0,0.0,0.0,0.0,0.0,0.0,0.0,0.0,0.0,0.0,0.0,0.0,0.0,0.0,0.0,0.0,0.0,0.0,0.0,0.0,0.0,0.0,0.0,0.0,0.0,0.0,0.0,0.0,0.0,0.0,0.0,0.0,0.0,0.0,0.0,0.0,0.0,0.0,0.0,0.0,0.0,0.0,0.0,0.0,0.0,0.0,0.0,0.0,0.0,0.0,0.0,0.0,0.0,0.0,0.0,0.0,0.0,0.0,0.0,0.0,0.0,0.0,0.0,0.0,0.0,0.0,0.0,0.0,0.0,0.0,0.0,0.0,0.0,0.0,0.0,0.0,0.0,0.0,0.0,0.0,0.0,0.0,5.0221,4.9164,4.8168,4.7215,4.7596,4.6967,0.0,0.0,0.0,0.0,0.0,0.0,0.0,0.0,0.0,0.0,0.0,0.0,0.0,0.0,0.0,0.0,0.0,0.0,0.0,0.0,0.0,0.0,0.0,0.0,0.0,0.0,0.0,0.0,0.0,0.0,0.0,0.0,0.0,0.0,0.0,0.0,0.0,0.0,0.0,0.0,0.0,0.0,0.0,0.0,0.0,0.0,0.0,0.0,0.0,0.0,0.0,0.0,0.0,0.0,0.0,0.0,0.0,0.0,0.0,0.0,0.0,0.0,0.0,0.0,0.0,0.0,0.0,0.0,0.0,0.0,0.0,0.0,0.0,0.0,0.0,0.0,0.0,0.0,0.0,0.0,0.0,0.0,0.0,0.0,0.0,0.0,0.0,0.0,0.0,0.0,0.0,0.0,0.0,0.0,0.0,0.0,0.0,0.0,0.0,0.0,0.0,0.0,0.0,0.0,0.0,0.0,0.0,0.0,0.0,5.2135,5.3085,5.2702,5.1,4.9807,4.8566,0.0,0.0,0.0,0.0,0.0,0.0,0.0,0.0,0.0,0.0,0.0,0.0,0.0,0.0,0.0,0.0,0.0,0.0,0.0,0.0,0.0,0.0,0.0,0.0,0.0,0.0,0.0,0.0,0.0,0.0,0.0,0.0,0.0,0.0,0.0,0.0,0.0,0.0,0.0,0.0,0.0,0.0,0.0,0.0,0.0,0.0,0.0,0.0,0.0,0.0,0.0,0.0,0.0,0.0,0.0,0.0,0.0,0.0,0.0,0.0,0.0,0.0,0.0,0.0,0.0,0.0,0.0,0.0,0.0,0.0,0.0,0.0,0.0,0.0,0.0,0.0,0.0,0.0,0.0,0.0,0.0,0.0,0.0,0.0,0.0,0.0,0.0,0.0,0.0,0.0,0.0,0.0,0.0,0.0,0.0,0.0,0.0,0.0,0.0,0.0,0.0,0.0,0.0,0.0,0.0,0.0,0.0,0.0,5.1716,5.3602,5.5614,5.5891,5.4339,5.2417,5.0347,0.0,0.0,0.0,0.0,0.0,0.0,0.0,0.0,0.0,0.0,0.0,0.0,0.0,0.0,0.0,0.0,0.0,0.0,0.0,0.0,0.0,0.0,0.0,0.0,0.0,0.0,0.0,0.0,0.0,0.0,0.0,0.0,0.0,0.0,0.0,0.0,0.0,0.0,0.0,0.0,0.0,0.0,0.0,0.0,0.0,0.0,0.0,0.0,0.0,0.0,0.0,0.0,0.0,0.0,0.0,0.0,0.0,0.0,0.0,0.0,0.0,0.0,0.0,0.0,0.0,0.0,0.0,0.0,0.0,0.0,0.0,0.0,0.0,0.0,0.0,0.0,0.0,0.0,0.0,0.0,0.0,0.0,0.0,0.0,0.0,0.0,0.0,0.0,0.0,0.0,0.0,0.0,0.0,0.0,0.0,0.0,0.0,0.0,0.0,0.0,0.0,0.0,0.0,0.0,0.0,0.0,0.0,0.0,5.3661,5.4785,5.7165,5.7983,5.7036,5.4906,5.2103,0.0,0.0,0.0,0.0,0.0,0.0,0.0,0.0,0.0,0.0,0.0,0.0,0.0,0.0,0.0,0.0,0.0,0.0,0.0,0.0,0.0,0.0,0.0,0.0,0.0,0.0,0.0,0.0,0.0,0.0,0.0,0.0,0.0,0.0,0.0,0.0,0.0,0.0,0.0,0.0,0.0,0.0,0.0,0.0,0.0,0.0,0.0,0.0,0.0,0.0,0.0,0.0,0.0,0.0,0.0,0.0,0.0,0.0,0.0,0.0,0.0,0.0,0.0,0.0,0.0,0.0,0.0,0.0,0.0,0.0,0.0,0.0,0.0,0.0,0.0,0.0,0.0,0.0,0.0,0.0,0.0,0.0,0.0,0.0,0.0,0.0,0.0,0.0,0.0,0.0,0.0,0.0,0.0,0.0,0.0,0.0,0.0,0.0,0.0,0.0,0.0,0.0,0.0,0.0,0.0,0.0,0.0,0.0,5.4231,5.6439,5.828,5.8829,5.792,5.5467,5.2766,0.0,0.0,0.0,0.0,0.0,0.0,0.0,0.0,0.0,0.0,0.0,0.0,0.0,0.0,0.0,0.0,0.0,0.0,0.0,0.0,0.0,0.0,0.0,0.0,0.0,0.0,0.0,0.0,0.0,0.0,0.0,0.0,0.0,0.0,0.0,0.0,0.0,0.0,0.0,0.0,0.0,0.0,0.0,0.0,0.0,0.0,0.0,0.0,4.0113,0.0,0.0,0.0,0.0,0.0,0.0,0.0,0.0,0.0,0.0,0.0,0.0,0.0,0.0,0.0,0.0,0.0,0.0,0.0,0.0,0.0,0.0,0.0,0.0,0.0,0.0,0.0,0.0,0.0,0.0,0.0,0.0,0.0,0.0,0.0,0.0,0.0,0.0,0.0,0.0,0.0,0.0,0.0,0.0,0.0,0.0,0.0,0.0,0.0,0.0,0.0,0.0,0.0,0.0,0.0,0.0,0.0,0.0,0.0,5.5247,5.6983,5.9056,5.9533,5.8229,5.6131,5.3458,0.0,0.0,0.0,0.0,0.0,0.0,0.0,0.0,0.0,0.0,0.0,0.0,0.0,0.0,0.0,0.0,0.0,0.0,0.0,0.0,0.0,0.0,0.0,0.0,0.0,0.0,0.0,0.0,0.0,0.0,0.0,0.0,0.0,0.0,0.0,0.0,0.0,0.0,0.0,0.0,0.0,0.0,0.0,0.0,0.0,0.0,0.0,0.0,0.0,0.0,0.0,0.0,0.0,0.0,0.0,0.0,0.0,0.0,0.0,0.0,0.0,0.0,0.0,0.0,0.0,0.0,0.0,0.0,0.0,0.0,0.0,0.0,0.0,0.0,0.0,0.0,0.0,0.0,0.0,0.0,0.0,0.0,0.0,0.0,0.0,0.0,0.0,0.0,0.0,0.0,0.0,0.0,0.0,0.0,0.0,0.0,0.0,0.0,0.0,0.0,0.0,0.0,0.0,0.0,0.0,0.0,0.0,5.3631,5.617,5.7247,5.9556,6.0012,5.8357,5.6588,5.4068,5.0583,0.0,0.0,0.0,0.0,0.0,0.0,0.0,0.0,0.0,0.0,0.0,0.0,0.0,0.0,0.0,0.0,0.0,0.0,0.0,0.0,0.0,0.0,0.0,0.0,0.0,0.0,0.0,0.0,0.0,0.0,0.0,0.0,0.0,0.0,0.0,0.0,0.0,0.0,4.0692,4.1013,0.0,0.0,0.0,0.0,0.0,0.0,0.0,0.0,4.0113,0.0,0.0,0.0,0.0,0.0,0.0,0.0,0.0,0.0,0.0,0.0,0.0,0.0,0.0,0.0,0.0,0.0,0.0,0.0,0.0,0.0,0.0,0.0,0.0,0.0,0.0,0.0,0.0,0.0,0.0,0.0,0.0,0.0,0.0,0.0,0.0,0.0,0.0,0.0,0.0,0.0,0.0,0.0,0.0,0.0,0.0,0.0,0.0,0.0,0.0,0.0,0.0,0.0,0.0,0.0,0.0,5.0476,5.3939,5.6478,5.8088,5.9858,6.0012,5.8352,5.6626,5.4115,5.0821,0.0,0.0,0.0,0.0,0.0,0.0,0.0,0.0,0.0,0.0,0.0,0.0,0.0,0.0,0.0,0.0,0.0,0.0,0.0,0.0,0.0,0.0,0.0,0.0,0.0,0.0,0.0,0.0,0.0,0.0,0.0,0.0,0.0,0.0,0.0,0.0,0.0,0.0,0.0,4.1209,4.1369,0.0,0.0,0.0,0.0,0.0,0.0,0.0,0.0,4.0113,0.0,0.0,0.0,0.0,0.0,0.0,0.0,0.0,0.0,0.0,0.0,0.0,0.0,0.0,0.0,0.0,0.0,0.0,0.0,0.0,0.0,0.0,0.0,0.0,0.0,0.0,0.0,0.0,0.0,0.0,0.0,0.0,0.0,0.0,0.0,0.0,0.0,0.0,0.0,0.0,0.0,0.0,0.0,0.0,0.0,0.0,0.0,0.0,0.0,0.0,0.0,0.0,0.0,0.0,0.0,5.0745,5.4016,5.6549,5.828,5.9935,6.0012,5.8313,5.6626,5.4131,0.0,0.0,0.0,0.0,0.0,0.0,0.0,0.0,0.0,0.0,0.0,0.0,0.0,0.0,0.0,0.0,0.0,0.0,0.0,0.0,0.0,0.0,0.0,0.0,0.0,0.0,0.0,0.0,0.0,0.0,0.0,0.0,0.0,0.0,0.0,0.0,0.0,0.0,0.0,0.0,4.1843,4.2061,4.1674,0.0,0.0,0.0,0.0,0.0,0.0,4.0201,4.0188,0.0,0.0,0.0,0.0,0.0,0.0,0.0,0.0,0.0,0.0,0.0,0.0,0.0,0.0,0.0,0.0,0.0,0.0,0.0,0.0,0.0,0.0,0.0,0.0,0.0,0.0,0.0,0.0,0.0,0.0,0.0,0.0,0.0,0.0,0.0,0.0,0.0,0.0,0.0,0.0,0.0,0.0,0.0,0.0,0.0,0.0,0.0,0.0,0.0,0.0,0.0,0.0,0.0,0.0,0.0,5.0976,5.4093,5.6549,5.828,5.9935,6.0012,5.8352,5.6588,5.4131,0.0,0.0,0.0,0.0,0.0,0.0,0.0,0.0,0.0,0.0,0.0,0.0,0.0,0.0,0.0,0.0,0.0,0.0,0.0,0.0,0.0,0.0,0.0,0.0,0.0,0.0,0.0,0.0,0.0,0.0,0.0,0.0,0.0,0.0,0.0,0.0,0.0,0.0,0.0,0.0,0.0,4.2732,4.2108,4.2274,0.0,0.0,0.0,0.0,4.0563,4.0538,0.0,0.0,0.0,0.0,0.0,0.0,0.0,0.0,0.0,0.0,0.0,0.0,0.0,0.0,0.0,0.0,0.0,0.0,0.0,0.0,0.0,0.0,0.0,0.0,0.0,0.0,0.0,0.0,0.0,0.0,0.0,0.0,0.0,0.0,0.0,0.0,0.0,0.0,0.0,0.0,0.0,0.0,0.0,0.0,0.0,0.0,0.0,0.0,0.0,0.0,0.0,0.0,0.0,0.0,0.0,0.0,5.1769,5.4357,5.6549,5.8275,5.9935,6.0012,5.8352,5.6588,5.4131,0.0,0.0,0.0,0.0,0.0,0.0,0.0,0.0,0.0,0.0,0.0,0.0,0.0,0.0,0.0,0.0,0.0,0.0,0.0,0.0,0.0,0.0,0.0,0.0,0.0,0.0,0.0,0.0,0.0,0.0,0.0,0.0,0.0,0.0,0.0,0.0,0.0,0.0,0.0,0.0,0.0,4.2884,4.2791,4.2761,4.259,0.0,0.0,4.1576,4.1325,4.1287,0.0,0.0,0.0,0.0,0.0,0.0,0.0,0.0,0.0,0.0,0.0,0.0,0.0,0.0,0.0,0.0,0.0,0.0,0.0,0.0,0.0,0.0,0.0,0.0,0.0,0.0,0.0,0.0,0.0,0.0,0.0,0.0,0.0,0.0,0.0,0.0,0.0,0.0,0.0,0.0,0.0,0.0,0.0,0.0,0.0,0.0,0.0,0.0,0.0,0.0,0.0,0.0,0.0,0.0,0.0,5.0702,5.1967,5.4895,5.7049,5.828,5.9935,6.0012,5.8352,5.6588,5.4131,0.0,0.0,0.0,0.0,0.0,0.0,0.0,0.0,0.0,0.0,0.0,0.0,0.0,0.0,0.0,0.0,0.0,0.0,0.0,0.0,0.0,0.0,0.0,0.0,0.0,0.0,0.0,0.0,0.0,0.0,0.0,0.0,0.0,0.0,0.0,0.0,0.0,0.0,0.0,0.0,0.0,0.0,4.3703,4.4081,0.0,0.0,0.0,4.2642,4.2202,0.0,0.0,0.0,0.0,0.0,0.0,0.0,0.0,0.0,0.0,0.0,0.0,0.0,0.0,0.0,0.0,0.0,0.0,0.0,0.0,0.0,0.0,0.0,0.0,0.0,0.0,0.0,0.0,0.0,0.0,0.0,0.0,0.0,0.0,0.0,0.0,0.0,0.0,0.0,0.0,0.0,0.0,0.0,0.0,0.0,0.0,0.0,0.0,0.0,0.0,0.0,0.0,0.0,0.0,0.0,0.0,0.0,5.2274,5.5362,5.7401,5.8319,5.9935,6.0012,5.8352,5.6626,0.0,0.0,0.0,0.0,0.0,0.0,0.0,0.0,0.0,0.0,0.0,0.0,0.0,0.0,0.0,0.0,0.0,0.0,0.0,0.0,0.0,0.0,0.0,0.0,0.0,0.0,0.0,4.348,0.0,0.0,0.0,0.0,0.0,0.0,0.0,0.0,0.0,0.0,0.0,0.0,0.0,0.0,4.4492,4.4594,4.5159,4.5186,0.0,0.0,4.365,4.3104,4.3013,4.267,0.0,0.0,0.0,0.0,0.0,0.0,0.0,0.0,0.0,0.0,0.0,0.0,0.0,0.0,0.0,0.0,0.0,0.0,0.0,0.0,0.0,0.0,0.0,0.0,0.0,0.0,0.0,0.0,0.0,0.0,0.0,0.0,0.0,0.0,0.0,0.0,0.0,0.0,0.0,0.0,0.0,0.0,0.0,0.0,0.0,0.0,0.0,0.0,0.0,0.0,0.0,0.0,0.0,0.0,5.2236,5.3164,5.567,5.744,5.8313,5.9935,6.0012,5.8357,5.6626,5.4472,0.0,0.0,0.0,0.0,0.0,0.0,0.0,0.0,0.0,0.0,0.0,0.0,0.0,0.0,0.0,0.0,0.0,0.0,0.0,0.0,0.0,0.0,0.0,0.0,0.0,0.0,0.0,0.0,0.0,0.0,0.0,0.0,0.0,0.0,0.0,0.0,0.0,0.0,0.0,0.0,0.0,4.5408,4.5499,4.5648,4.5605,0.0,4.4902,4.4583,4.3918,4.3812,4.3481,4.2407,0.0,0.0,0.0,0.0,0.0,0.0,0.0,0.0,0.0,0.0,0.0,0.0,0.0,0.0,0.0,0.0,0.0,0.0,0.0,0.0,0.0,0.0,0.0,0.0,0.0,0.0,0.0,0.0,0.0,0.0,0.0,0.0,0.0,0.0,0.0,0.0,0.0,0.0,0.0,0.0,0.0,0.0,0.0,0.0,0.0,0.0,0.0,0.0,0.0,0.0,0.0,0.0,0.0,5.2851,5.3236,5.6242,5.7973,5.8352,5.9935,6.0012,5.8357,5.7126,5.5049,0.0,0.0,0.0,0.0,0.0,0.0,0.0,0.0,0.0,0.0,0.0,0.0,0.0,0.0,0.0,0.0,0.0,0.0,0.0,0.0,0.0,0.0,0.0,0.0,0.0,0.0,0.0,0.0,4.4976,4.4912,4.4821,0.0,0.0,0.0,0.0,0.0,0.0,0.0,0.0,0.0,0.0,4.5985,4.6507,4.6679,0.0,0.0,4.5698,4.5363,4.4791,4.4631,4.4285,4.3428,4.3061,0.0,0.0,0.0,0.0,0.0,0.0,0.0,0.0,0.0,0.0,0.0,0.0,0.0,0.0,0.0,0.0,0.0,0.0,0.0,0.0,0.0,0.0,0.0,0.0,0.0,0.0,0.0,0.0,0.0,0.0,0.0,0.0,0.0,0.0,0.0,0.0,0.0,0.0,0.0,0.0,0.0,0.0,0.0,0.0,0.0,0.0,0.0,0.0,0.0,0.0,0.0,0.0,5.3433,5.3933,5.6813,5.8434,5.866,6.005,6.0127,5.8704,5.7594,5.5631,0.0,0.0,0.0,0.0,0.0,0.0,0.0,0.0,0.0,0.0,0.0,0.0,0.0,0.0,0.0,0.0,0.0,0.0,0.0,0.0,0.0,0.0,0.0,0.0,0.0,0.0,0.0,0.0,4.5883,4.5856,4.5837,0.0,0.0,0.0,0.0,0.0,0.0,0.0,0.0,0.0,0.0,4.6719,4.7273,4.7557,4.7499,4.692,4.6653,4.6304,4.576,4.5415,4.491,4.415,0.0,0.0,0.0,0.0,0.0,0.0,0.0,0.0,0.0,0.0,0.0,0.0,0.0,0.0,0.0,0.0,0.0,0.0,0.0,0.0,0.0,0.0,0.0,0.0,0.0,0.0,0.0,5.8242,0.0,0.0,5.8352,0.0,0.0,0.0,0.0,0.0,0.0,0.0,0.0,0.0,0.0,0.0,0.0,0.0,0.0,0.0,0.0,0.0,0.0,0.0,0.0,0.0,0.0,5.401,5.5626,5.7396,5.866,5.9435,6.0358,6.0358,5.9473,5.7863,5.6214,5.4472,0.0,0.0,0.0,0.0,0.0,0.0,0.0,0.0,0.0,0.0,0.0,0.0,0.0,0.0,0.0,0.0,0.0,0.0,0.0,0.0,0.0,0.0,0.0,0.0,0.0,0.0,4.5966,4.592,4.5957,0.0,0.0,0.0,0.0,0.0,0.0,0.0,0.0,0.0,4.6296,4.7072,4.7678,4.7714,4.8233,4.8434,4.7927,4.7709,4.7375,4.6847,4.6131,4.5282,0.0,0.0,0.0,0.0,0.0,0.0,0.0,0.0,0.0,0.0,0.0,0.0,0.0,0.0,0.0,0.0,0.0,0.0,0.0,0.0,0.0,0.0,0.0,0.0,0.0,0.0,0.0,5.8621,5.9088,0.0,0.0,0.0,0.0,0.0,0.0,0.0,0.0,0.0,0.0,0.0,5.9935,5.9973,0.0,0.0,0.0,0.0,0.0,0.0,0.0,0.0,0.0,0.0,0.0,0.0,5.4626,5.5747,5.7434,5.8704,5.9473,6.0358,6.0396,5.9511,5.8434,5.6819,5.4554,0.0,0.0,0.0,0.0,0.0,0.0,0.0,0.0,0.0,0.0,0.0,0.0,0.0,0.0,0.0,0.0,0.0,0.0,0.0,0.0,0.0,0.0,0.0,0.0,0.0,4.7498,0.0,0.0,0.0,0.0,0.0,0.0,0.0,0.0,0.0,0.0,0.0,4.8236,4.8871,4.8873,4.8769,4.867,4.8788,4.8692,0.0,0.0,0.0,0.0,0.0,0.0,0.0,0.0,0.0,0.0,0.0,0.0,0.0,0.0,4.6178,4.5475,4.5737,4.6056,4.6056,0.0,0.0,0.0,0.0,0.0,0.0,0.0,0.0,0.0,0.0,0.0,0.0,0.0,0.0,6.0371,6.0854,6.0854,0.0,0.0,0.0,0.0,0.0,0.0,0.0,0.0,6.1127,6.1589,6.2127,6.2435,6.2397,0.0,6.155,6.0429,0.0,0.0,0.0,0.0,0.0,0.0,0.0,0.0,5.5626,5.6978,5.8127,5.9127,5.9935,6.0517,6.0556,5.9935,5.8588,5.694,5.4972,5.2741,5.1818,0.0,0.0,0.0,0.0,0.0,0.0,0.0,0.0,0.0,0.0,0.0,0.0,0.0,0.0,0.0,0.0,0.0,0.0,0.0,0.0,0.0,0.0,0.0,4.8296,0.0,0.0,0.0,0.0,0.0,0.0,0.0,0.0,0.0,4.959,4.9549,4.9831,5.0383,5.0132,4.9824,4.9659,0.0,0.0,0.0,0.0,0.0,0.0,0.0,4.8049,4.8207,4.8146,4.8236,4.8597,4.8251,4.7871,4.7734,0.0,0.0,4.6355,4.6535,4.6859,4.68,4.6989,4.7192,4.7192,4.7612,4.7951,0.0,0.0,0.0,0.0,0.0,0.0,0.0,0.0,6.324,6.3527,0.0,6.3382,0.0,0.0,0.0,0.0,6.2133,6.2133,0.0,0.0,6.4282,6.4705,6.482,6.5628,6.559,6.4782,6.4705,6.3782,6.2133,5.9704,0.0,0.0,0.0,0.0,0.0,0.0,5.7016,5.9396,5.9511,5.9973,6.0825,6.0864,6.0819,6.0666,5.8401,5.6709,5.5747,5.4164,5.328,5.3241,5.239,0.0,0.0,0.0,0.0,0.0,0.0,0.0,0.0,0.0,0.0,0.0,0.0,0.0,0.0,0.0,0.0,0.0,0.0,0.0,0.0,4.8333,0.0,0.0,0.0,0.0,0.0,0.0,0.0,0.0,0.0,0.0,5.0722,5.0686,5.068,5.0892,0.0,0.0,0.0,0.0,5.149,5.121,5.1158,5.1044,5.0725,5.0056,4.9519,4.9484,0.0,0.0,4.9157,4.8732,4.8444,4.8228,4.8557,4.836,4.7393,4.7238,4.7165,4.7081,4.7597,4.7988,4.809,4.9154,5.0015,6.9374,0.0,0.0,0.0,0.0,6.5284,6.5225,6.5159,6.5349,6.5399,6.5297,6.4674,0.0,0.0,0.0,0.0,0.0,0.0,6.432,6.5243,6.6667,6.7622,6.8244,6.8513,6.8475,6.8205,6.6974,6.5859,6.4788,6.3435,6.132,5.8434,0.0,0.0,0.0,0.0,5.8511,6.0281,6.0441,6.0825,6.1716,6.171,6.1133,5.9896,5.9165,5.8132,5.667,5.5555,5.4703,5.4164,5.3274,0.0,0.0,0.0,0.0,0.0,0.0,0.0,0.0,0.0,0.0,0.0,0.0,0.0,0.0,0.0,0.0,0.0,0.0,0.0,4.9266,4.9199,4.9407,0.0,0.0,0.0,0.0,0.0,0.0,0.0,0.0,0.0,5.2438,5.1972,5.1836,0.0,0.0,5.1615,5.1475,5.1642,5.1634,5.138,5.1796,0.0,5.1243,5.0931,5.081,5.0866,5.1268,5.1525,5.1263,5.087,5.0516,5.0312,5.0605,5.0716,5.0178,4.9716,4.9415,4.9406,4.9841,5.0254,5.0288,5.0626,5.0863,7.4609,7.1327,6.9592,6.8814,6.8717,6.858,6.8476,6.838,6.8364,6.8292,6.8161,6.7292,6.6665,6.6159,6.4902,0.0,0.0,0.0,6.6756,6.7949,6.9322,7.0266,7.0754,7.1113,7.1061,7.0708,6.9642,6.8558,6.7398,6.6513,6.4897,6.2512,0.0,0.0,5.9781,5.9781,6.0435,6.1704,6.1781,6.205,6.2557,6.2249,6.1441,6.0089,5.9704,5.8896,5.7555,5.667,5.5824,5.5016,5.4164,5.3703,0.0,0.0,0.0,0.0,0.0,0.0,0.0,0.0,0.0,0.0,0.0,5.0663,5.0076,0.0,0.0,0.0,4.9686,4.9825,5.0238,5.0132,0.0,0.0,0.0,0.0,0.0,0.0,0.0,5.2491,5.2884,5.3214,5.3177,5.2784,5.2637,5.3141,5.2774,5.2433,5.237,0.0,5.2296,5.213,5.2521,5.266,5.2064,5.1981,5.1992,5.2014,5.2358,5.2538,5.2293,5.1993,5.1699,5.1492,5.1767,5.1955,5.1646,5.1573,5.1446,5.0958,5.1088,5.1264,5.1217,5.1404,5.1641,7.9648,7.8555,7.4443,7.2539,7.2221,7.2218,7.2148,7.2015,7.2012,7.1941,7.173,7.0821,6.9809,6.8699,6.7063,0.0,6.8603,6.8764,6.9695,7.1268,7.227,7.2765,7.2867,7.3562,7.3452,7.2643,7.2447,7.1528,6.9905,6.909,6.8205,6.725,6.4249,6.2557,6.2326,6.2249,6.2595,6.3391,6.3391,6.3391,6.3391,6.2551,6.171,6.0941,6.005,5.9242,5.8434,5.7632,5.6747,5.5862,5.5093,5.4664,5.4593,0.0,0.0,0.0,0.0,0.0,0.0,0.0,0.0,0.0,0.0,0.0,0.0,0.0,0.0,5.1499,5.1332,0.0,5.123,5.1106,0.0,0.0,0.0,5.2218,5.2281,5.2931,5.3398,5.3398,0.0,0.0,5.3398,5.3398,5.3361,5.3398,5.3287,5.3214,5.3214,5.324,5.3287,5.3266,5.335,5.3366,5.3284,5.3163,5.3021,5.2824,5.2817,5.2728,5.2572,5.2374,5.2114,5.1965,5.2245,5.2559,5.2283,5.307,5.3341,5.2067,5.1759,5.1663,5.1586,5.1995,5.2401,8.3164,8.2187,7.9841,7.7684,7.5874,7.5851,7.5772,7.5723,7.5702,7.5288,7.4511,7.3553,7.2192,7.0539,7.007,7.0066,7.0529,7.1896,7.2743,7.3263,7.5398,7.6433,7.6439,7.6571,7.6186,7.533,7.4551,7.3335,7.1749,7.1426,7.0552,6.909,6.8282,6.659,6.4089,6.3358,6.3429,6.4275,6.4275,6.4275,6.4275,6.2864,6.1979,6.1787,6.0935,6.0089,5.9242,5.9011,5.8209,5.6791,5.6483,5.6093,5.5434,5.4626,0.0,0.0,0.0,0.0,0.0,0.0,0.0,0.0,0.0,5.3169,5.2323,0.0,5.1881,0.0,5.1665,5.1727,5.2261,5.2168,0.0,0.0,5.3802,5.4128,5.4678,5.4924,5.5034,5.5023,5.5034,5.5034,5.5034,5.5034,5.5034,5.4997,5.3959,5.3214,5.3214,5.3728,5.4106,5.4179,5.4583,5.5012,5.4891,5.444,5.3868,5.3213,5.3028,5.2926,5.2908,5.2683,5.2623,5.3051,5.3564,5.3976,5.4218,5.479,5.4879,5.4133,5.3546,5.3157,5.3107,5.3178,5.3213,8.5781,8.5195,8.3437,8.1912,8.0465,7.8929,7.8245,7.8221,7.8212,7.7857,7.7263,7.6237,7.4983,7.3629,7.3495,7.3659,7.4114,7.5076,7.578,7.6295,7.7683,7.8369,7.8429,7.8303,7.7992,7.7522,7.6514,7.5369,7.4063,7.3566,7.2703,7.1398,7.0629,6.9283,6.7436,6.6199,6.5814,6.6276,6.5897,6.5551,6.5166,6.3903,6.2864,6.2133,6.1633,6.0787,5.955,5.9511,5.8896,5.7665,5.7594,5.7363,5.6896,5.6434,5.6203,0.0,0.0,0.0,0.0,0.0,0.0,0.0,0.0,0.0,0.0,0.0,5.3549,5.3346,5.3462,5.3829,5.4471,5.4364,5.4508,5.5163,5.5206,5.5328,5.5647,5.5698,5.564,5.5596,5.5622,5.5622,5.5622,5.5622,5.5622,5.5585,5.4851,5.4289,5.4289,5.4693,5.4913,5.495,5.5328,5.5622,5.5622,5.5218,5.4803,5.4363,5.3905,5.3594,5.354,5.3419,5.342,5.3708,5.446,5.5127,5.5267,5.5615,5.57,5.5229,5.4679,5.4223,5.3899,5.3718,5.3601,8.7929,8.7656,8.6054,8.5312,8.5,8.1871,8.0456,8.0369,8.0369,8.019,7.9851,7.8752,7.7783,7.6944,7.6808,7.7169,7.7904,7.8036,7.8563,7.9383,7.9509,7.9605,7.9636,7.9505,7.9412,7.9236,7.8367,7.746,7.6527,7.5599,7.47,7.3783,7.2206,7.1321,7.1168,6.9776,6.8853,6.8391,6.7628,6.6865,6.6058,6.5205,6.4012,6.2518,6.221,6.1402,5.9896,5.9742,5.9281,5.8506,5.8473,5.839,5.8313,5.8275,5.8275,0.0,5.8275,0.0,0.0,0.0,0.0,0.0,0.0,0.0,0.0,5.6078,5.552,5.5382,5.586,5.6377,5.6833,5.6731,5.6575,5.6327,5.6304,5.6239,5.6155,5.6101,5.6047,5.5926,5.5915,5.5915,5.5952,5.5915,5.5915,5.6025,5.5952,5.5915,5.5879,5.5842,5.5768,5.5768,5.5842,5.6062,5.5879,5.5768,5.5695,5.5548,5.4987,5.4503,5.4415,5.4356,5.4352,5.4366,5.5208,5.5945,5.58,5.6045,5.6104,5.5807,5.5383,5.49,5.4255,5.3931,5.3733,9.0195,8.9453,8.8437,8.7617,8.6914,8.5546,8.4569,8.3901,8.394,8.3102,8.1637,8.0677,7.9731,7.8882,7.8788,7.8846,7.9053,7.9785,8.0248,8.0457,8.1187,8.1537,8.1469,8.1423,8.1014,8.0315,7.9958,7.9266,7.8291,7.7354,7.644,7.5515,7.4476,7.3661,7.3007,0.0,0.0,0.0,6.8237,6.7744,6.6865,6.6096,6.5166,6.4128,6.2787,0.0,6.1595,6.0935,6.0171,5.9358,5.9281,0.0,0.0,0.0,0.0,0.0,0.0,0.0,0.0,0.0,0.0,0.0,5.8708,5.8673,5.7999,5.7666,5.7436,5.7343,5.7325,5.7256,5.7203,5.7071,5.7128,5.7434,5.7372,5.7452,5.7776,5.7766,5.7703,5.7579,5.7519,5.7519,5.7483,5.7567,5.7519,5.7446,5.7531,5.7556,5.7483,5.6932,5.6602,5.659,5.7042,5.7226,5.6664,5.6565,5.6345,5.5768,5.5511,5.5354,5.5321,5.5321,5.557,5.5887,5.6316,5.6587,5.6826,5.685,5.6657,5.614,5.5872,5.5452,5.4605,5.4237,5.4044,9.1679,9.1172,8.9883,8.9101,0.0,8.8281,8.7812,8.7304,8.5624,8.4367,8.3478,8.2966,8.2209,8.137,8.1351,8.1072,8.0682,8.1196,8.1418,8.147,8.1938,8.2125,8.2106,8.2046,8.1749,8.1294,8.0704,8.0074,7.9443,7.8495,7.7747,7.7215,7.6399,7.5784,7.5361,7.4507,7.3046,7.093,7.0084,6.9436,6.8936,6.7744,6.6551,6.5282,6.4442,0.0,0.0,0.0,0.0,0.0,0.0,0.0,0.0,0.0,0.0,5.955,5.9511,5.9511,5.955,5.955,5.955,5.955,5.9935,5.9769,5.8927,5.8797,5.8698,5.8662,5.8526,5.853,5.8722,5.862,5.8577,5.866,5.8559,5.8487,5.8545,5.8417,5.8279,5.8122,5.8042,5.7997,5.7997,5.7997,5.7997,5.7997,5.7997,5.7997,5.796,5.7666,5.7409,5.7409,5.7703,5.785,5.7519,5.7409,5.7299,5.687,5.6455,5.6198,5.6198,5.6198,5.6322,5.6658,5.693,5.7289,5.7413,5.7276,5.6984,5.6644,5.6374,5.6028,5.5319,5.4803,5.4397,9.3047,9.289,9.1328,9.0586,9.0469,9.0312,9.0117,8.9804,0.0,0.0,0.0,8.504,8.4462,8.3658,8.364,8.3172,8.2368,8.239,8.2289,8.2223,8.2207,8.2234,8.2189,8.2162,8.2059,8.1966,8.1147,8.0621,8.0394,7.9391,7.8861,7.8646,7.7907,7.7522,7.7407,7.6092,7.5053,7.4315,7.236,7.1283,7.1091,6.9622,6.8129,6.6596,6.6288,6.5359,6.3814,6.298,6.248,6.2326,6.1633,6.1243,6.1243,6.1243,6.1166,6.1018,6.1056,6.1018,6.1018,6.1018,6.1089,6.1204,6.1243,6.0819,5.9819,5.9742,5.9681,5.9654,5.9593,5.9747,6.0192,6.0129,5.9982,5.9673,5.9472,5.9215,5.8885,5.865,5.8454,5.8223,5.8088,5.802,5.8008,5.7997,5.7997,5.7997,5.7997,5.7997,5.7997,5.796,5.7923,5.7923,5.796,5.796,5.796,5.796,5.7997,5.785,5.7373,5.7042,5.6994,5.6994,5.7005,5.7068,5.7464,5.7736,5.7762,5.7522,5.7251,5.7087,5.6855,5.6564,5.6126,5.5446,5.4911,9.4844,9.4726,9.375,9.2929,9.2187,9.1445,9.0703,8.9883,8.8672,8.7734,8.6988,8.6322,8.5492,8.4613,8.4662,8.4192,8.3323,8.3336,8.2991,8.2289,8.2276,8.2263,8.2209,8.2166,8.2101,8.1966,8.1723,8.1506,8.1251,8.0318,7.9741,7.9531,7.8754,7.833,7.833,7.8061,7.7907,7.7753,7.4707,7.2783,7.2014,7.1052,7.0129,6.9167,6.7705,6.6519,6.5596,6.4705,6.3897,6.316,6.3006,6.2968,6.2929,6.2929,6.2621,6.1979,6.1903,6.1903,6.1903,6.1903,6.221,6.2852,6.2968,6.2281,6.0781,6.0627,6.0565,6.0511,6.0564,6.0463,6.0466,6.0453,6.0341,6.0028,5.9727,5.9429,5.9146,5.8896,5.8672,5.8393,5.8167,5.8184,5.8166,5.8107,5.8143,5.8033,5.8143,5.8033,5.807,5.7997,5.7997,5.7997,5.7997,5.7997,5.7997,5.7997,5.7997,5.7997,5.7886,5.774,5.7703,5.774,5.774,5.7776,5.7863,5.7927,5.7845,5.7786,5.7619,5.7375,5.7201,5.6984,5.6684,5.6188,5.57,9.5898,9.582,9.4961,9.4375,9.3945,9.3086,9.25,9.1992,9.0703,8.9609,8.8749,8.7927,8.7064,8.62,8.5773,8.5109,8.4247,8.4292,8.4099,8.3708,8.3698,8.3689,8.368,8.3631,8.3521,8.3399,8.3256,8.3118,8.2836,8.1921,8.135,8.1162,8.0308,7.9669,7.9246,7.9208,7.8977,7.8446,7.6092,7.4668,7.4245,7.2976,7.1898,7.1091,6.9821,6.8783,6.7975,6.6667,6.5551,6.4743,6.4275,6.3775,6.3352,6.3314,6.3121,6.2781,6.2743,6.2743,6.2743,6.2743,6.2897,6.3275,6.3314,6.2968,6.2198,6.2166,6.2154,6.2124,6.2124,6.2087,6.1946,6.1878,6.176,6.1575,6.1294,6.0989,6.0708,6.0389,6.0099,5.9764,5.9595,5.9433,5.9305,5.9318,5.9318,5.9281,5.8988,5.8657,5.8657,5.829,5.7997,5.7997,5.7997,5.7997,5.7997,5.7997,5.7997,5.7997,5.7997,5.7997,5.7997,5.7997,5.7997,5.7997,5.7997,5.7985,5.7916,5.7857,5.7763,5.7679,5.7498,5.7313,5.7049,5.6671,5.6098,9.6758,9.6679,9.5859,9.539,9.5156,9.4492,9.4101,9.375,9.2461,9.1406,9.0508,8.9452,8.8514,8.7654,8.7029,8.6209,8.5272,8.5195,8.5078,8.4922,8.4916,8.4909,8.4904,8.4812,8.4741,8.4588,8.447,8.4293,8.4034,8.3248,8.2784,8.2578,8.1816,8.1016,8.04,8.0208,7.9746,7.9023,7.763,7.6784,7.6515,7.4938,7.3745,7.3053,7.2052,7.1014,6.9975,6.8667,6.7475,6.6513,6.582,6.516,6.4506,6.4275,6.4089,6.3891,6.3705,6.3583,6.3622,6.3775,6.3891,6.3891,6.3891,6.3891,6.3891,6.3891,6.3698,6.3391,6.3237,6.3212,6.3124,6.3059,6.3027,6.2928,6.2657,6.2248,6.2086,6.1749,6.1405,6.1041,6.0794,6.0572,6.0467,6.0407,6.0346,6.0199,5.9857,5.949,5.9416,5.8902,5.8547,5.8253,5.8143,5.7997,5.7997,5.7997,5.7997,5.7997,5.7997,5.7997,5.7997,5.7997,5.7997,5.7997,5.7997,5.7997,5.7997,5.7927,5.7869,5.7834,5.7739,5.7547,5.7276,5.6972,5.6442,9.7578,9.7461,9.6679,9.5898,9.5273,9.5117,9.4648,9.3984,9.3711,9.3164,9.2187,9.0625,8.9453,8.8672,8.8476,8.7578,8.6211,8.6094,8.5742,8.5078,8.4916,8.4909,8.5062,8.4929,8.4738,8.4705,8.4626,8.4526,8.4311,8.3866,8.3602,8.3394,8.2639,8.217,8.1977,8.1362,8.0939,8.0862,7.9939,7.9054,7.8215,7.663,7.5707,7.5668,7.4091,7.2469,7.0975,7.0629,6.9821,6.8353,6.8084,6.8007,6.7814,6.7167,6.6404,6.5705,6.4936,6.4474,6.4551,6.5205,6.5667,6.5673,6.5667,6.5667,6.5673,6.5667,6.4974,6.3891,6.3391,6.3423,6.3302,6.3316,6.3295,6.3236,6.2933,6.2474,6.2244,6.1807,6.144,6.1067,6.1047,6.069,6.0651,6.0591,6.0529,6.0676,6.0444,6.0297,6.026,6.0077,5.9722,5.9123,5.8535,5.8107,5.8033,5.7997,5.7997,5.7997,5.7997,5.7997,5.7997,5.7997,5.7997,5.7997,5.7997,5.7997,5.7997,5.7985,5.7973,5.7939,5.7857,5.7715,5.7437,5.7239,5.6816,9.8164,9.7656,9.7344,9.6992,9.664,9.6172,9.5781,9.5429,9.4883,9.4179,9.3359,9.2617,9.1523,9.0234,8.9687,8.9062,8.8476,8.8437,8.8281,8.7929,8.7926,8.7921,8.7913,8.7828,8.776,8.7592,8.7003,8.6604,8.6252,8.5207,8.4257,8.3656,8.3216,8.3062,8.3016,8.2747,8.2593,8.2562,8.1708,8.1093,8.0562,7.8592,7.7253,7.6707,7.5592,7.4437,7.3238,7.2699,7.1892,7.0744,7.0167,6.9667,6.9206,6.8359,6.7744,6.7391,6.7051,6.6853,6.6853,6.7205,6.7359,6.7359,6.7398,6.7398,6.7398,6.7359,6.7045,6.6391,6.5436,6.482,6.4852,6.4763,6.4678,6.4562,6.4321,6.4055,6.3786,6.3398,6.2963,6.2599,6.235,6.214,6.1875,6.1802,6.1802,6.1728,6.1447,6.1117,6.108,6.0713,6.0309,5.9979,5.9612,5.8988,5.829,5.7997,5.7997,5.7997,5.7997,5.7997,5.7997,5.7997,5.7997,5.7997,5.7997,5.7997,5.7997,5.7997,5.7997,5.7973,5.7904,5.7775,5.7643,5.7522,5.7201,9.8476,9.7773,9.7695,9.7695,9.7656,9.707,9.6719,9.6445,9.582,9.5078,9.4297,9.4258,9.3594,9.2304,9.0976,9.0234,9.0,9.0,9.0,9.0,8.9998,8.9993,8.9983,8.9943,8.9876,8.9692,8.8909,8.8451,8.8178,8.6932,8.5645,8.478,8.4409,8.417,8.3947,8.3755,8.3601,8.3524,8.2947,8.2639,8.237,8.06,7.9061,7.8015,7.713,7.6169,7.5084,7.4507,7.3668,7.2591,7.1937,7.136,7.0783,6.993,6.9237,6.8814,6.8776,6.8622,6.843,6.8391,6.8391,6.8391,6.8391,6.8391,6.8391,6.8391,6.8391,6.8237,6.7282,6.659,6.6583,6.6544,6.6471,6.6298,6.6139,6.5904,6.5588,6.5142,6.471,6.4313,6.4039,6.3677,6.3271,6.3123,6.305,6.2683,6.2254,6.1924,6.1887,6.1447,6.1043,6.0786,6.0713,6.0162,5.8951,5.851,5.84,5.8253,5.8253,5.7997,5.7997,5.7997,5.7997,5.7997,5.7997,5.7997,5.7997,5.7997,5.7997,5.7985,5.7927,5.7857,5.7845,5.7751,5.7583,9.8476,9.7734,9.7695,9.7695,9.7695,9.7617,9.7226,9.6601,9.6445,9.5976,9.5195,9.5156,9.5078,9.4726,9.2422,9.082,9.0156,9.0156,9.0156,9.0156,9.0115,9.0032,8.9983,8.9943,8.9913,9.0007,8.9648,8.9219,8.8837,8.8706,8.8228,8.7226,8.6363,8.5632,8.4978,8.4294,8.3678,8.387,8.3717,8.3563,8.3447,8.2554,8.1285,7.9862,7.8823,7.7599,7.6207,7.5938,7.5168,7.3546,7.3469,7.3353,7.3238,7.2437,7.1245,6.9975,6.9706,6.9353,6.8737,6.8699,6.866,6.8545,6.8699,6.8507,6.866,6.8622,6.866,6.8468,6.8468,6.8314,6.8276,6.8038,6.7978,6.7892,6.7806,6.7477,6.7161,6.6575,6.6368,6.5849,6.5483,6.4955,6.4128,6.4066,6.3723,6.3196,6.2829,6.2756,6.2719,6.2683,6.2242,6.1741,6.1484,6.1263,6.0407,5.96,5.9196,5.9013,5.8657,5.8107,5.7997,5.7997,5.7997,5.7997,5.7997,5.7997,5.7997,5.7997,5.7997,5.7997,5.7997,5.7962,5.7939,5.7869,5.7726,9.8984,9.7695,9.7695,9.7695,9.7695,9.7695,9.7539,9.7265,9.7265,9.6797,9.6133,9.6054,9.5703,9.5117,9.4219,9.332,9.25,9.1953,9.164,9.1679,9.1678,9.1673,9.1663,9.1585,9.1515,9.129,9.0654,8.9827,8.8968,8.8837,8.8634,8.8273,8.7948,8.7594,8.7325,8.7025,8.6602,8.6055,8.5517,8.4939,8.4401,8.3593,8.2793,8.217,8.0323,7.8784,7.763,7.7592,7.7284,7.6707,7.5707,7.513,7.4976,7.3783,7.2783,7.2238,7.2122,7.1968,7.1699,7.1661,7.1392,7.0898,7.0821,7.0514,7.0129,6.9975,7.0014,7.0014,7.0014,7.0014,6.9783,6.9045,6.8338,6.8199,6.8036,6.7807,6.736,6.6952,6.6518,6.6061,6.5706,6.5257,6.5046,6.4861,6.4751,6.4407,6.398,6.3686,6.3539,6.3196,6.2756,6.2462,6.2352,6.2279,6.2059,6.0737,5.993,5.9747,5.9416,5.8976,5.8756,5.8364,5.8253,5.818,5.8107,5.807,5.807,5.7997,5.7997,5.7997,5.7997,5.7997,5.7997,5.7939,5.7881,9.9179,9.8164,9.7812,9.7695,9.7695,9.7695,9.7695,9.7695,9.7695,9.7383,9.6953,9.6875,9.6562,9.6015,9.5742,9.5312,9.4648,9.3867,9.3437,9.3437,9.3436,9.3429,9.3414,9.333,9.3209,9.2997,9.2314,9.1399,9.0582,9.0193,8.9833,8.9526,8.9248,8.894,8.8756,8.8679,8.8372,8.7748,8.7248,8.6555,8.5709,8.4863,8.4247,8.3793,8.2054,8.0477,7.9408,7.9054,7.8754,7.8407,7.7407,7.6707,7.6361,7.5361,7.4476,7.3969,7.3853,7.3738,7.3546,7.3507,7.3238,7.2706,7.2591,7.2322,7.1783,7.1745,7.1745,7.1738,7.1738,7.1745,7.1552,7.0738,6.976,6.9196,6.8847,6.8523,6.8156,6.7781,6.7347,6.6835,6.6442,6.6075,6.5742,6.5705,6.5558,6.5362,6.4787,6.453,6.4383,6.4053,6.3453,6.3282,6.3233,6.3062,6.2719,6.1765,6.0994,6.0737,6.0114,5.9747,5.9453,5.8988,5.8621,5.8437,5.8327,5.8217,5.8107,5.8033,5.7997,5.7997,5.7997,5.7997,5.7997,5.7997,5.795,9.9062,9.8828,9.8086,9.7734,9.7695,9.7695,9.7695,9.7695,9.7695,9.7656,9.7539,9.7617,9.75,9.7422,9.6758,9.6484,9.625,9.5547,9.5078,9.4961,9.4958,9.4947,9.4885,9.4746,9.4595,9.4416,9.424,9.3963,9.3513,9.2682,9.1942,9.118,9.0479,8.994,8.891,8.9141,8.891,8.8756,8.8641,8.8171,8.744,8.6555,8.5786,8.5016,8.4016,8.2793,8.1246,8.0362,7.9592,7.8869,7.8554,7.8099,7.7407,7.7138,7.6515,7.52,7.4815,7.4392,7.3815,7.3738,7.3776,7.3507,7.3507,7.343,7.3199,7.3199,7.3238,7.3161,7.3238,7.3315,7.3276,7.3084,7.2335,7.0999,7.037,7.0078,6.9673,6.9354,6.8863,6.8074,6.7629,6.731,6.6733,6.6512,6.6292,6.5778,6.5435,6.5325,6.5251,6.5068,6.4811,6.4347,6.4053,6.387,6.3343,6.2756,6.2242,6.1741,6.097,6.0419,6.0297,5.9979,5.9538,5.9306,5.8902,5.8756,5.84,5.829,5.7997,5.7997,5.7997,5.7997,5.7997,5.7997,5.7997,10.0117,9.9023,9.8711,9.8242,9.7734,9.7695,9.7695,9.7695,9.7695,9.7695,9.7695,9.7695,9.7695,9.7656,9.7422,9.7304,9.7304,9.6992,9.6328,9.5388,9.5182,9.516,9.5081,9.4964,9.4764,9.4496,9.4255,9.4056,9.391,9.3538,9.316,9.2911,9.2633,9.2402,9.1979,9.1595,9.1095,9.0402,8.9825,8.9133,8.8363,8.8025,8.7478,8.6632,8.5786,8.4786,8.3747,8.2324,8.1439,8.1054,8.0015,7.9015,7.833,7.8138,7.7869,7.7369,7.6784,7.6438,7.6092,7.5515,7.4976,7.4514,7.4353,7.4007,7.3584,7.3546,7.3546,7.3546,7.3507,7.3507,7.3507,7.3507,7.2981,7.1727,7.1403,7.0887,6.9986,6.9214,6.8601,6.8171,6.7873,6.7567,6.7407,6.7297,6.715,6.6893,6.6439,6.6145,6.6072,6.5729,6.5288,6.4934,6.4811,6.464,6.4004,6.36,6.3233,6.2585,6.1777,6.1263,6.1153,6.0958,6.0554,6.004,5.9636,5.9159,5.8792,5.851,5.8253,5.7997,5.7997,5.7997,5.7997,5.7997,5.7997,10.0976,9.9922,9.9258,9.8711,9.8164,9.7851,9.7695,9.7695,9.7695,9.7695,9.7695,9.7695,9.7695,9.7695,9.7695,9.7695,9.7695,9.7695,9.7146,9.6242,9.6071,9.6039,9.5895,9.5724,9.5511,9.5312,9.5061,9.4924,9.4784,9.4418,9.4181,9.4181,9.3864,9.3633,9.3672,9.321,9.2633,9.2056,9.1287,9.0479,8.9748,8.9286,8.8748,8.794,8.7363,8.6671,8.5824,8.4439,8.3401,8.2708,8.1439,8.0246,7.9131,7.8977,7.883,7.8446,7.8061,7.7715,7.7676,7.7207,7.6707,7.6207,7.5861,7.5515,7.4976,7.4707,7.443,7.443,7.4469,7.4437,7.443,7.4437,7.398,7.3062,7.2436,7.1694,7.0634,6.9581,6.8915,6.8564,6.8057,6.7777,6.77,6.77,6.77,6.759,6.726,6.693,6.6843,6.6549,6.6182,6.5888,6.5742,6.5338,6.4714,6.4383,6.4163,6.3429,6.2585,6.2254,6.2022,6.1838,6.1508,6.086,6.0334,5.96,5.9196,5.8866,5.8584,5.8327,5.807,5.7997,5.7997,5.7997,5.7997,10.164,10.1406,9.9844,9.9179,9.8984,9.8281,9.8047,9.7929,9.7969,9.8008,9.7969,9.7929,9.7851,9.7812,9.7773,9.7695,9.7695,9.7693,9.7649,9.7522,9.7464,9.7344,9.7155,9.6825,9.6585,9.6505,9.6308,9.6257,9.6059,9.541,9.5066,9.5027,9.4403,9.3903,9.4057,9.3835,9.3749,9.3557,9.2903,9.2056,9.1325,9.0663,8.9787,8.8979,8.8872,8.8363,8.7363,8.6401,8.5209,8.3755,8.267,8.1554,8.0323,7.9931,7.9669,7.8946,7.8677,7.86,7.8561,7.833,7.8215,7.8061,7.7561,7.7369,7.7061,7.6361,7.5899,7.5938,7.5822,7.5822,7.5822,7.5784,7.5356,7.4619,7.3365,7.2367,7.1712,7.0492,6.9769,6.9279,6.8489,6.7811,6.7921,6.7884,6.7811,6.7664,6.7627,6.7554,6.7517,6.7297,6.7223,6.6966,6.6586,6.6109,6.5521,6.5338,6.5044,6.4273,6.3429,6.2952,6.2609,6.2389,6.2316,6.1655,6.1006,6.0224,5.9673,5.9416,5.8939,5.8547,5.829,5.807,5.7997,5.7997,5.7997,10.2187,10.1562,10.1094,10.0547,10.0,9.9687,9.9609,9.9609,9.957,9.9492,9.9492,9.8945,9.8672,9.8594,9.8008,9.7695,9.7812,9.7771,9.7684,9.7702,9.7581,9.7477,9.7303,9.7061,9.6849,9.6684,9.6574,9.6367,9.6295,9.6075,9.5942,9.5942,9.5634,9.5557,9.5557,9.4951,9.4681,9.4527,9.3835,9.3326,9.3056,9.2749,9.1979,9.0671,9.0556,8.9787,8.8487,8.7517,8.594,8.3832,8.3409,8.2785,8.1747,8.1593,8.1208,8.0439,7.9823,7.9438,7.9361,7.8907,7.8561,7.8484,7.8369,7.8176,7.8176,7.7445,7.7022,7.6861,7.6438,7.6053,7.6015,7.6053,7.5756,7.5173,7.3774,7.2441,7.1863,7.116,7.0599,7.0204,6.9794,6.9241,6.8742,6.8568,6.8385,6.7994,6.7847,6.7847,6.8031,6.7811,6.77,6.759,6.7297,6.688,6.6512,6.6292,6.5888,6.5118,6.431,6.3466,6.305,6.2683,6.2646,6.2426,6.1777,6.1043,6.0517,6.0162,5.9538,5.8976,5.8474,5.8253,5.807,5.7997,5.7997,10.2929,10.2109,10.1758,10.1328,10.082,10.0469,10.0312,10.0312,10.0312,10.0312,10.0195,9.9804,9.957,9.9492,9.9023,9.8789,9.8788,9.8784,9.881,9.8734,9.8633,9.8082,9.7399,9.6946,9.6885,9.7107,9.693,9.6852,9.6836,9.6788,9.6634,9.6326,9.6288,9.6288,9.6211,9.5865,9.5518,9.5365,9.472,9.4258,9.4258,9.3864,9.3287,9.2402,9.221,9.1441,8.9863,8.8594,8.6901,8.5102,8.4324,8.3747,8.2986,8.2824,8.2439,8.167,8.1093,8.0746,8.0323,7.9823,7.9638,7.9523,7.9323,7.9054,7.89,7.8292,7.7792,7.7753,7.7284,7.7092,7.6969,7.6716,7.6401,7.5999,7.4531,7.3348,7.2907,7.2188,7.1579,7.1111,7.0612,7.0128,6.9463,6.9412,6.9155,6.8875,6.8862,6.8825,6.8788,6.8435,6.8214,6.8214,6.7884,6.7407,6.7173,6.7026,6.6512,6.5815,6.5118,6.4273,6.349,6.3013,6.2793,6.2683,6.2328,6.1924,6.1337,6.086,6.0419,5.9795,5.9024,5.8572,5.851,5.818,5.8143,10.375,10.2969,10.2109,10.1719,10.1601,10.0937,10.0742,10.0625,10.0742,10.0742,10.0664,10.0508,10.0429,10.039,10.0117,10.0233,10.0191,9.9985,10.0034,9.9885,9.9651,9.8919,9.7696,9.7376,9.7487,9.7817,9.7718,9.7653,9.7634,9.7634,9.7288,9.6903,9.6634,9.648,9.6519,9.6326,9.6288,9.6095,9.5518,9.5143,9.5027,9.4604,9.4095,9.3749,9.3441,9.271,9.1248,8.9825,8.8256,8.6594,8.5632,8.4824,8.4063,8.387,8.3285,8.2631,8.2324,8.2016,8.14,8.117,8.1054,8.0823,8.0246,7.9939,7.9785,7.9131,7.8631,7.8631,7.8561,7.8292,7.8169,7.7678,7.7261,7.6897,7.5908,7.514,7.453,7.3487,7.2497,7.2092,7.1145,7.0611,7.0275,7.022,7.0146,6.9522,6.9559,6.9522,6.9449,6.9242,6.9082,6.9009,6.8531,6.7921,6.7811,6.7687,6.71,6.6439,6.5888,6.5081,6.4004,6.3453,6.305,6.2756,6.2511,6.2254,6.1924,6.152,6.1117,6.0639,5.9869,5.9526,5.9269,5.8719,5.8474,10.4101,10.3867,10.3008,10.2617,10.2578,10.2422,10.2304,10.2265,10.2304,10.2187,10.2148,10.1601,10.1367,10.1289,10.0741,10.0309,10.0461,10.0395,10.0136,10.0017,9.9778,9.9461,9.8908,9.8718,9.8665,9.8712,9.8585,9.8519,9.8519,9.8519,9.8442,9.8173,9.748,9.7211,9.7134,9.6634,9.6288,9.6249,9.6057,9.5942,9.5903,9.5749,9.5288,9.4749,9.4095,9.3287,9.2287,9.121,9.0171,8.9009,8.7748,8.6594,8.5709,8.5016,8.4286,8.3632,8.3332,8.2947,8.2247,8.1977,8.1747,8.1208,8.0939,8.0823,8.0785,8.0015,7.9554,7.94,7.8938,7.8715,7.8669,7.8331,7.8083,7.779,7.6961,7.6132,7.5601,7.4497,7.3429,7.2899,7.2496,7.207,7.1216,7.1064,7.0807,7.0293,7.0183,7.0146,7.011,7.0036,6.9926,6.9839,6.9229,6.8605,6.8201,6.8017,6.7444,6.704,6.6549,6.5962,6.4884,6.4187,6.3906,6.3392,6.2793,6.2548,6.2291,6.1961,6.152,6.1117,6.075,6.0419,5.9979,5.9355,5.8939,10.4922,10.4179,10.3711,10.3281,10.2929,10.289,10.289,10.289,10.289,10.289,10.2812,10.2383,10.2226,10.2186,10.1755,10.1554,10.1452,10.1353,10.1285,10.117,10.0934,10.0728,10.0473,10.03,10.0072,9.9621,9.9451,9.9413,9.9413,9.9375,9.9183,9.8827,9.8327,9.7827,9.7557,9.7057,9.6673,9.6365,9.6288,9.6288,9.6288,9.6288,9.6172,9.5557,9.4788,9.4066,9.3681,9.2864,9.1979,9.1056,8.9863,8.8594,8.7401,8.6517,8.567,8.4939,8.4362,8.3824,8.3131,8.2516,8.2093,8.1708,8.1362,8.1131,8.1054,8.0631,8.0477,8.0323,8.0054,7.9746,7.9708,7.9215,7.906,7.873,7.7955,7.7198,7.6589,7.5197,7.3887,7.34,7.3047,7.2618,7.2203,7.209,7.1872,7.1541,7.1468,7.1431,7.1248,7.1138,7.077,7.0499,6.9889,6.9339,6.8788,6.8274,6.7664,6.7407,6.7223,6.6659,6.5888,6.5338,6.4861,6.4127,6.3306,6.2829,6.2585,6.2254,6.2108,6.1924,6.163,6.1227,6.075,6.0236,5.9893,10.5781,10.4374,10.4257,10.3672,10.2968,10.289,10.289,10.289,10.2929,10.289,10.289,10.2929,10.2771,10.2806,10.2803,10.2784,10.2641,10.2493,10.2161,10.2104,10.1905,10.1683,10.15,10.132,10.1004,10.0411,10.0298,10.0298,10.025,10.026,9.9981,9.9327,9.9067,9.875,9.8096,9.7711,9.7326,9.6711,9.6634,9.6442,9.6326,9.6288,9.6249,9.6057,9.5595,9.5027,9.4681,9.4104,9.3489,9.271,9.1979,9.0825,8.9479,8.8094,8.7325,8.6478,8.5824,8.5016,8.417,8.3362,8.2785,8.2516,8.1747,8.1362,8.1323,8.1131,8.0977,8.0977,8.0862,8.0862,8.1016,8.0431,7.9937,7.9577,7.8854,7.8195,7.747,7.5831,7.4812,7.4175,7.4087,7.3766,7.342,7.3213,7.3031,7.2826,7.2753,7.2606,7.2422,7.2078,7.1688,7.127,7.0734,7.0,6.9449,6.8752,6.8104,6.7921,6.7811,6.7297,6.6733,6.6182,6.5521,6.4567,6.3833,6.3392,6.3013,6.2719,6.2646,6.2683,6.2426,6.1924,6.1484,6.108,6.0823,10.6121,10.5145,10.4403,10.366,10.2996,10.2919,10.2919,10.2918,10.2918,10.2918,10.2918,10.2918,10.2874,10.2823,10.2808,10.2756,10.261,10.2464,10.2344,10.2243,10.2078,10.1843,10.1705,10.1588,10.1307,10.1222,10.1058,10.0981,10.1019,10.1058,10.0817,10.0673,10.0173,9.9721,9.9375,9.8981,9.8173,9.7442,9.7288,9.7057,9.6557,9.6326,9.6288,9.6288,9.6019,9.5672,9.5181,9.4874,9.4373,9.3595,9.3364,9.271,9.1518,8.9718,8.8641,8.8017,8.7325,8.644,8.5593,8.4863,8.4132,8.3439,8.2593,8.217,8.1977,8.1516,8.1246,8.1093,8.1093,8.1093,8.1093,8.0862,8.0815,8.0441,7.9838,7.9061,7.8512,7.7575,7.6444,7.5969,7.5576,7.5018,7.4561,7.4276,7.4124,7.3882,7.3706,7.3442,7.312,7.2789,7.2349,7.1982,7.16,7.0844,7.0073,6.9376,6.8715,6.8531,6.8348,6.7884,6.737,6.6806,6.6109,6.5448,6.4677,6.4053,6.3686,6.3343,6.3086,6.305,6.2829,6.2572,6.2169,6.1765,6.1594,10.6853,10.5999,10.514,10.4317,10.3531,10.3022,10.2861,10.2855,10.2854,10.2854,10.2854,10.2854,10.2839,10.2774,10.2758,10.2644,10.2491,10.2328,10.2195,10.2066,10.1942,10.1785,10.1641,10.1555,10.1423,10.1308,10.1279,10.1279,10.1279,10.1279,10.1279,10.1202,10.0866,10.0519,10.0144,9.9644,9.8981,9.8365,9.8134,9.7788,9.6942,9.6596,9.6326,9.6326,9.6326,9.6057,9.5826,9.5672,9.5249,9.4566,9.4373,9.3903,9.2911,9.1719,9.0248,8.944,8.8556,8.7671,8.6824,8.5978,8.5132,8.4324,8.3478,8.3024,8.2793,8.2293,8.1593,8.1246,8.1093,8.1093,8.1093,8.1093,8.1015,8.0849,8.0388,8.0022,7.9629,7.9018,7.8408,7.7659,7.6618,7.5907,7.5449,7.524,7.5203,7.4977,7.4698,7.436,7.3971,7.3516,7.3126,7.2422,7.2004,7.1417,7.0697,7.0073,6.9559,6.9339,6.8935,6.8508,6.8104,6.7614,6.721,6.6769,6.5938,6.4947,6.4457,6.415,6.3796,6.3392,6.3099,6.2829,6.2719,6.2499,6.2218,10.745,10.6604,10.5904,10.5037,10.4046,10.3341,10.2898,10.2763,10.2758,10.2758,10.2761,10.2756,10.2727,10.2637,10.2588,10.2508,10.2305,10.2209,10.2025,10.1896,10.1811,10.1676,10.1582,10.1442,10.1395,10.1299,10.1279,10.1279,10.1279,10.1279,10.1279,10.1279,10.1279,10.1019,10.0481,10.0366,9.9788,9.9336,9.9058,9.8596,9.7788,9.7173,9.6788,9.6702,9.6634,9.6596,9.6519,9.6249,9.5942,9.5451,9.5181,9.4864,9.4027,9.3326,9.2287,9.0825,8.9633,8.8632,8.7979,8.7171,8.6401,8.5593,8.4632,8.4178,8.364,8.3101,8.2324,8.1747,8.14,8.14,8.1439,8.1208,8.1061,8.0967,8.0877,8.0711,8.0456,8.0067,7.974,7.8817,7.7551,7.6953,7.6718,7.6514,7.6531,7.6175,7.5896,7.5403,7.4992,7.4375,7.3831,7.2928,7.2349,7.1894,7.1307,7.0844,7.0477,7.0293,6.9743,6.9192,6.8825,6.8458,6.8128,6.7724,6.688,6.5962,6.5485,6.4971,6.4567,6.409,6.3503,6.3246,6.3282,6.2976,6.2572,10.7327,10.6557,10.6464,10.5483,10.409,10.3814,10.3326,10.2709,10.2666,10.2627,10.2627,10.2624,10.2542,10.2411,10.2312,10.2201,10.208,10.1993,10.1936,10.1862,10.1766,10.1745,10.1576,10.1376,10.1626,10.1664,10.151,10.1279,10.1471,10.1471,10.1279,10.1279,10.1279,10.1212,10.101,10.0981,10.0712,10.0058,9.9913,9.949,9.875,9.8442,9.8365,9.8173,9.775,9.7365,9.7288,9.6903,9.6403,9.6249,9.6134,9.5711,9.4989,9.4797,9.422,9.2903,9.1325,8.9701,8.9432,8.8709,8.7863,8.7017,8.6247,8.5517,8.4747,8.3978,8.3362,8.3332,8.2631,8.217,8.2054,8.1593,8.1239,8.1122,8.1135,8.0937,8.0732,8.0496,8.0267,7.9989,7.8753,7.8524,7.8328,7.8112,7.7882,7.7481,7.7043,7.6505,7.5888,7.5211,7.4639,7.3772,7.3031,7.2539,7.2129,7.1615,7.1321,7.1174,7.0587,6.9963,6.9669,6.9376,6.8935,6.8458,6.7687,6.71,6.6623,6.6072,6.5448,6.4897,6.442,6.4127,6.398,6.3576,6.316,10.7826,10.707,10.6598,10.5958,10.5239,10.4701,10.3924,10.3223,10.3096,10.2863,10.2479,10.244,10.2339,10.2252,10.2046,10.1933,10.1835,10.184,10.1963,10.2241,10.2248,10.2405,10.2819,10.2819,10.2751,10.2635,10.2789,10.2904,10.2558,10.1779,10.1279,10.1317,10.1317,10.1279,10.1279,10.1279,10.1087,10.0712,10.0366,9.9913,9.949,9.9096,9.8827,9.8788,9.8442,9.8288,9.8134,9.798,9.7442,9.7173,9.698,9.6596,9.5826,9.5297,9.4758,9.4412,9.3018,9.171,9.071,8.9902,8.9056,8.8372,8.7671,8.7017,8.5824,8.4863,8.4093,8.3601,8.3293,8.3062,8.3024,8.2708,8.2285,8.1962,8.1713,8.1288,8.1044,8.0697,8.0458,8.0258,8.0068,7.967,7.9319,7.8929,7.8572,7.8234,7.7797,7.7362,7.6565,7.5678,7.5166,7.469,7.3999,7.3345,7.2943,7.2532,7.218,7.1923,7.1358,7.0844,7.061,7.0279,6.9816,6.9339,6.8715,6.8201,6.776,6.6953,6.6109,6.5668,6.5325,6.5044,6.4787,6.4677,6.4371,10.8555,10.766,10.6833,10.641,10.6166,10.5443,10.4601,10.3807,10.3743,10.3387,10.296,10.2869,10.2719,10.2582,10.2601,10.2596,10.2349,10.2241,10.2498,10.2857,10.305,10.3319,10.355,10.3751,10.3751,10.3905,10.3635,10.3674,10.3366,10.2751,10.201,10.1625,10.1741,10.151,10.1317,10.1279,10.1202,10.1173,10.0712,10.0481,10.0289,9.9827,9.9596,9.9442,9.9259,9.9144,9.9096,9.8788,9.8327,9.798,9.7519,9.7096,9.6557,9.5865,9.548,9.5134,9.4249,9.3403,9.2364,9.1364,9.0248,8.9517,8.8756,8.7987,8.7055,8.6017,8.5401,8.4863,8.4132,8.4016,8.3862,8.3717,8.3178,8.2808,8.2583,8.1982,8.148,8.1355,8.0953,8.0549,8.0401,8.0276,7.9881,7.9505,7.9188,7.8904,7.8574,7.8176,7.7402,7.6454,7.5999,7.565,7.4908,7.4364,7.4071,7.3632,7.3221,7.281,7.2245,7.1762,7.1541,7.1064,7.0513,7.0073,6.9669,6.9302,6.8862,6.7797,6.6769,6.6512,6.6256,6.5815,6.5595,6.5508,6.5362,10.949,10.8045,10.7526,10.6835,10.6039,10.5894,10.5281,10.4426,10.4389,10.4242,10.4017,10.4054,10.3844,10.3894,10.3709,10.3689,10.3742,10.38,10.3743,10.3762,10.3838,10.3963,10.4174,10.4212,10.4097,10.4097,10.4251,10.4212,10.3982,10.4097,10.3251,10.2635,10.2597,10.201,10.1741,10.175,10.1702,10.1712,10.1481,10.1404,10.1327,10.1135,10.1019,10.0866,10.0442,9.999,9.999,9.9404,9.8942,9.8711,9.8211,9.7557,9.7173,9.6596,9.6211,9.5826,9.5365,9.472,9.4095,9.2941,9.1902,9.0864,8.9748,8.8756,8.8286,8.7632,8.7171,8.6786,8.5863,8.5132,8.4747,8.4209,8.4132,8.3623,8.3415,8.2953,8.2498,8.2227,8.1806,8.109,8.0788,8.0733,8.0402,8.0017,7.9663,7.939,7.9066,7.8666,7.8361,7.759,7.7087,7.6611,7.5865,7.5425,7.5309,7.4883,7.4333,7.3989,7.3556,7.3014,7.2524,7.1974,7.1561,7.0954,7.0624,7.0293,6.9853,6.8825,6.7981,6.7554,6.7187,6.6843,6.6402,6.6182,6.5925,11.0131,10.953,10.8818,10.774,10.6471,10.6429,10.5868,10.5138,10.5018,10.4692,10.4267,10.4155,10.4111,10.4104,10.4068,10.4022,10.3945,10.3926,10.4242,10.454,10.4636,10.4943,10.5174,10.5328,10.5443,10.5366,10.5366,10.5443,10.552,10.5251,10.4866,10.4289,10.3712,10.3328,10.2943,10.2712,10.2789,10.2828,10.2828,10.2866,10.2789,10.2327,10.2097,10.2058,10.1289,10.0866,10.0789,10.0519,10.0096,9.9644,9.9221,9.8557,9.7788,9.7288,9.6826,9.6442,9.5942,9.5826,9.5441,9.421,9.2903,9.1864,9.0517,8.9479,8.9517,8.8709,8.8286,8.7902,8.7602,8.6824,8.6363,8.6094,8.5786,8.4863,8.4247,8.3939,8.3462,8.316,8.2636,8.1933,8.1576,8.1406,8.0985,8.0514,8.0159,7.9827,7.9517,7.9186,7.8903,7.8616,7.8097,7.7689,7.6996,7.6601,7.6485,7.5991,7.5393,7.5101,7.486,7.4216,7.3652,7.3411,7.2947,7.2237,7.1533,7.118,7.0629,6.983,6.9155,6.8545,6.8178,6.7907,6.743,6.7003,6.6906,11.0632,11.0372,10.9755,10.8597,10.7214,10.7054,10.6554,10.5812,10.5716,10.5389,10.4772,10.4772,10.4773,10.4725,10.4744,10.4754,10.481,10.4838,10.5059,10.5328,10.5559,10.5867,10.6203,10.6318,10.6164,10.6395,10.6395,10.628,10.6203,10.6356,10.5944,10.5366,10.4905,10.452,10.3789,10.3905,10.3905,10.3905,10.3905,10.3905,10.3712,10.3328,10.302,10.2943,10.2404,10.1981,10.1789,10.1558,10.1173,10.0635,10.0067,9.9452,9.8673,9.7942,9.748,9.698,9.6634,9.6557,9.598,9.5018,9.3749,9.2787,9.1633,9.0902,9.0479,8.9748,8.9094,8.9017,8.8825,8.8449,8.7786,8.7517,8.7017,8.6132,8.5863,8.5478,8.4478,8.3915,8.3399,8.2798,8.2564,8.2386,8.1986,8.1519,8.0764,8.0367,7.9902,7.9663,7.949,7.9194,7.8928,7.8541,7.8189,7.7911,7.7643,7.7263,7.6844,7.6216,7.5898,7.5319,7.4838,7.4611,7.4134,7.3318,7.2672,7.216,7.1696,7.1287,7.0381,6.9426,6.9132,6.8866,6.8852,6.8535,6.8553,11.0955,11.0224,11.0196,10.9357,10.8077,10.7837,10.7297,10.6517,10.6322,10.6243,10.6099,10.6128,10.6128,10.6108,10.5964,10.5915,10.5944,10.6049,10.6126,10.6136,10.6097,10.6328,10.6356,10.6395,10.6395,10.6395,10.6395,10.6395,10.6395,10.6395,10.629,10.6521,10.6251,10.5636,10.4135,10.3943,10.3943,10.3943,10.4059,10.4174,10.4174,10.4059,10.3866,10.3789,10.3558,10.3058,10.2712,10.2366,10.1943,10.1404,10.0635,10.0067,9.9683,9.9058,9.8404,9.7596,9.748,9.7134,9.6365,9.5489,9.4604,9.3749,9.2672,9.2249,9.2018,9.1095,9.0094,9.021,8.9517,8.8979,8.8718,8.8594,8.8017,8.7517,8.7209,8.6901,8.5901,8.5132,8.4684,8.4022,8.3723,8.3484,8.3132,8.26,8.1627,8.0927,8.0361,8.0058,7.9982,7.9729,7.9482,7.9291,7.9022,7.8864,7.8629,7.8602,7.8236,7.7571,7.6978,7.6507,7.5995,7.5667,7.5065,7.4316,7.3956,7.3624,7.3278,7.2959,7.1967,7.1001,7.0161,6.9862,6.9972,6.994,6.9727,11.1329,11.106,11.106,11.0448,10.9432,10.8786,10.8072,10.7264,10.6685,10.6395,10.6395,10.6395,10.6395,10.6395,10.6395,10.6395,10.6395,10.6395,10.6395,10.6395,10.6395,10.6395,10.6395,10.6395,10.6395,10.6395,10.6395,10.6472,10.6395,10.6549,10.6905,10.7175,10.7521,10.7098,10.602,10.5559,10.5559,10.5597,10.5597,10.5559,10.5482,10.5059,10.4751,10.4761,10.4328,10.3866,10.3443,10.3097,10.2558,10.2058,10.1289,10.0712,10.0337,9.9683,9.9298,9.8557,9.8327,9.7942,9.7173,9.6326,9.548,9.4634,9.3826,9.3326,9.3133,9.2326,9.1787,9.1402,9.071,9.0171,8.9671,8.9556,8.9056,8.8479,8.8179,8.8141,8.7525,8.6901,8.6316,8.55,8.497,8.4209,8.3698,8.3495,8.2715,8.1928,8.1401,8.0735,8.0526,8.0205,7.9902,7.9827,7.9665,7.9581,7.9482,7.9295,7.9176,7.8652,7.8204,7.7836,7.7343,7.6827,7.6186,7.5514,7.5349,7.5146,7.4718,7.4211,7.3488,7.264,7.1944,7.1045,7.0696,7.0552,7.0333,11.1511,11.1511,11.1511,11.1175,11.056,10.9713,10.8867,10.8098,10.7521,10.729,10.7251,10.7021,10.6856,10.679,10.6549,10.6395,10.6395,10.6395,10.6395,10.6395,10.6395,10.6395,10.6395,10.6433,10.6395,10.6472,10.6751,10.6905,10.6972,10.7164,10.7598,10.8136,10.8598,10.8136,10.7482,10.729,10.729,10.729,10.729,10.7251,10.7021,10.6597,10.6059,10.5828,10.5366,10.4674,10.4251,10.3751,10.3174,10.2674,10.2058,10.1366,10.0789,10.0404,10.0096,9.9519,9.8865,9.8404,9.7519,9.7096,9.6288,9.5518,9.4634,9.422,9.398,9.3287,9.2979,9.2633,9.2095,9.1518,9.0893,9.0701,9.0094,8.9487,8.9171,8.9133,8.8603,8.794,8.7671,8.6863,8.617,8.5286,8.4401,8.4124,8.375,8.3124,8.2451,8.1836,8.1251,8.0945,8.0573,8.0333,8.0215,8.0103,7.995,7.9784,7.9685,7.9618,7.9215,7.8765,7.8579,7.8029,7.7366,7.6826,7.669,7.6466,7.6017,7.5482,7.4922,7.4486,7.3988,7.2954,7.1743,7.1545,7.1622,11.1511,11.1511,11.1511,11.1511,11.1318,11.056,10.9752,10.8944,10.8867,10.879,10.8752,10.7944,10.7752,10.7598,10.6905,10.6703,10.6741,10.6703,10.6741,10.6703,10.6944,10.679,10.6751,10.679,10.6982,10.7021,10.7251,10.7713,10.7829,10.8367,10.879,10.8983,10.929,10.9175,10.906,10.8983,10.8829,10.8559,10.8406,10.8367,10.8175,10.7905,10.7444,10.7098,10.6597,10.5867,10.5366,10.4828,10.402,10.3366,10.2674,10.2097,10.1635,10.1356,10.0827,10.0173,9.9404,9.8634,9.8019,9.7788,9.7096,9.6326,9.5518,9.5181,9.4797,9.4296,9.3873,9.3518,9.3018,9.2749,9.2402,9.1748,9.1095,9.0633,9.0201,8.9787,8.921,8.8825,8.8709,8.8248,8.7671,8.6824,8.5824,8.5363,8.5085,8.4676,8.4049,8.3354,8.2732,8.2108,8.1668,8.0922,8.0772,8.0545,8.0401,8.0207,8.0109,8.0037,7.9795,7.9388,7.9285,7.9143,7.856,7.81,7.8001,7.7726,7.7174,7.6874,7.6573,7.6124,7.5537,7.4959,7.3753,7.3653,7.369,11.2011,11.1511,11.1511,11.1511,11.1472,11.1252,11.0637,10.979,10.9213,10.8906,10.8867,10.8675,10.8559,10.8521,10.829,10.8136,10.8136,10.8175,10.8213,10.8136,10.7905,10.8098,10.8136,10.8021,10.8136,10.8213,10.8367,10.8559,10.8713,10.9406,10.9829,10.9867,11.0252,11.0521,11.0598,11.0714,10.9944,10.9367,10.9175,10.9136,10.906,10.8752,10.8367,10.7905,10.7482,10.679,10.6174,10.5443,10.4713,10.4405,10.3789,10.3135,10.2327,10.2212,10.1866,10.0981,10.025,9.9567,9.9183,9.8211,9.7403,9.7057,9.6365,9.6057,9.5672,9.5172,9.4643,9.4373,9.3864,9.348,9.3287,9.2787,9.2249,9.1825,9.1441,9.1095,9.0479,8.9979,8.9825,8.9171,8.8632,8.8094,8.7132,8.6748,8.6478,8.617,8.5701,8.4975,8.4165,8.3504,8.2685,8.1939,8.1397,8.1233,8.0805,8.0562,8.0486,8.0383,8.0169,7.9986,7.9826,7.9681,7.9512,7.9294,7.9067,7.8689,7.8208,7.8019,7.7932,7.7327,7.6765,7.6383,7.6,7.5689,7.5502,11.2252,11.1549,11.1511,11.1511,11.1511,11.1511,11.1175,11.0637,11.0137,10.9906,10.9906,10.956,10.9406,10.9329,10.9021,10.879,10.879,10.8713,10.8713,10.8713,10.8983,10.879,10.8867,10.8944,10.879,10.8983,10.9252,10.9444,10.9637,11.0175,11.0714,11.0752,11.1329,11.1434,11.1434,11.1242,11.0906,11.0367,11.0021,10.9906,10.979,10.956,10.906,10.8636,10.8213,10.7444,10.6867,10.602,10.552,10.5184,10.453,10.3982,10.3174,10.2828,10.2174,10.1356,10.0904,10.0327,9.9875,9.9221,9.8327,9.7596,9.7057,9.6673,9.6249,9.5788,9.5557,9.5365,9.4711,9.4172,9.4057,9.3873,9.3441,9.2979,9.2787,9.2556,9.1941,9.1287,9.0624,8.997,8.944,8.9017,8.8556,8.8171,8.7902,8.7641,8.7294,8.6778,8.5761,8.4681,8.3772,8.288,8.2317,8.1883,8.1466,8.1069,8.0855,8.0717,8.0551,8.0411,8.0306,8.0228,8.0053,8.004,8.002,7.9629,7.9201,7.9297,7.9193,7.8603,7.8326,7.828,7.7814,7.7072,7.6992,11.2291,11.1511,11.1511,11.1511,11.1511,11.1511,11.1472,11.1511,11.1357,11.1472,11.1242,11.0637,11.0291,11.0175,10.9752,10.9444,10.9521,10.9521,10.956,10.9136,10.9483,10.9521,10.9483,10.9175,10.9598,10.9598,10.979,11.0329,11.0521,11.0906,11.1291,11.1483,11.1472,11.1511,11.1511,11.1511,11.128,11.1126,11.1049,11.1049,11.1021,11.0714,11.0214,10.9829,10.8906,10.7867,10.7521,10.6867,10.6097,10.552,10.5097,10.4789,10.402,10.3251,10.2404,10.1827,10.151,10.1019,10.0529,9.9913,9.9144,9.8327,9.7557,9.7134,9.6711,9.6249,9.6019,9.5942,9.5326,9.5134,9.5018,9.4788,9.4403,9.4018,9.3719,9.3326,9.271,9.2095,9.1518,9.0864,9.0325,8.9902,8.9556,8.9133,8.8786,8.8748,8.841,8.7987,8.7325,8.6085,8.5,8.397,8.3437,8.2897,8.2304,8.184,8.1277,8.1035,8.0946,8.0741,8.0605,8.0578,8.0587,8.0496,8.0411,8.0478,8.0296,8.021,8.0125,8.0058,7.9905,8.0277,7.9734,7.8671,7.8468,11.2829,11.1511,11.1511,11.1511,11.1511,11.1511,11.1511,11.1511,11.1511,11.1511,11.1472,11.128,11.1137,11.0983,11.0829,11.0665,11.0703,11.0521,11.0818,11.0741,11.0675,11.0483,11.0741,11.0549,11.0714,11.0944,11.1137,11.1098,11.1137,11.1357,11.1511,11.1511,11.1511,11.1511,11.1511,11.1511,11.1511,11.1511,11.1511,11.1511,11.1395,11.128,11.0944,11.0406,10.9521,10.8752,10.829,10.7598,10.6867,10.629,10.6136,10.5636,10.4866,10.402,10.3212,10.2481,10.2289,10.1789,10.1173,10.0644,9.9952,9.9211,9.8442,9.7711,9.7096,9.6596,9.6288,9.6211,9.6134,9.598,9.5865,9.5595,9.5365,9.498,9.4643,9.4104,9.3518,9.2903,9.2364,9.1825,9.1278,9.0864,9.0479,9.0094,8.9739,8.9325,8.8872,8.8487,8.8256,8.7401,8.6316,8.5354,8.4662,8.4061,8.3368,8.266,8.2089,8.1612,8.1456,8.1192,8.086,8.078,8.0775,8.0758,8.0723,8.0732,8.0723,8.0685,8.0676,8.0723,8.0723,8.0723,8.0723,7.9891,7.9941,11.2676,11.1549,11.1511,11.1511,11.1511,11.1511,11.1511,11.1511,11.1511,11.1511,11.1511,11.1511,11.1511,11.1511,11.1511,11.1511,11.1511,11.1472,11.1357,11.1434,11.1511,11.1434,11.1511,11.1511,11.1395,11.1511,11.1511,11.1472,11.1511,11.1511,11.1511,11.1511,11.1511,11.1511,11.1511,11.1511,11.1511,11.1511,11.1511,11.1511,11.1511,11.1395,11.1318,11.0829,11.0252,10.9598,10.9175,10.8521,10.7982,10.7482,10.7251,10.6136,10.5366,10.4674,10.402,10.3443,10.3097,10.2828,10.202,10.1404,10.0789,10.0019,9.949,9.875,9.748,9.6942,9.6634,9.6519,9.6288,9.6134,9.6134,9.5942,9.5903,9.5672,9.548,9.5172,9.4403,9.3633,9.3249,9.2903,9.2364,9.1825,9.1402,9.0902,9.0586,9.047,8.9902,8.9402,8.9133,8.8671,8.7632,8.6709,8.597,8.5124,8.4269,8.3577,8.2962,8.2484,8.2122,8.1606,8.1266,8.105,8.0948,8.1124,8.1124,8.0957,8.0948,8.1115,8.0978,8.091,8.091,8.0948,8.094,8.1009,8.0805,11.2242,11.1549,11.1511,11.1511,11.1511,11.1511,11.1511,11.1511,11.1511,11.1511,11.1511,11.1511,11.1511,11.1511,11.1511,11.1511,11.1511,11.1511,11.1511,11.1511,11.1511,11.1511,11.1511,11.1511,11.1511,11.1511,11.1511,11.1511,11.1511,11.1511,11.1511,11.1511,11.1511,11.1511,11.1511,11.1511,11.1511,11.1511,11.1511,11.1511,11.1511,11.1511,11.1434,11.1165,11.0829,11.0378,10.9983,10.9598,10.9098,10.8636,10.8098,10.7136,10.629,10.5674,10.4905,10.4405,10.402,10.3558,10.2943,10.2443,10.1635,10.0904,10.0452,9.9519,9.8173,9.748,9.7134,9.6826,9.6557,9.6326,9.6326,9.6288,9.624,9.6202,9.6095,9.6019,9.5172,9.4412,9.4104,9.3873,9.3326,9.2749,9.2326,9.1825,9.1518,9.1402,9.1086,9.0701,9.0201,8.9633,8.8825,8.7979,8.7209,8.6324,8.5401,8.4516,8.3824,8.3478,8.303,8.2277,8.1777,8.193,8.1922,8.1715,8.1684,8.1745,8.1715,8.1883,8.1646,8.1492,8.1784,8.1914,8.146,8.1452,8.1253,11.2252,11.1511,11.1511,11.1511,11.1511,11.1511,11.1511,11.1511,11.1511,11.1511,11.1511,11.1511,11.1511,11.1511,11.1511,11.1511,11.1511,11.1511,11.1511,11.1511,11.1511,11.1511,11.1511,11.1511,11.1511,11.1511,11.1511,11.1511,11.1511,11.1511,11.1511,11.1511,11.1511,11.1511,11.1549,11.1549,11.1665,11.178,11.1819,11.1819,11.1703,11.1626,11.1511,11.1395,11.1368,11.0791,11.0329,11.006,10.9521,10.906,10.8752,10.8059,10.7482,10.6944,10.629,10.5443,10.5097,10.4482,10.3943,10.3289,10.2443,10.1866,10.125,10.0221,9.9058,9.8173,9.7788,9.7365,9.7019,9.648,9.6365,9.6288,9.6288,9.6288,9.6211,9.6211,9.5788,9.5249,9.4835,9.4489,9.4057,9.3672,9.3403,9.2864,9.2326,9.2056,9.1595,9.121,9.1009,9.0509,8.9932,8.921,8.844,8.7825,8.7055,8.5555,8.4786,8.4439,8.3978,8.3208,8.2901,8.3178,8.3101,8.2639,8.2793,8.297,8.2939,8.2593,8.2785,8.2739,8.3054,8.3085,8.2477,8.2054,8.1977]}]]